Wetterdaten: Mittwoch, 15.06.2016
Datum Zeit Temp. A. Feuchte A. Luftdruck Regen Wind Richtung Richtung Sonnenschein ET UV Solar Taupunkt Windchill Windben Empfang
15.06.2016 00:00 13,3 C 95 % 1001,0 hPa 0,0 l/m 7,9 km/h (2 Bft) S-SW 194 0 min 0,000 mm 0,0 UV-I 0 W/m 12,5 C 12,4 C 11,3 km/h (2 Bft) 100,00 %
15.06.2016 00:02 13,3 C 95 % 1000,9 hPa 0,0 l/m 7,2 km/h (2 Bft) S-SW 205 0 min 0,000 mm 0,0 UV-I 0 W/m 12,5 C 12,8 C 11,3 km/h (2 Bft) 97,37 %
15.06.2016 00:03 13,3 C 95 % 1000,9 hPa 0,0 l/m 5,4 km/h (1 Bft) SW 218 0 min 0,000 mm 0,0 UV-I 0 W/m 12,5 C 13,3 C 8,0 km/h (2 Bft) 100,00 %
15.06.2016 00:04 13,3 C 95 % 1000,9 hPa 0,0 l/m 5,2 km/h (1 Bft) SW 218 0 min 0,000 mm 0,0 UV-I 0 W/m 12,5 C 13,3 C 9,7 km/h (2 Bft) 95,65 %
15.06.2016 00:05 13,3 C 95 % 1000,9 hPa 0,0 l/m 5,6 km/h (1 Bft) S-SW 198 0 min 0,000 mm 0,0 UV-I 0 W/m 12,5 C 13,3 C 8,0 km/h (2 Bft) 100,00 %
15.06.2016 00:06 13,3 C 95 % 1000,9 hPa 0,0 l/m 6,0 km/h (2 Bft) S 184 0 min 0,000 mm 0,0 UV-I 0 W/m 12,5 C 13,3 C 8,0 km/h (2 Bft) 100,00 %
15.06.2016 00:07 13,3 C 95 % 1000,9 hPa 0,0 l/m 6,5 km/h (2 Bft) S-SW 195 0 min 0,000 mm 0,0 UV-I 0 W/m 12,5 C 13,3 C 9,7 km/h (2 Bft) 100,00 %
15.06.2016 00:08 13,3 C 95 % 1000,9 hPa 0,0 l/m 4,9 km/h (1 Bft) S-SW 212 0 min 0,000 mm 0,0 UV-I 0 W/m 12,5 C 13,3 C 9,7 km/h (2 Bft) 100,00 %
15.06.2016 00:09 13,3 C 95 % 1000,9 hPa 0,0 l/m 8,4 km/h (2 Bft) S-SW 213 0 min 0,000 mm 0,0 UV-I 0 W/m 12,5 C 12,1 C 11,3 km/h (2 Bft) 100,00 %
15.06.2016 00:10 13,3 C 95 % 1000,9 hPa 0,0 l/m 6,0 km/h (2 Bft) S-SW 207 0 min 0,000 mm 0,0 UV-I 0 W/m 12,5 C 13,3 C 8,0 km/h (2 Bft) 100,00 %
15.06.2016 00:11 13,3 C 95 % 1000,9 hPa 0,0 l/m 6,0 km/h (2 Bft) S-SW 192 0 min 0,000 mm 0,0 UV-I 0 W/m 12,5 C 13,3 C 8,0 km/h (2 Bft) 100,00 %
15.06.2016 00:12 13,3 C 95 % 1000,8 hPa 0,0 l/m 7,8 km/h (2 Bft) SW 231 0 min 0,000 mm 0,0 UV-I 0 W/m 12,5 C 12,4 C 12,9 km/h (3 Bft) 100,00 %
15.06.2016 00:13 13,2 C 95 % 1000,8 hPa 0,2 l/m 6,4 km/h (2 Bft) SW 236 0 min 0,000 mm 0,0 UV-I 0 W/m 12,4 C 13,2 C 9,7 km/h (2 Bft) 100,00 %
15.06.2016 00:14 13,3 C 95 % 1000,8 hPa 0,0 l/m 6,9 km/h (2 Bft) W-SW 242 0 min 0,000 mm 0,0 UV-I 0 W/m 12,5 C 13,0 C 9,7 km/h (2 Bft) 100,00 %
15.06.2016 00:15 13,3 C 95 % 1000,8 hPa 0,0 l/m 6,9 km/h (2 Bft) SW 217 0 min 0,000 mm 0,0 UV-I 0 W/m 12,5 C 13,0 C 11,3 km/h (2 Bft) 100,00 %
15.06.2016 00:16 13,3 C 95 % 1000,8 hPa 0,0 l/m 6,5 km/h (2 Bft) S-SW 209 0 min 0,000 mm 0,0 UV-I 0 W/m 12,5 C 13,3 C 9,7 km/h (2 Bft) 100,00 %
15.06.2016 00:17 13,3 C 95 % 1000,8 hPa 0,0 l/m 6,8 km/h (2 Bft) W 261 0 min 0,000 mm 0,0 UV-I 0 W/m 12,5 C 13,1 C 9,7 km/h (2 Bft) 93,10 %
15.06.2016 00:18 13,3 C 94 % 1000,7 hPa 0,0 l/m 6,1 km/h (2 Bft) SW 236 0 min 0,000 mm 0,0 UV-I 0 W/m 12,4 C 13,3 C 9,7 km/h (2 Bft) 100,00 %
15.06.2016 00:19 13,3 C 95 % 1000,7 hPa 0,0 l/m 7,1 km/h (2 Bft) SW 230 0 min 0,000 mm 0,0 UV-I 0 W/m 12,5 C 12,9 C 11,3 km/h (2 Bft) 96,15 %
15.06.2016 00:20 13,3 C 95 % 1000,7 hPa 0,0 l/m 5,9 km/h (2 Bft) SW 231 0 min 0,000 mm 0,0 UV-I 0 W/m 12,5 C 13,3 C 9,7 km/h (2 Bft) 95,83 %
15.06.2016 00:21 13,3 C 95 % 1000,8 hPa 0,0 l/m 6,8 km/h (2 Bft) SW 220 0 min 0,000 mm 0,0 UV-I 0 W/m 12,5 C 13,1 C 8,0 km/h (2 Bft) 100,00 %
15.06.2016 00:22 13,3 C 95 % 1000,7 hPa 0,0 l/m 5,6 km/h (1 Bft) SW 230 0 min 0,000 mm 0,0 UV-I 0 W/m 12,5 C 13,3 C 8,0 km/h (2 Bft) 100,00 %
15.06.2016 00:23 13,3 C 95 % 1000,8 hPa 0,0 l/m 5,9 km/h (2 Bft) SW 231 0 min 0,000 mm 0,0 UV-I 0 W/m 12,5 C 13,3 C 9,7 km/h (2 Bft) 100,00 %
15.06.2016 00:24 13,3 C 95 % 1000,7 hPa 0,0 l/m 5,5 km/h (1 Bft) SW 234 0 min 0,000 mm 0,0 UV-I 0 W/m 12,5 C 13,3 C 9,7 km/h (2 Bft) 100,00 %
15.06.2016 00:25 13,3 C 95 % 1000,7 hPa 0,0 l/m 6,4 km/h (2 Bft) S-SW 208 0 min 0,000 mm 0,0 UV-I 0 W/m 12,5 C 13,3 C 8,0 km/h (2 Bft) 100,00 %
15.06.2016 00:26 13,3 C 95 % 1000,8 hPa 0,0 l/m 5,3 km/h (1 Bft) SW 219 0 min 0,000 mm 0,0 UV-I 0 W/m 12,5 C 13,3 C 8,0 km/h (2 Bft) 100,00 %
15.06.2016 00:27 13,3 C 95 % 1000,7 hPa 0,0 l/m 4,5 km/h (1 Bft) SW 231 0 min 0,000 mm 0,0 UV-I 0 W/m 12,5 C 13,3 C 6,4 km/h (2 Bft) 100,00 %
15.06.2016 00:28 13,3 C 95 % 1000,7 hPa 0,0 l/m 6,2 km/h (2 Bft) SW 223 0 min 0,000 mm 0,0 UV-I 0 W/m 12,5 C 13,3 C 8,0 km/h (2 Bft) 97,37 %
15.06.2016 00:29 13,3 C 95 % 1000,7 hPa 0,0 l/m 5,4 km/h (1 Bft) SW 216 0 min 0,000 mm 0,0 UV-I 0 W/m 12,5 C 13,3 C 11,3 km/h (2 Bft) 100,00 %
15.06.2016 00:30 13,3 C 95 % 1000,7 hPa 0,0 l/m 7,6 km/h (2 Bft) S-SW 211 0 min 0,000 mm 0,0 UV-I 0 W/m 12,5 C 12,6 C 11,3 km/h (2 Bft) 100,00 %
15.06.2016 00:31 13,3 C 95 % 1000,7 hPa 0,0 l/m 5,9 km/h (2 Bft) SW 235 0 min 0,000 mm 0,0 UV-I 0 W/m 12,5 C 13,3 C 8,0 km/h (2 Bft) 100,00 %
15.06.2016 00:32 13,3 C 95 % 1000,7 hPa 0,0 l/m 6,6 km/h (2 Bft) S 189 0 min 0,000 mm 0,0 UV-I 0 W/m 12,5 C 13,2 C 9,7 km/h (2 Bft) 96,15 %
15.06.2016 00:33 13,3 C 95 % 1000,7 hPa 0,0 l/m 6,2 km/h (2 Bft) S-SW 200 0 min 0,000 mm 0,0 UV-I 0 W/m 12,5 C 13,3 C 8,0 km/h (2 Bft) 100,00 %
15.06.2016 00:34 13,3 C 95 % 1000,7 hPa 0,0 l/m 4,5 km/h (1 Bft) S-SW 192 0 min 0,000 mm 0,0 UV-I 0 W/m 12,5 C 13,3 C 6,4 km/h (2 Bft) 91,30 %
15.06.2016 00:35 13,3 C 95 % 1000,7 hPa 0,0 l/m 5,7 km/h (1 Bft) W-SW 246 0 min 0,000 mm 0,0 UV-I 0 W/m 12,5 C 13,3 C 8,0 km/h (2 Bft) 100,00 %
15.06.2016 00:36 13,3 C 95 % 1000,7 hPa 0,0 l/m 4,5 km/h (1 Bft) SW 222 0 min 0,000 mm 0,0 UV-I 0 W/m 12,5 C 13,3 C 6,4 km/h (2 Bft) 100,00 %
15.06.2016 00:37 13,3 C 95 % 1000,6 hPa 0,0 l/m 4,0 km/h (1 Bft) SW 236 0 min 0,000 mm 0,0 UV-I 0 W/m 12,5 C 13,3 C 6,4 km/h (2 Bft) 93,33 %
15.06.2016 00:38 13,3 C 95 % 1000,7 hPa 0,0 l/m 4,1 km/h (1 Bft) SW 232 0 min 0,000 mm 0,0 UV-I 0 W/m 12,5 C 13,3 C 6,4 km/h (2 Bft) 100,00 %
15.06.2016 00:39 13,3 C 95 % 1000,7 hPa 0,0 l/m 4,0 km/h (1 Bft) SW 230 0 min 0,000 mm 0,0 UV-I 0 W/m 12,5 C 13,3 C 6,4 km/h (2 Bft) 100,00 %
15.06.2016 00:40 13,3 C 95 % 1000,7 hPa 0,0 l/m 4,8 km/h (1 Bft) W-SW 244 0 min 0,000 mm 0,0 UV-I 0 W/m 12,5 C 13,3 C 6,4 km/h (2 Bft) 100,00 %
15.06.2016 00:41 13,3 C 95 % 1000,7 hPa 0,0 l/m 5,9 km/h (2 Bft) W 261 0 min 0,000 mm 0,0 UV-I 0 W/m 12,5 C 13,3 C 6,4 km/h (2 Bft) 100,00 %
15.06.2016 00:42 13,3 C 95 % 1000,7 hPa 0,0 l/m 4,7 km/h (1 Bft) SW 236 0 min 0,000 mm 0,0 UV-I 0 W/m 12,5 C 13,3 C 4,8 km/h (1 Bft) 98,85 %
15.06.2016 00:43 13,3 C 95 % 1000,7 hPa 0,0 l/m 5,0 km/h (1 Bft) SW 219 0 min 0,000 mm 0,0 UV-I 0 W/m 12,5 C 13,3 C 6,4 km/h (2 Bft) 100,00 %
15.06.2016 00:44 13,3 C 95 % 1000,7 hPa 0,0 l/m 5,7 km/h (1 Bft) SW 223 0 min 0,000 mm 0,0 UV-I 0 W/m 12,5 C 13,3 C 6,4 km/h (2 Bft) 95,65 %
15.06.2016 00:45 13,3 C 95 % 1000,7 hPa 0,0 l/m 5,3 km/h (1 Bft) SW 235 0 min 0,000 mm 0,0 UV-I 0 W/m 12,5 C 13,3 C 6,4 km/h (2 Bft) 100,00 %
15.06.2016 00:46 13,3 C 95 % 1000,7 hPa 0,0 l/m 6,5 km/h (2 Bft) SW 227 0 min 0,000 mm 0,0 UV-I 0 W/m 12,5 C 13,3 C 11,3 km/h (2 Bft) 100,00 %
15.06.2016 00:47 13,3 C 95 % 1000,7 hPa 0,0 l/m 6,3 km/h (2 Bft) SW 218 0 min 0,000 mm 0,0 UV-I 0 W/m 12,5 C 13,3 C 9,7 km/h (2 Bft) 92,59 %
15.06.2016 00:48 13,3 C 95 % 1000,7 hPa 0,0 l/m 6,7 km/h (2 Bft) S-SW 213 0 min 0,000 mm 0,0 UV-I 0 W/m 12,5 C 13,1 C 11,3 km/h (2 Bft) 100,00 %
15.06.2016 00:49 13,3 C 95 % 1000,7 hPa 0,0 l/m 6,0 km/h (2 Bft) S-SW 212 0 min 0,000 mm 0,0 UV-I 0 W/m 12,5 C 13,3 C 8,0 km/h (2 Bft) 100,00 %
15.06.2016 00:50 13,3 C 95 % 1000,7 hPa 0,0 l/m 4,8 km/h (1 Bft) SW 225 0 min 0,000 mm 0,0 UV-I 0 W/m 12,5 C 13,3 C 8,0 km/h (2 Bft) 100,00 %
15.06.2016 00:51 13,3 C 95 % 1000,7 hPa 0,0 l/m 4,9 km/h (1 Bft) SW 221 0 min 0,000 mm 0,0 UV-I 0 W/m 12,5 C 13,3 C 8,0 km/h (2 Bft) 96,55 %
15.06.2016 00:52 13,3 C 95 % 1000,7 hPa 0,2 l/m 5,5 km/h (1 Bft) S-SW 194 0 min 0,000 mm 0,0 UV-I 0 W/m 12,5 C 13,3 C 6,4 km/h (2 Bft) 100,00 %
15.06.2016 00:53 13,3 C 95 % 1000,7 hPa 0,0 l/m 5,6 km/h (1 Bft) S-SW 205 0 min 0,000 mm 0,0 UV-I 0 W/m 12,5 C 13,3 C 6,4 km/h (2 Bft) 95,65 %
15.06.2016 00:54 13,3 C 95 % 1000,7 hPa 0,0 l/m 4,5 km/h (1 Bft) S-SW 213 0 min 0,000 mm 0,0 UV-I 0 W/m 12,5 C 13,3 C 6,4 km/h (2 Bft) 95,83 %
15.06.2016 00:55 13,3 C 95 % 1000,7 hPa 0,0 l/m 6,0 km/h (2 Bft) SW 229 0 min 0,000 mm 0,0 UV-I 0 W/m 12,5 C 13,3 C 8,0 km/h (2 Bft) 100,00 %
15.06.2016 00:56 13,3 C 95 % 1000,6 hPa 0,0 l/m 6,5 km/h (2 Bft) SW 217 0 min 0,000 mm 0,0 UV-I 0 W/m 12,5 C 13,3 C 9,7 km/h (2 Bft) 96,30 %
15.06.2016 00:57 13,3 C 95 % 1000,7 hPa 0,0 l/m 8,3 km/h (2 Bft) W 261 0 min 0,000 mm 0,0 UV-I 0 W/m 12,5 C 12,1 C 12,9 km/h (3 Bft) 96,15 %
15.06.2016 00:58 13,3 C 95 % 1000,7 hPa 0,0 l/m 5,3 km/h (1 Bft) W-SW 238 0 min 0,000 mm 0,0 UV-I 0 W/m 12,5 C 13,3 C 9,7 km/h (2 Bft) 100,00 %
15.06.2016 00:59 13,3 C 95 % 1000,7 hPa 0,0 l/m 6,4 km/h (2 Bft) SW 229 0 min 0,000 mm 0,0 UV-I 0 W/m 12,5 C 13,3 C 8,0 km/h (2 Bft) 100,00 %
15.06.2016 01:00 13,4 C 95 % 1000,7 hPa 0,0 l/m 5,8 km/h (2 Bft) SW 229 0 min 0,000 mm 0,0 UV-I 0 W/m 12,6 C 13,4 C 8,0 km/h (2 Bft) 96,55 %
15.06.2016 01:02 13,3 C 95 % 1000,7 hPa 0,0 l/m 5,3 km/h (1 Bft) SW 234 0 min 0,000 mm 0,0 UV-I 0 W/m 12,5 C 13,3 C 8,0 km/h (2 Bft) 94,00 %
15.06.2016 01:03 13,4 C 95 % 1000,7 hPa 0,0 l/m 6,7 km/h (2 Bft) SW 217 0 min 0,000 mm 0,0 UV-I 0 W/m 12,6 C 13,2 C 9,7 km/h (2 Bft) 93,33 %
15.06.2016 01:04 13,4 C 95 % 1000,7 hPa 0,0 l/m 7,0 km/h (2 Bft) W-SW 252 0 min 0,000 mm 0,0 UV-I 0 W/m 12,6 C 13,0 C 9,7 km/h (2 Bft) 100,00 %
15.06.2016 01:05 13,4 C 95 % 1000,7 hPa 0,0 l/m 6,8 km/h (2 Bft) W-SW 238 0 min 0,000 mm 0,0 UV-I 0 W/m 12,6 C 13,2 C 12,9 km/h (3 Bft) 96,15 %
15.06.2016 01:06 13,3 C 95 % 1000,7 hPa 0,0 l/m 8,1 km/h (2 Bft) W 264 0 min 0,000 mm 0,0 UV-I 0 W/m 12,5 C 12,3 C 12,9 km/h (3 Bft) 100,00 %
15.06.2016 01:07 13,3 C 95 % 1000,7 hPa 0,2 l/m 10,0 km/h (2 Bft) SW 217 0 min 0,000 mm 0,0 UV-I 0 W/m 12,5 C 11,2 C 12,9 km/h (3 Bft) 92,59 %
15.06.2016 01:08 13,3 C 95 % 1000,8 hPa 0,0 l/m 9,3 km/h (2 Bft) SW 233 0 min 0,000 mm 0,0 UV-I 0 W/m 12,5 C 11,6 C 12,9 km/h (3 Bft) 96,15 %
15.06.2016 01:09 13,3 C 95 % 1000,8 hPa 0,0 l/m 10,4 km/h (2 Bft) SW 224 0 min 0,000 mm 0,0 UV-I 0 W/m 12,5 C 11,0 C 16,1 km/h (3 Bft) 100,00 %
15.06.2016 01:10 13,3 C 95 % 1000,8 hPa 0,0 l/m 8,4 km/h (2 Bft) SW 214 0 min 0,000 mm 0,0 UV-I 0 W/m 12,5 C 12,1 C 11,3 km/h (2 Bft) 97,37 %
15.06.2016 01:11 13,3 C 95 % 1000,8 hPa 0,0 l/m 8,7 km/h (2 Bft) W-SW 244 0 min 0,000 mm 0,0 UV-I 0 W/m 12,5 C 11,9 C 12,9 km/h (3 Bft) 100,00 %
15.06.2016 01:12 13,3 C 95 % 1000,8 hPa 0,0 l/m 9,7 km/h (2 Bft) SW 234 0 min 0,000 mm 0,0 UV-I 0 W/m 12,5 C 11,4 C 12,9 km/h (3 Bft) 95,65 %
15.06.2016 01:13 13,3 C 95 % 1000,8 hPa 0,0 l/m 8,7 km/h (2 Bft) W-SW 238 0 min 0,000 mm 0,0 UV-I 0 W/m 12,5 C 11,9 C 12,9 km/h (3 Bft) 100,00 %
15.06.2016 01:14 13,3 C 95 % 1000,8 hPa 0,0 l/m 9,7 km/h (2 Bft) W-SW 256 0 min 0,000 mm 0,0 UV-I 0 W/m 12,5 C 11,4 C 14,5 km/h (3 Bft) 96,55 %
15.06.2016 01:15 13,3 C 95 % 1000,8 hPa 0,0 l/m 9,4 km/h (2 Bft) W-SW 245 0 min 0,000 mm 0,0 UV-I 0 W/m 12,5 C 11,5 C 14,5 km/h (3 Bft) 100,00 %
15.06.2016 01:16 13,3 C 95 % 1000,8 hPa 0,0 l/m 10,5 km/h (2 Bft) W-SW 255 0 min 0,000 mm 0,0 UV-I 0 W/m 12,5 C 11,0 C 14,5 km/h (3 Bft) 96,15 %
15.06.2016 01:17 13,3 C 95 % 1000,8 hPa 0,0 l/m 10,9 km/h (2 Bft) W-SW 252 0 min 0,000 mm 0,0 UV-I 0 W/m 12,5 C 10,8 C 14,5 km/h (3 Bft) 92,59 %
15.06.2016 01:18 13,3 C 95 % 1000,8 hPa 0,0 l/m 12,5 km/h (3 Bft) W-SW 242 0 min 0,000 mm 0,0 UV-I 0 W/m 12,5 C 10,1 C 19,3 km/h (3 Bft) 100,00 %
15.06.2016 01:19 13,3 C 95 % 1000,8 hPa 0,0 l/m 13,4 km/h (3 Bft) SW 231 0 min 0,000 mm 0,0 UV-I 0 W/m 12,5 C 9,7 C 19,3 km/h (3 Bft) 91,67 %
15.06.2016 01:20 13,3 C 95 % 1000,8 hPa 0,0 l/m 10,9 km/h (2 Bft) SW 215 0 min 0,000 mm 0,0 UV-I 0 W/m 12,5 C 10,8 C 14,5 km/h (3 Bft) 100,00 %
15.06.2016 01:21 13,3 C 95 % 1000,8 hPa 0,0 l/m 9,7 km/h (2 Bft) SW 224 0 min 0,000 mm 0,0 UV-I 0 W/m 12,5 C 11,4 C 16,1 km/h (3 Bft) 96,67 %
15.06.2016 01:22 13,3 C 95 % 1000,8 hPa 0,0 l/m 9,8 km/h (2 Bft) W-SW 242 0 min 0,000 mm 0,0 UV-I 0 W/m 12,5 C 11,3 C 14,5 km/h (3 Bft) 91,30 %
15.06.2016 01:23 13,3 C 95 % 1000,8 hPa 0,0 l/m 7,6 km/h (2 Bft) W-SW 247 0 min 0,000 mm 0,0 UV-I 0 W/m 12,5 C 12,6 C 11,3 km/h (2 Bft) 100,00 %
15.06.2016 01:24 13,3 C 95 % 1000,9 hPa 0,0 l/m 12,5 km/h (3 Bft) S-SW 194 0 min 0,000 mm 0,0 UV-I 0 W/m 12,5 C 10,1 C 19,3 km/h (3 Bft) 91,30 %
15.06.2016 01:25 13,3 C 95 % 1000,8 hPa 0,0 l/m 10,9 km/h (2 Bft) S 185 0 min 0,000 mm 0,0 UV-I 0 W/m 12,5 C 10,8 C 14,5 km/h (3 Bft) 100,00 %
15.06.2016 01:26 13,3 C 95 % 1000,8 hPa 0,0 l/m 12,2 km/h (2 Bft) SW 225 0 min 0,000 mm 0,0 UV-I 0 W/m 12,5 C 10,2 C 17,7 km/h (3 Bft) 97,99 %
15.06.2016 01:27 13,3 C 95 % 1000,8 hPa 0,0 l/m 10,3 km/h (2 Bft) S-SW 192 0 min 0,000 mm 0,0 UV-I 0 W/m 12,5 C 11,1 C 16,1 km/h (3 Bft) 100,00 %
15.06.2016 01:28 13,3 C 95 % 1000,8 hPa 0,0 l/m 11,3 km/h (2 Bft) SW 219 0 min 0,000 mm 0,0 UV-I 0 W/m 12,5 C 10,6 C 14,5 km/h (3 Bft) 100,00 %
15.06.2016 01:29 13,3 C 94 % 1000,8 hPa 0,0 l/m 9,5 km/h (2 Bft) S-SW 193 0 min 0,000 mm 0,0 UV-I 0 W/m 12,4 C 11,5 C 11,3 km/h (2 Bft) 100,00 %
15.06.2016 01:30 13,3 C 95 % 1000,8 hPa 0,0 l/m 7,2 km/h (2 Bft) SW 215 0 min 0,000 mm 0,0 UV-I 0 W/m 12,5 C 12,8 C 9,7 km/h (2 Bft) 100,00 %
15.06.2016 01:31 13,3 C 95 % 1000,8 hPa 0,2 l/m 10,8 km/h (2 Bft) SW 221 0 min 0,000 mm 0,0 UV-I 0 W/m 12,5 C 10,9 C 16,1 km/h (3 Bft) 100,00 %
15.06.2016 01:32 13,3 C 94 % 1000,8 hPa 0,0 l/m 13,0 km/h (3 Bft) SW 219 0 min 0,000 mm 0,0 UV-I 0 W/m 12,4 C 9,9 C 16,1 km/h (3 Bft) 96,30 %
15.06.2016 01:33 13,3 C 94 % 1000,8 hPa 0,0 l/m 13,8 km/h (3 Bft) SW 236 0 min 0,000 mm 0,0 UV-I 0 W/m 12,4 C 9,6 C 19,3 km/h (3 Bft) 100,00 %
15.06.2016 01:34 13,3 C 94 % 1000,8 hPa 0,0 l/m 15,1 km/h (3 Bft) W-SW 238 0 min 0,000 mm 0,0 UV-I 0 W/m 12,4 C 9,1 C 19,3 km/h (3 Bft) 100,00 %
15.06.2016 01:35 13,3 C 94 % 1000,8 hPa 0,0 l/m 13,0 km/h (3 Bft) S-SW 209 0 min 0,000 mm 0,0 UV-I 0 W/m 12,4 C 9,9 C 17,7 km/h (3 Bft) 100,00 %
15.06.2016 01:36 13,3 C 94 % 1000,8 hPa 0,0 l/m 10,0 km/h (2 Bft) W-SW 249 0 min 0,000 mm 0,0 UV-I 0 W/m 12,4 C 11,2 C 14,5 km/h (3 Bft) 100,00 %
15.06.2016 01:37 13,3 C 94 % 1000,8 hPa 0,0 l/m 11,3 km/h (2 Bft) SW 220 0 min 0,000 mm 0,0 UV-I 0 W/m 12,4 C 10,6 C 16,1 km/h (3 Bft) 100,00 %
15.06.2016 01:38 13,3 C 94 % 1000,8 hPa 0,0 l/m 10,9 km/h (2 Bft) S 190 0 min 0,000 mm 0,0 UV-I 0 W/m 12,4 C 10,8 C 17,7 km/h (3 Bft) 92,59 %
15.06.2016 01:39 13,3 C 94 % 1000,8 hPa 0,0 l/m 11,9 km/h (2 Bft) SW 216 0 min 0,000 mm 0,0 UV-I 0 W/m 12,4 C 10,4 C 17,7 km/h (3 Bft) 100,00 %
15.06.2016 01:40 13,3 C 94 % 1000,8 hPa 0,0 l/m 16,1 km/h (3 Bft) W-SW 246 0 min 0,000 mm 0,0 UV-I 0 W/m 12,4 C 8,7 C 22,5 km/h (4 Bft) 95,83 %
15.06.2016 01:41 13,3 C 94 % 1000,8 hPa 0,0 l/m 11,3 km/h (2 Bft) SW 214 0 min 0,000 mm 0,0 UV-I 0 W/m 12,4 C 10,6 C 12,9 km/h (3 Bft) 100,00 %
15.06.2016 01:42 13,3 C 94 % 1000,8 hPa 0,0 l/m 10,2 km/h (2 Bft) W-SW 252 0 min 0,000 mm 0,0 UV-I 0 W/m 12,4 C 11,1 C 14,5 km/h (3 Bft) 95,83 %
15.06.2016 01:43 13,3 C 94 % 1000,7 hPa 0,0 l/m 11,7 km/h (2 Bft) SW 234 0 min 0,000 mm 0,0 UV-I 0 W/m 12,4 C 10,4 C 17,7 km/h (3 Bft) 100,00 %
15.06.2016 01:44 13,3 C 94 % 1000,7 hPa 0,0 l/m 12,9 km/h (3 Bft) SW 227 0 min 0,000 mm 0,0 UV-I 0 W/m 12,4 C 9,9 C 22,5 km/h (4 Bft) 100,00 %
15.06.2016 01:45 13,3 C 94 % 1000,8 hPa 0,0 l/m 7,0 km/h (2 Bft) SW 215 0 min 0,000 mm 0,0 UV-I 0 W/m 12,4 C 12,9 C 9,7 km/h (2 Bft) 96,30 %
15.06.2016 01:46 13,3 C 94 % 1000,8 hPa 0,0 l/m 11,0 km/h (2 Bft) W-SW 252 0 min 0,000 mm 0,0 UV-I 0 W/m 12,4 C 10,8 C 14,5 km/h (3 Bft) 100,00 %
15.06.2016 01:47 13,3 C 94 % 1000,7 hPa 0,0 l/m 10,3 km/h (2 Bft) SW 232 0 min 0,000 mm 0,0 UV-I 0 W/m 12,4 C 11,1 C 17,7 km/h (3 Bft) 100,00 %
15.06.2016 01:48 13,3 C 94 % 1000,8 hPa 0,0 l/m 11,3 km/h (2 Bft) S-SW 209 0 min 0,000 mm 0,0 UV-I 0 W/m 12,4 C 10,6 C 14,5 km/h (3 Bft) 100,00 %
15.06.2016 01:49 13,3 C 95 % 1000,8 hPa 0,0 l/m 13,4 km/h (3 Bft) SW 234 0 min 0,000 mm 0,0 UV-I 0 W/m 12,5 C 9,7 C 19,3 km/h (3 Bft) 96,30 %
15.06.2016 01:50 13,3 C 95 % 1000,7 hPa 0,0 l/m 10,3 km/h (2 Bft) SW 225 0 min 0,000 mm 0,0 UV-I 0 W/m 12,5 C 11,1 C 12,9 km/h (3 Bft) 100,00 %
15.06.2016 01:51 13,3 C 95 % 1000,7 hPa 0,0 l/m 7,6 km/h (2 Bft) SW 223 0 min 0,000 mm 0,0 UV-I 0 W/m 12,5 C 12,6 C 12,9 km/h (3 Bft) 100,00 %
15.06.2016 01:52 13,3 C 95 % 1000,7 hPa 0,0 l/m 8,6 km/h (2 Bft) SW 233 0 min 0,000 mm 0,0 UV-I 0 W/m 12,5 C 12,0 C 12,9 km/h (3 Bft) 100,00 %
15.06.2016 01:53 13,3 C 95 % 1000,7 hPa 0,2 l/m 8,1 km/h (2 Bft) SW 226 0 min 0,000 mm 0,0 UV-I 0 W/m 12,5 C 12,3 C 11,3 km/h (2 Bft) 100,00 %
15.06.2016 01:54 13,3 C 95 % 1000,7 hPa 0,0 l/m 7,5 km/h (2 Bft) W-SW 239 0 min 0,000 mm 0,0 UV-I 0 W/m 12,5 C 12,6 C 8,0 km/h (2 Bft) 100,00 %
15.06.2016 01:55 13,3 C 95 % 1000,7 hPa 0,0 l/m 8,4 km/h (2 Bft) SW 229 0 min 0,000 mm 0,0 UV-I 0 W/m 12,5 C 12,1 C 12,9 km/h (3 Bft) 100,00 %
15.06.2016 01:56 13,3 C 95 % 1000,7 hPa 0,0 l/m 6,9 km/h (2 Bft) SW 217 0 min 0,000 mm 0,0 UV-I 0 W/m 12,5 C 13,0 C 9,7 km/h (2 Bft) 100,00 %
15.06.2016 01:57 13,3 C 95 % 1000,7 hPa 0,0 l/m 7,2 km/h (2 Bft) S-SW 205 0 min 0,000 mm 0,0 UV-I 0 W/m 12,5 C 12,8 C 9,7 km/h (2 Bft) 100,00 %
15.06.2016 01:58 13,3 C 95 % 1000,7 hPa 0,0 l/m 7,3 km/h (2 Bft) SW 227 0 min 0,000 mm 0,0 UV-I 0 W/m 12,5 C 12,7 C 11,3 km/h (2 Bft) 100,00 %
15.06.2016 01:59 13,3 C 95 % 1000,7 hPa 0,0 l/m 7,5 km/h (2 Bft) S-SW 205 0 min 0,000 mm 0,0 UV-I 0 W/m 12,5 C 12,6 C 11,3 km/h (2 Bft) 100,00 %
15.06.2016 02:00 13,3 C 95 % 1000,6 hPa 0,0 l/m 8,2 km/h (2 Bft) SW 234 0 min 0,000 mm 0,0 UV-I 0 W/m 12,5 C 12,2 C 12,9 km/h (3 Bft) 100,00 %
15.06.2016 02:01 13,3 C 95 % 1000,7 hPa 0,0 l/m 6,0 km/h (2 Bft) W-SW 238 0 min 0,000 mm 0,0 UV-I 0 W/m 12,5 C 13,3 C 9,7 km/h (2 Bft) 100,00 %
15.06.2016 02:02 13,3 C 95 % 1000,6 hPa 0,0 l/m 7,5 km/h (2 Bft) SW 232 0 min 0,000 mm 0,0 UV-I 0 W/m 12,5 C 12,6 C 9,7 km/h (2 Bft) 94,12 %
15.06.2016 02:03 13,3 C 95 % 1000,7 hPa 0,0 l/m 6,1 km/h (2 Bft) SW 231 0 min 0,000 mm 0,0 UV-I 0 W/m 12,5 C 13,3 C 8,0 km/h (2 Bft) 100,00 %
15.06.2016 02:04 13,3 C 95 % 1000,7 hPa 0,0 l/m 6,3 km/h (2 Bft) W-SW 243 0 min 0,000 mm 0,0 UV-I 0 W/m 12,5 C 13,3 C 9,7 km/h (2 Bft) 100,00 %
15.06.2016 02:05 13,3 C 95 % 1000,7 hPa 0,0 l/m 7,3 km/h (2 Bft) SW 230 0 min 0,000 mm 0,0 UV-I 0 W/m 12,5 C 12,7 C 9,7 km/h (2 Bft) 100,00 %
15.06.2016 02:06 13,3 C 95 % 1000,6 hPa 0,0 l/m 5,2 km/h (1 Bft) SW 226 0 min 0,000 mm 0,0 UV-I 0 W/m 12,5 C 13,3 C 6,4 km/h (2 Bft) 100,00 %
15.06.2016 02:07 13,3 C 95 % 1000,6 hPa 0,0 l/m 6,4 km/h (2 Bft) SW 226 0 min 0,000 mm 0,0 UV-I 0 W/m 12,5 C 13,3 C 9,7 km/h (2 Bft) 100,00 %
15.06.2016 02:08 13,3 C 95 % 1000,6 hPa 0,0 l/m 8,4 km/h (2 Bft) SW 225 0 min 0,000 mm 0,0 UV-I 0 W/m 12,5 C 12,1 C 12,9 km/h (3 Bft) 100,00 %
15.06.2016 02:09 13,3 C 95 % 1000,6 hPa 0,0 l/m 5,8 km/h (2 Bft) SW 225 0 min 0,000 mm 0,0 UV-I 0 W/m 12,5 C 13,3 C 8,0 km/h (2 Bft) 100,00 %
15.06.2016 02:10 13,3 C 95 % 1000,6 hPa 0,0 l/m 4,9 km/h (1 Bft) SW 234 0 min 0,000 mm 0,0 UV-I 0 W/m 12,5 C 13,3 C 6,4 km/h (2 Bft) 100,00 %
15.06.2016 02:11 13,3 C 95 % 1000,6 hPa 0,0 l/m 5,5 km/h (1 Bft) S-SW 207 0 min 0,000 mm 0,0 UV-I 0 W/m 12,5 C 13,3 C 8,0 km/h (2 Bft) 100,00 %
15.06.2016 02:12 13,3 C 95 % 1000,6 hPa 0,0 l/m 6,0 km/h (2 Bft) W-SW 238 0 min 0,000 mm 0,0 UV-I 0 W/m 12,5 C 13,3 C 9,7 km/h (2 Bft) 100,00 %
15.06.2016 02:13 13,3 C 96 % 1000,6 hPa 0,0 l/m 5,6 km/h (1 Bft) S-SW 199 0 min 0,000 mm 0,0 UV-I 0 W/m 12,7 C 13,3 C 6,4 km/h (2 Bft) 100,00 %
15.06.2016 02:14 13,3 C 96 % 1000,6 hPa 0,0 l/m 6,9 km/h (2 Bft) SW 231 0 min 0,000 mm 0,0 UV-I 0 W/m 12,7 C 13,0 C 9,7 km/h (2 Bft) 100,00 %
15.06.2016 02:15 13,3 C 96 % 1000,5 hPa 0,0 l/m 4,4 km/h (1 Bft) SW 216 0 min 0,000 mm 0,0 UV-I 0 W/m 12,7 C 13,3 C 6,4 km/h (2 Bft) 100,00 %
15.06.2016 02:16 13,3 C 96 % 1000,5 hPa 0,0 l/m 7,1 km/h (2 Bft) W-SW 242 0 min 0,000 mm 0,0 UV-I 0 W/m 12,7 C 12,9 C 9,7 km/h (2 Bft) 100,00 %
15.06.2016 02:17 13,3 C 96 % 1000,5 hPa 0,0 l/m 5,5 km/h (1 Bft) SW 216 0 min 0,000 mm 0,0 UV-I 0 W/m 12,7 C 13,3 C 8,0 km/h (2 Bft) 100,00 %
15.06.2016 02:18 13,3 C 96 % 1000,5 hPa 0,0 l/m 7,4 km/h (2 Bft) SW 232 0 min 0,000 mm 0,0 UV-I 0 W/m 12,7 C 12,7 C 11,3 km/h (2 Bft) 100,00 %
15.06.2016 02:19 13,3 C 96 % 1000,5 hPa 0,0 l/m 7,1 km/h (2 Bft) S-SW 208 0 min 0,000 mm 0,0 UV-I 0 W/m 12,7 C 12,9 C 9,7 km/h (2 Bft) 100,00 %
15.06.2016 02:20 13,3 C 96 % 1000,5 hPa 0,2 l/m 8,6 km/h (2 Bft) SW 236 0 min 0,000 mm 0,0 UV-I 0 W/m 12,7 C 12,0 C 11,3 km/h (2 Bft) 100,00 %
15.06.2016 02:21 13,3 C 96 % 1000,4 hPa 0,0 l/m 5,4 km/h (1 Bft) S-SW 202 0 min 0,000 mm 0,0 UV-I 0 W/m 12,7 C 13,3 C 8,0 km/h (2 Bft) 100,00 %
15.06.2016 02:22 13,2 C 96 % 1000,4 hPa 0,0 l/m 7,2 km/h (2 Bft) S 176 0 min 0,000 mm 0,0 UV-I 0 W/m 12,6 C 12,7 C 11,3 km/h (2 Bft) 100,00 %
15.06.2016 02:23 13,2 C 95 % 1000,4 hPa 0,0 l/m 6,8 km/h (2 Bft) S-SW 195 0 min 0,000 mm 0,0 UV-I 0 W/m 12,4 C 13,0 C 9,7 km/h (2 Bft) 100,00 %
15.06.2016 02:24 13,2 C 95 % 1000,3 hPa 0,0 l/m 6,2 km/h (2 Bft) S-SW 203 0 min 0,000 mm 0,0 UV-I 0 W/m 12,4 C 13,2 C 11,3 km/h (2 Bft) 100,00 %
15.06.2016 02:25 13,2 C 95 % 1000,3 hPa 0,2 l/m 6,3 km/h (2 Bft) S 188 0 min 0,000 mm 0,0 UV-I 0 W/m 12,4 C 13,2 C 8,0 km/h (2 Bft) 100,00 %
15.06.2016 02:26 13,2 C 95 % 1000,3 hPa 0,0 l/m 9,5 km/h (2 Bft) SW 219 0 min 0,000 mm 0,0 UV-I 0 W/m 12,4 C 11,4 C 14,5 km/h (3 Bft) 100,00 %
15.06.2016 02:27 13,2 C 95 % 1000,4 hPa 0,0 l/m 9,4 km/h (2 Bft) S-SW 212 0 min 0,000 mm 0,0 UV-I 0 W/m 12,4 C 11,4 C 14,5 km/h (3 Bft) 91,67 %
15.06.2016 02:28 13,2 C 96 % 1000,3 hPa 0,2 l/m 6,8 km/h (2 Bft) S-SW 195 0 min 0,000 mm 0,0 UV-I 0 W/m 12,6 C 13,0 C 9,7 km/h (2 Bft) 100,00 %
15.06.2016 02:29 13,2 C 96 % 1000,3 hPa 0,0 l/m 9,1 km/h (2 Bft) S-SW 198 0 min 0,000 mm 0,0 UV-I 0 W/m 12,6 C 11,6 C 12,9 km/h (3 Bft) 100,00 %
15.06.2016 02:30 13,2 C 96 % 1000,3 hPa 0,0 l/m 8,8 km/h (2 Bft) S-SW 204 0 min 0,000 mm 0,0 UV-I 0 W/m 12,6 C 11,8 C 11,3 km/h (2 Bft) 98,60 %
15.06.2016 02:31 13,2 C 96 % 1000,3 hPa 0,0 l/m 9,7 km/h (2 Bft) S-SW 202 0 min 0,000 mm 0,0 UV-I 0 W/m 12,6 C 11,3 C 12,9 km/h (3 Bft) 100,00 %
15.06.2016 02:32 13,2 C 96 % 1000,3 hPa 0,2 l/m 9,8 km/h (2 Bft) S-SW 196 0 min 0,000 mm 0,0 UV-I 0 W/m 12,6 C 11,2 C 12,9 km/h (3 Bft) 100,00 %
15.06.2016 02:33 13,2 C 96 % 1000,2 hPa 0,0 l/m 9,0 km/h (2 Bft) SW 221 0 min 0,000 mm 0,0 UV-I 0 W/m 12,6 C 11,6 C 11,3 km/h (2 Bft) 100,00 %
15.06.2016 02:34 13,2 C 96 % 1000,2 hPa 0,0 l/m 7,8 km/h (2 Bft) S 185 0 min 0,000 mm 0,0 UV-I 0 W/m 12,6 C 12,3 C 11,3 km/h (2 Bft) 100,00 %
15.06.2016 02:35 13,2 C 96 % 1000,2 hPa 0,2 l/m 8,0 km/h (2 Bft) SW 215 0 min 0,000 mm 0,0 UV-I 0 W/m 12,6 C 12,2 C 11,3 km/h (2 Bft) 100,00 %
15.06.2016 02:36 13,2 C 96 % 1000,2 hPa 0,0 l/m 6,8 km/h (2 Bft) S 184 0 min 0,000 mm 0,0 UV-I 0 W/m 12,6 C 13,0 C 12,9 km/h (3 Bft) 96,15 %
15.06.2016 02:37 13,2 C 96 % 1000,2 hPa 0,0 l/m 8,5 km/h (2 Bft) SW 230 0 min 0,000 mm 0,0 UV-I 0 W/m 12,6 C 11,9 C 12,9 km/h (3 Bft) 100,00 %
15.06.2016 02:38 13,2 C 96 % 1000,2 hPa 0,0 l/m 7,1 km/h (2 Bft) W-SW 245 0 min 0,000 mm 0,0 UV-I 0 W/m 12,6 C 12,8 C 11,3 km/h (2 Bft) 100,00 %
15.06.2016 02:39 13,2 C 96 % 1000,2 hPa 0,0 l/m 5,0 km/h (1 Bft) S-SW 207 0 min 0,000 mm 0,0 UV-I 0 W/m 12,6 C 13,2 C 9,7 km/h (2 Bft) 100,00 %
15.06.2016 02:40 13,2 C 96 % 1000,2 hPa 0,0 l/m 7,7 km/h (2 Bft) W-SW 244 0 min 0,000 mm 0,0 UV-I 0 W/m 12,6 C 12,4 C 12,9 km/h (3 Bft) 100,00 %
15.06.2016 02:41 13,2 C 96 % 1000,1 hPa 0,0 l/m 7,1 km/h (2 Bft) SW 236 0 min 0,000 mm 0,0 UV-I 0 W/m 12,6 C 12,8 C 11,3 km/h (2 Bft) 95,83 %
15.06.2016 02:42 13,2 C 96 % 1000,1 hPa 0,2 l/m 7,3 km/h (2 Bft) SW 227 0 min 0,000 mm 0,0 UV-I 0 W/m 12,6 C 12,6 C 8,0 km/h (2 Bft) 100,00 %
15.06.2016 02:43 13,2 C 96 % 1000,2 hPa 0,0 l/m 6,7 km/h (2 Bft) SW 235 0 min 0,000 mm 0,0 UV-I 0 W/m 12,6 C 13,0 C 11,3 km/h (2 Bft) 100,00 %
15.06.2016 02:44 13,2 C 96 % 1000,1 hPa 0,0 l/m 7,6 km/h (2 Bft) W-SW 248 0 min 0,000 mm 0,0 UV-I 0 W/m 12,6 C 12,5 C 11,3 km/h (2 Bft) 96,15 %
15.06.2016 02:45 13,2 C 96 % 1000,1 hPa 0,0 l/m 7,2 km/h (2 Bft) SW 235 0 min 0,000 mm 0,0 UV-I 0 W/m 12,6 C 12,7 C 9,7 km/h (2 Bft) 100,00 %
15.06.2016 02:46 13,2 C 96 % 1000,2 hPa 0,0 l/m 6,0 km/h (2 Bft) W-SW 249 0 min 0,000 mm 0,0 UV-I 0 W/m 12,6 C 13,2 C 8,0 km/h (2 Bft) 100,00 %
15.06.2016 02:47 13,2 C 96 % 1000,2 hPa 0,0 l/m 5,4 km/h (1 Bft) SW 219 0 min 0,000 mm 0,0 UV-I 0 W/m 12,6 C 13,2 C 8,0 km/h (2 Bft) 100,00 %
15.06.2016 02:48 13,2 C 96 % 1000,1 hPa 0,0 l/m 5,7 km/h (1 Bft) S 188 0 min 0,000 mm 0,0 UV-I 0 W/m 12,6 C 13,2 C 8,0 km/h (2 Bft) 100,00 %
15.06.2016 02:49 13,2 C 96 % 1000,2 hPa 0,0 l/m 6,0 km/h (2 Bft) SW 226 0 min 0,000 mm 0,0 UV-I 0 W/m 12,6 C 13,2 C 9,7 km/h (2 Bft) 100,00 %
15.06.2016 02:50 13,2 C 96 % 1000,1 hPa 0,0 l/m 5,3 km/h (1 Bft) SW 225 0 min 0,000 mm 0,0 UV-I 0 W/m 12,6 C 13,2 C 6,4 km/h (2 Bft) 100,00 %
15.06.2016 02:51 13,2 C 96 % 1000,2 hPa 0,0 l/m 4,4 km/h (1 Bft) S-SW 212 0 min 0,000 mm 0,0 UV-I 0 W/m 12,6 C 13,2 C 8,0 km/h (2 Bft) 100,00 %
15.06.2016 02:52 13,2 C 96 % 1000,2 hPa 0,0 l/m 4,3 km/h (1 Bft) SW 219 0 min 0,000 mm 0,0 UV-I 0 W/m 12,6 C 13,2 C 8,0 km/h (2 Bft) 100,00 %
15.06.2016 02:53 13,1 C 96 % 1000,2 hPa 0,0 l/m 6,1 km/h (2 Bft) SW 234 0 min 0,000 mm 0,0 UV-I 0 W/m 12,5 C 13,1 C 8,0 km/h (2 Bft) 96,15 %
15.06.2016 02:54 13,1 C 96 % 1000,2 hPa 0,0 l/m 7,0 km/h (2 Bft) SW 226 0 min 0,000 mm 0,0 UV-I 0 W/m 12,5 C 12,7 C 9,7 km/h (2 Bft) 96,30 %
15.06.2016 02:55 13,1 C 96 % 1000,2 hPa 0,0 l/m 4,8 km/h (1 Bft) SW 219 0 min 0,000 mm 0,0 UV-I 0 W/m 12,5 C 13,1 C 6,4 km/h (2 Bft) 100,00 %
15.06.2016 02:56 13,1 C 96 % 1000,2 hPa 0,0 l/m 3,5 km/h (1 Bft) W-SW 238 0 min 0,000 mm 0,0 UV-I 0 W/m 12,5 C 13,1 C 4,8 km/h (1 Bft) 96,30 %
15.06.2016 02:57 13,1 C 96 % 1000,2 hPa 0,0 l/m 4,5 km/h (1 Bft) W-SW 242 0 min 0,000 mm 0,0 UV-I 0 W/m 12,5 C 13,1 C 8,0 km/h (2 Bft) 100,00 %
15.06.2016 02:58 13,1 C 96 % 1000,2 hPa 0,0 l/m 4,4 km/h (1 Bft) S-SW 211 0 min 0,000 mm 0,0 UV-I 0 W/m 12,5 C 13,1 C 6,4 km/h (2 Bft) 95,83 %
15.06.2016 02:59 13,1 C 96 % 1000,2 hPa 0,0 l/m 4,1 km/h (1 Bft) S-SW 196 0 min 0,000 mm 0,0 UV-I 0 W/m 12,5 C 13,1 C 6,4 km/h (2 Bft) 96,15 %
15.06.2016 03:00 13,1 C 96 % 1000,2 hPa 0,0 l/m 5,1 km/h (1 Bft) S 190 0 min 0,000 mm 0,0 UV-I 0 W/m 12,5 C 13,1 C 6,4 km/h (2 Bft) 100,00 %
15.06.2016 03:01 13,1 C 96 % 1000,2 hPa 0,0 l/m 4,8 km/h (1 Bft) S-SW 196 0 min 0,000 mm 0,0 UV-I 0 W/m 12,5 C 13,1 C 6,4 km/h (2 Bft) 96,30 %
15.06.2016 03:02 13,1 C 96 % 1000,2 hPa 0,0 l/m 3,9 km/h (1 Bft) SW 217 0 min 0,000 mm 0,0 UV-I 0 W/m 12,5 C 13,1 C 6,4 km/h (2 Bft) 100,00 %
15.06.2016 03:03 13,1 C 96 % 1000,3 hPa 0,0 l/m 5,5 km/h (1 Bft) S-SW 205 0 min 0,000 mm 0,0 UV-I 0 W/m 12,5 C 13,1 C 8,0 km/h (2 Bft) 96,15 %
15.06.2016 03:04 13,1 C 96 % 1000,3 hPa 0,0 l/m 4,9 km/h (1 Bft) SW 231 0 min 0,000 mm 0,0 UV-I 0 W/m 12,5 C 13,1 C 8,0 km/h (2 Bft) 100,00 %
15.06.2016 03:05 13,1 C 96 % 1000,3 hPa 0,0 l/m 6,3 km/h (2 Bft) S 182 0 min 0,000 mm 0,0 UV-I 0 W/m 12,5 C 13,1 C 14,5 km/h (3 Bft) 95,83 %
15.06.2016 03:06 13,1 C 96 % 1000,3 hPa 0,0 l/m 8,2 km/h (2 Bft) W-SW 240 0 min 0,000 mm 0,0 UV-I 0 W/m 12,5 C 12,0 C 11,3 km/h (2 Bft) 100,00 %
15.06.2016 03:07 13,1 C 96 % 1000,3 hPa 0,0 l/m 7,1 km/h (2 Bft) SW 223 0 min 0,000 mm 0,0 UV-I 0 W/m 12,5 C 12,7 C 11,3 km/h (2 Bft) 95,83 %
15.06.2016 03:08 13,1 C 96 % 1000,4 hPa 0,0 l/m 6,7 km/h (2 Bft) SW 217 0 min 0,000 mm 0,0 UV-I 0 W/m 12,5 C 12,9 C 9,7 km/h (2 Bft) 96,15 %
15.06.2016 03:09 13,1 C 96 % 1000,3 hPa 0,2 l/m 7,8 km/h (2 Bft) SW 220 0 min 0,000 mm 0,0 UV-I 0 W/m 12,5 C 12,2 C 11,3 km/h (2 Bft) 100,00 %
15.06.2016 03:10 13,1 C 96 % 1000,4 hPa 0,0 l/m 5,5 km/h (1 Bft) SW 231 0 min 0,000 mm 0,0 UV-I 0 W/m 12,5 C 13,1 C 8,0 km/h (2 Bft) 95,65 %
15.06.2016 03:11 13,1 C 96 % 1000,4 hPa 0,0 l/m 8,4 km/h (2 Bft) W-SW 242 0 min 0,000 mm 0,0 UV-I 0 W/m 12,5 C 11,9 C 12,9 km/h (3 Bft) 100,00 %
15.06.2016 03:12 13,2 C 96 % 1000,3 hPa 0,0 l/m 6,6 km/h (2 Bft) W-SW 241 0 min 0,000 mm 0,0 UV-I 0 W/m 12,6 C 13,1 C 9,7 km/h (2 Bft) 95,65 %
15.06.2016 03:13 13,2 C 96 % 1000,4 hPa 0,0 l/m 7,6 km/h (2 Bft) SW 221 0 min 0,000 mm 0,0 UV-I 0 W/m 12,6 C 12,5 C 11,3 km/h (2 Bft) 96,30 %
15.06.2016 03:14 13,2 C 96 % 1000,4 hPa 0,0 l/m 9,1 km/h (2 Bft) S-SW 198 0 min 0,000 mm 0,0 UV-I 0 W/m 12,6 C 11,6 C 11,3 km/h (2 Bft) 95,65 %
15.06.2016 03:15 13,2 C 96 % 1000,4 hPa 0,0 l/m 7,6 km/h (2 Bft) SW 227 0 min 0,000 mm 0,0 UV-I 0 W/m 12,6 C 12,5 C 9,7 km/h (2 Bft) 100,00 %
15.06.2016 03:16 13,2 C 96 % 1000,4 hPa 0,0 l/m 8,9 km/h (2 Bft) W-SW 246 0 min 0,000 mm 0,0 UV-I 0 W/m 12,6 C 11,7 C 11,3 km/h (2 Bft) 95,65 %
15.06.2016 03:17 13,2 C 96 % 1000,4 hPa 0,0 l/m 8,1 km/h (2 Bft) SW 218 0 min 0,000 mm 0,0 UV-I 0 W/m 12,6 C 12,2 C 11,3 km/h (2 Bft) 96,30 %
15.06.2016 03:18 13,2 C 96 % 1000,4 hPa 0,0 l/m 6,4 km/h (2 Bft) W-SW 244 0 min 0,000 mm 0,0 UV-I 0 W/m 12,6 C 13,2 C 9,7 km/h (2 Bft) 93,33 %
15.06.2016 03:19 13,2 C 96 % 1000,3 hPa 0,0 l/m 6,7 km/h (2 Bft) W 264 0 min 0,000 mm 0,0 UV-I 0 W/m 12,6 C 13,0 C 9,7 km/h (2 Bft) 96,55 %
15.06.2016 03:20 13,2 C 96 % 1000,3 hPa 0,0 l/m 9,4 km/h (2 Bft) W-NW 283 0 min 0,000 mm 0,0 UV-I 0 W/m 12,6 C 11,4 C 12,9 km/h (3 Bft) 100,00 %
15.06.2016 03:21 13,2 C 96 % 1000,3 hPa 0,0 l/m 8,0 km/h (2 Bft) W 266 0 min 0,000 mm 0,0 UV-I 0 W/m 12,6 C 12,2 C 11,3 km/h (2 Bft) 95,83 %
15.06.2016 03:22 13,2 C 96 % 1000,3 hPa 0,0 l/m 5,7 km/h (1 Bft) SW 217 0 min 0,000 mm 0,0 UV-I 0 W/m 12,6 C 13,2 C 8,0 km/h (2 Bft) 100,00 %
15.06.2016 03:23 13,2 C 96 % 1000,3 hPa 0,0 l/m 7,8 km/h (2 Bft) W 267 0 min 0,000 mm 0,0 UV-I 0 W/m 12,6 C 12,3 C 11,3 km/h (2 Bft) 95,83 %
15.06.2016 03:24 13,2 C 96 % 1000,3 hPa 0,0 l/m 8,4 km/h (2 Bft) W 262 0 min 0,000 mm 0,0 UV-I 0 W/m 12,6 C 12,0 C 12,9 km/h (3 Bft) 100,00 %
15.06.2016 03:25 13,2 C 96 % 1000,2 hPa 0,0 l/m 6,7 km/h (2 Bft) W-SW 242 0 min 0,000 mm 0,0 UV-I 0 W/m 12,6 C 13,0 C 8,0 km/h (2 Bft) 92,86 %
15.06.2016 03:26 13,3 C 96 % 1000,3 hPa 0,0 l/m 8,9 km/h (2 Bft) W-SW 247 0 min 0,000 mm 0,0 UV-I 0 W/m 12,7 C 11,8 C 12,9 km/h (3 Bft) 96,67 %
15.06.2016 03:27 13,3 C 96 % 1000,3 hPa 0,0 l/m 8,3 km/h (2 Bft) W-SW 252 0 min 0,000 mm 0,0 UV-I 0 W/m 12,7 C 12,1 C 12,9 km/h (3 Bft) 100,00 %
15.06.2016 03:28 13,3 C 96 % 1000,3 hPa 0,0 l/m 11,2 km/h (2 Bft) W-SW 240 0 min 0,000 mm 0,0 UV-I 0 W/m 12,7 C 10,7 C 14,5 km/h (3 Bft) 96,67 %
15.06.2016 03:29 13,3 C 96 % 1000,3 hPa 0,0 l/m 12,5 km/h (3 Bft) W 263 0 min 0,000 mm 0,0 UV-I 0 W/m 12,7 C 10,1 C 16,1 km/h (3 Bft) 100,00 %
15.06.2016 03:30 13,3 C 96 % 1000,3 hPa 0,0 l/m 12,5 km/h (3 Bft) W 259 0 min 0,000 mm 0,0 UV-I 0 W/m 12,7 C 10,1 C 16,1 km/h (3 Bft) 96,67 %
15.06.2016 03:31 13,3 C 96 % 1000,3 hPa 0,0 l/m 10,1 km/h (2 Bft) SW 228 0 min 0,000 mm 0,0 UV-I 0 W/m 12,7 C 11,2 C 12,9 km/h (3 Bft) 100,00 %
15.06.2016 03:32 13,3 C 96 % 1000,3 hPa 0,0 l/m 10,2 km/h (2 Bft) SW 233 0 min 0,000 mm 0,0 UV-I 0 W/m 12,7 C 11,1 C 12,9 km/h (3 Bft) 100,00 %
15.06.2016 03:33 13,3 C 96 % 1000,3 hPa 0,0 l/m 13,3 km/h (3 Bft) W 259 0 min 0,000 mm 0,0 UV-I 0 W/m 12,7 C 9,8 C 17,7 km/h (3 Bft) 100,00 %
15.06.2016 03:34 13,3 C 96 % 1000,3 hPa 0,0 l/m 15,1 km/h (3 Bft) W-SW 241 0 min 0,000 mm 0,0 UV-I 0 W/m 12,7 C 9,1 C 19,3 km/h (3 Bft) 100,00 %
15.06.2016 03:35 13,3 C 96 % 1000,3 hPa 0,0 l/m 10,1 km/h (2 Bft) W-SW 246 0 min 0,000 mm 0,0 UV-I 0 W/m 12,7 C 11,2 C 12,9 km/h (3 Bft) 100,00 %
15.06.2016 03:36 13,3 C 96 % 1000,3 hPa 0,0 l/m 11,5 km/h (2 Bft) W-SW 251 0 min 0,000 mm 0,0 UV-I 0 W/m 12,7 C 10,5 C 14,5 km/h (3 Bft) 95,83 %
15.06.2016 03:37 13,3 C 96 % 1000,3 hPa 0,0 l/m 9,2 km/h (2 Bft) SW 225 0 min 0,000 mm 0,0 UV-I 0 W/m 12,7 C 11,7 C 12,9 km/h (3 Bft) 95,65 %
15.06.2016 03:38 13,3 C 96 % 1000,3 hPa 0,0 l/m 8,7 km/h (2 Bft) SW 229 0 min 0,000 mm 0,0 UV-I 0 W/m 12,7 C 11,9 C 11,3 km/h (2 Bft) 100,00 %
15.06.2016 03:39 13,3 C 96 % 1000,3 hPa 0,0 l/m 8,0 km/h (2 Bft) W 259 0 min 0,000 mm 0,0 UV-I 0 W/m 12,7 C 12,3 C 12,9 km/h (3 Bft) 100,00 %
15.06.2016 03:40 13,3 C 96 % 1000,2 hPa 0,0 l/m 8,3 km/h (2 Bft) SW 228 0 min 0,000 mm 0,0 UV-I 0 W/m 12,7 C 12,1 C 11,3 km/h (2 Bft) 100,00 %
15.06.2016 03:41 13,3 C 96 % 1000,3 hPa 0,0 l/m 10,7 km/h (2 Bft) W-SW 250 0 min 0,000 mm 0,0 UV-I 0 W/m 12,7 C 10,9 C 14,5 km/h (3 Bft) 100,00 %
15.06.2016 03:42 13,3 C 96 % 1000,3 hPa 0,0 l/m 12,8 km/h (3 Bft) W-SW 257 0 min 0,000 mm 0,0 UV-I 0 W/m 12,7 C 10,0 C 16,1 km/h (3 Bft) 100,00 %
15.06.2016 03:43 13,3 C 96 % 1000,2 hPa 0,0 l/m 10,5 km/h (2 Bft) W-SW 253 0 min 0,000 mm 0,0 UV-I 0 W/m 12,7 C 11,0 C 14,5 km/h (3 Bft) 100,00 %
15.06.2016 03:44 13,4 C 96 % 1000,2 hPa 0,0 l/m 7,2 km/h (2 Bft) SW 231 0 min 0,000 mm 0,0 UV-I 0 W/m 12,8 C 12,9 C 12,9 km/h (3 Bft) 100,00 %
15.06.2016 03:45 13,3 C 96 % 1000,2 hPa 0,0 l/m 12,0 km/h (2 Bft) W 264 0 min 0,000 mm 0,0 UV-I 0 W/m 12,7 C 10,3 C 16,1 km/h (3 Bft) 100,00 %
15.06.2016 03:46 13,4 C 96 % 1000,2 hPa 0,0 l/m 9,4 km/h (2 Bft) SW 215 0 min 0,000 mm 0,0 UV-I 0 W/m 12,8 C 11,7 C 12,9 km/h (3 Bft) 100,00 %
15.06.2016 03:47 13,4 C 96 % 1000,2 hPa 0,0 l/m 10,7 km/h (2 Bft) W 267 0 min 0,000 mm 0,0 UV-I 0 W/m 12,8 C 11,0 C 17,7 km/h (3 Bft) 100,00 %
15.06.2016 03:48 13,4 C 96 % 1000,2 hPa 0,0 l/m 11,2 km/h (2 Bft) W-SW 252 0 min 0,000 mm 0,0 UV-I 0 W/m 12,8 C 10,8 C 16,1 km/h (3 Bft) 100,00 %
15.06.2016 03:49 13,4 C 96 % 1000,2 hPa 0,0 l/m 9,7 km/h (2 Bft) W-SW 237 0 min 0,000 mm 0,0 UV-I 0 W/m 12,8 C 11,5 C 11,3 km/h (2 Bft) 100,00 %
15.06.2016 03:50 13,4 C 96 % 1000,2 hPa 0,0 l/m 10,5 km/h (2 Bft) W-SW 238 0 min 0,000 mm 0,0 UV-I 0 W/m 12,8 C 11,1 C 14,5 km/h (3 Bft) 100,00 %
15.06.2016 03:51 13,4 C 95 % 1000,2 hPa 0,0 l/m 8,9 km/h (2 Bft) SW 223 0 min 0,000 mm 0,0 UV-I 0 W/m 12,6 C 11,9 C 12,9 km/h (3 Bft) 100,00 %
15.06.2016 03:52 13,4 C 95 % 1000,2 hPa 0,0 l/m 9,6 km/h (2 Bft) W-SW 247 0 min 0,000 mm 0,0 UV-I 0 W/m 12,6 C 11,6 C 12,9 km/h (3 Bft) 100,00 %
15.06.2016 03:53 13,4 C 95 % 1000,2 hPa 0,0 l/m 9,5 km/h (2 Bft) W-SW 244 0 min 0,000 mm 0,0 UV-I 0 W/m 12,6 C 11,6 C 11,3 km/h (2 Bft) 100,00 %
15.06.2016 03:54 13,4 C 95 % 1000,2 hPa 0,0 l/m 9,4 km/h (2 Bft) SW 232 0 min 0,000 mm 0,0 UV-I 0 W/m 12,6 C 11,7 C 12,9 km/h (3 Bft) 100,00 %
15.06.2016 03:55 13,4 C 95 % 1000,2 hPa 0,0 l/m 9,1 km/h (2 Bft) W-SW 257 0 min 0,000 mm 0,0 UV-I 0 W/m 12,6 C 11,8 C 12,9 km/h (3 Bft) 100,00 %
15.06.2016 03:56 13,4 C 96 % 1000,2 hPa 0,0 l/m 9,4 km/h (2 Bft) S-SW 209 0 min 0,000 mm 0,0 UV-I 0 W/m 12,8 C 11,7 C 16,1 km/h (3 Bft) 100,00 %
15.06.2016 03:57 13,4 C 96 % 1000,2 hPa 0,0 l/m 10,5 km/h (2 Bft) W-SW 238 0 min 0,000 mm 0,0 UV-I 0 W/m 12,8 C 11,1 C 16,1 km/h (3 Bft) 100,00 %
15.06.2016 03:58 13,4 C 95 % 1000,3 hPa 0,0 l/m 9,2 km/h (2 Bft) SW 232 0 min 0,000 mm 0,0 UV-I 0 W/m 12,6 C 11,8 C 11,3 km/h (2 Bft) 100,00 %
15.06.2016 03:59 13,4 C 96 % 1000,2 hPa 0,0 l/m 8,5 km/h (2 Bft) S-SW 213 0 min 0,000 mm 0,0 UV-I 0 W/m 12,8 C 12,1 C 12,9 km/h (3 Bft) 94,12 %
15.06.2016 04:00 13,4 C 96 % 1000,2 hPa 0,0 l/m 6,9 km/h (2 Bft) SW 231 0 min 0,000 mm 0,0 UV-I 0 W/m 12,8 C 13,1 C 9,7 km/h (2 Bft) 97,56 %
15.06.2016 04:01 13,4 C 96 % 1000,2 hPa 0,0 l/m 11,1 km/h (2 Bft) SW 225 0 min 0,000 mm 0,0 UV-I 0 W/m 12,8 C 10,8 C 11,3 km/h (2 Bft) 100,00 %
15.06.2016 04:02 13,4 C 96 % 1000,2 hPa 0,0 l/m 10,0 km/h (2 Bft) SW 215 0 min 0,000 mm 0,0 UV-I 0 W/m 12,8 C 11,4 C 11,3 km/h (2 Bft) 100,00 %
15.06.2016 04:03 13,4 C 96 % 1000,2 hPa 0,0 l/m 9,6 km/h (2 Bft) SW 236 0 min 0,000 mm 0,0 UV-I 0 W/m 12,8 C 11,6 C 12,9 km/h (3 Bft) 100,00 %
15.06.2016 04:04 13,4 C 96 % 1000,2 hPa 0,0 l/m 10,6 km/h (2 Bft) SW 236 0 min 0,000 mm 0,0 UV-I 0 W/m 12,8 C 11,1 C 19,3 km/h (3 Bft) 95,65 %
15.06.2016 04:05 13,4 C 96 % 1000,2 hPa 0,0 l/m 13,8 km/h (3 Bft) W-SW 237 0 min 0,000 mm 0,0 UV-I 0 W/m 12,8 C 9,7 C 19,3 km/h (3 Bft) 100,00 %
15.06.2016 04:06 13,4 C 96 % 1000,2 hPa 0,0 l/m 12,2 km/h (2 Bft) W-SW 237 0 min 0,000 mm 0,0 UV-I 0 W/m 12,8 C 10,3 C 16,1 km/h (3 Bft) 100,00 %
15.06.2016 04:07 13,4 C 96 % 1000,2 hPa 0,0 l/m 9,4 km/h (2 Bft) W-SW 258 0 min 0,000 mm 0,0 UV-I 0 W/m 12,8 C 11,7 C 14,5 km/h (3 Bft) 100,00 %
15.06.2016 04:08 13,4 C 95 % 1000,2 hPa 0,0 l/m 8,4 km/h (2 Bft) W-SW 247 0 min 0,000 mm 0,0 UV-I 0 W/m 12,6 C 12,2 C 12,9 km/h (3 Bft) 100,00 %
15.06.2016 04:09 13,4 C 96 % 1000,2 hPa 0,0 l/m 9,4 km/h (2 Bft) SW 219 0 min 0,000 mm 0,0 UV-I 0 W/m 12,8 C 11,7 C 12,9 km/h (3 Bft) 100,00 %
15.06.2016 04:10 13,4 C 96 % 1000,2 hPa 0,0 l/m 10,5 km/h (2 Bft) W-SW 238 0 min 0,000 mm 0,0 UV-I 0 W/m 12,8 C 11,1 C 16,1 km/h (3 Bft) 100,00 %
15.06.2016 04:11 13,4 C 96 % 1000,2 hPa 0,0 l/m 8,0 km/h (2 Bft) SW 219 0 min 0,000 mm 0,0 UV-I 0 W/m 12,8 C 12,4 C 12,9 km/h (3 Bft) 100,00 %
15.06.2016 04:12 13,4 C 96 % 1000,2 hPa 0,0 l/m 11,5 km/h (2 Bft) W 280 0 min 0,000 mm 0,0 UV-I 0 W/m 12,8 C 10,6 C 16,1 km/h (3 Bft) 100,00 %
15.06.2016 04:13 13,4 C 96 % 1000,2 hPa 0,0 l/m 11,1 km/h (2 Bft) SW 228 0 min 0,000 mm 0,0 UV-I 0 W/m 12,8 C 10,8 C 14,5 km/h (3 Bft) 100,00 %
15.06.2016 04:14 13,4 C 96 % 1000,2 hPa 0,0 l/m 12,2 km/h (2 Bft) S-SW 207 0 min 0,000 mm 0,0 UV-I 0 W/m 12,8 C 10,3 C 17,7 km/h (3 Bft) 95,83 %
15.06.2016 04:15 13,4 C 96 % 1000,2 hPa 0,0 l/m 11,1 km/h (2 Bft) W-SW 240 0 min 0,000 mm 0,0 UV-I 0 W/m 12,8 C 10,8 C 14,5 km/h (3 Bft) 100,00 %
15.06.2016 04:16 13,4 C 96 % 1000,2 hPa 0,0 l/m 12,9 km/h (3 Bft) W-SW 250 0 min 0,000 mm 0,0 UV-I 0 W/m 12,8 C 10,1 C 20,9 km/h (4 Bft) 100,00 %
15.06.2016 04:17 13,4 C 96 % 1000,2 hPa 0,0 l/m 13,3 km/h (3 Bft) W-SW 240 0 min 0,000 mm 0,0 UV-I 0 W/m 12,8 C 9,9 C 19,3 km/h (3 Bft) 100,00 %
15.06.2016 04:18 13,4 C 96 % 1000,2 hPa 0,0 l/m 8,9 km/h (2 Bft) W-SW 244 0 min 0,000 mm 0,0 UV-I 0 W/m 12,8 C 11,9 C 12,9 km/h (3 Bft) 100,00 %
15.06.2016 04:19 13,4 C 96 % 1000,2 hPa 0,0 l/m 11,7 km/h (2 Bft) SW 228 0 min 0,000 mm 0,0 UV-I 0 W/m 12,8 C 10,6 C 16,1 km/h (3 Bft) 100,00 %
15.06.2016 04:20 13,4 C 96 % 1000,2 hPa 0,0 l/m 6,7 km/h (2 Bft) W-SW 237 0 min 0,000 mm 0,0 UV-I 0 W/m 12,8 C 13,2 C 11,3 km/h (2 Bft) 100,00 %
15.06.2016 04:21 13,4 C 96 % 1000,2 hPa 0,0 l/m 8,2 km/h (2 Bft) S-SW 211 0 min 0,000 mm 0,0 UV-I 0 W/m 12,8 C 12,3 C 12,9 km/h (3 Bft) 96,15 %
15.06.2016 04:22 13,4 C 95 % 1000,2 hPa 0,0 l/m 10,8 km/h (2 Bft) W-SW 253 0 min 0,000 mm 0,0 UV-I 0 W/m 12,6 C 11,0 C 12,9 km/h (3 Bft) 96,30 %
15.06.2016 04:23 13,4 C 95 % 1000,2 hPa 0,0 l/m 10,9 km/h (2 Bft) W-SW 251 0 min 0,000 mm 0,0 UV-I 0 W/m 12,6 C 10,9 C 19,3 km/h (3 Bft) 100,00 %
15.06.2016 04:24 13,4 C 95 % 1000,2 hPa 0,0 l/m 10,2 km/h (2 Bft) W-SW 242 0 min 0,000 mm 0,0 UV-I 0 W/m 12,6 C 11,3 C 14,5 km/h (3 Bft) 100,00 %
15.06.2016 04:25 13,4 C 95 % 1000,2 hPa 0,0 l/m 12,8 km/h (3 Bft) W-SW 252 0 min 0,000 mm 0,0 UV-I 0 W/m 12,6 C 10,1 C 17,7 km/h (3 Bft) 100,00 %
15.06.2016 04:26 13,4 C 95 % 1000,2 hPa 0,0 l/m 12,0 km/h (2 Bft) SW 216 0 min 0,000 mm 0,0 UV-I 0 W/m 12,6 C 10,4 C 16,1 km/h (3 Bft) 100,00 %
15.06.2016 04:27 13,4 C 95 % 1000,3 hPa 0,0 l/m 12,1 km/h (2 Bft) SW 217 0 min 0,000 mm 0,0 UV-I 0 W/m 12,6 C 10,4 C 17,7 km/h (3 Bft) 100,00 %
15.06.2016 04:28 13,4 C 95 % 1000,3 hPa 0,0 l/m 11,8 km/h (2 Bft) SW 229 0 min 0,000 mm 0,0 UV-I 0 W/m 12,6 C 10,5 C 16,1 km/h (3 Bft) 100,00 %
15.06.2016 04:29 13,4 C 95 % 1000,2 hPa 0,0 l/m 13,4 km/h (3 Bft) SW 227 0 min 0,000 mm 0,0 UV-I 0 W/m 12,6 C 9,9 C 19,3 km/h (3 Bft) 100,00 %
15.06.2016 04:30 13,4 C 95 % 1000,3 hPa 0,0 l/m 13,3 km/h (3 Bft) SW 218 0 min 0,000 mm 0,0 UV-I 0 W/m 12,6 C 9,9 C 19,3 km/h (3 Bft) 100,00 %
15.06.2016 04:31 13,4 C 95 % 1000,3 hPa 0,0 l/m 10,8 km/h (2 Bft) S-SW 205 0 min 0,000 mm 0,0 UV-I 0 W/m 12,6 C 11,0 C 16,1 km/h (3 Bft) 100,00 %
15.06.2016 04:32 13,4 C 95 % 1000,2 hPa 0,0 l/m 7,3 km/h (2 Bft) SW 229 0 min 0,000 mm 0,0 UV-I 0 W/m 12,6 C 12,8 C 11,3 km/h (2 Bft) 96,55 %
15.06.2016 04:33 13,4 C 95 % 1000,3 hPa 0,0 l/m 9,4 km/h (2 Bft) SW 227 0 min 0,000 mm 0,0 UV-I 0 W/m 12,6 C 11,7 C 16,1 km/h (3 Bft) 95,83 %
15.06.2016 04:34 13,4 C 95 % 1000,3 hPa 0,0 l/m 10,5 km/h (2 Bft) S 188 0 min 0,000 mm 0,0 UV-I 0 W/m 12,6 C 11,1 C 16,1 km/h (3 Bft) 95,65 %
15.06.2016 04:35 13,4 C 95 % 1000,3 hPa 0,0 l/m 15,0 km/h (3 Bft) W-SW 252 0 min 0,000 mm 0,0 UV-I 0 W/m 12,6 C 9,3 C 20,9 km/h (4 Bft) 100,00 %
15.06.2016 04:36 13,4 C 95 % 1000,3 hPa 0,0 l/m 16,3 km/h (3 Bft) W-SW 240 0 min 0,000 mm 0,0 UV-I 0 W/m 12,6 C 8,8 C 24,1 km/h (4 Bft) 100,00 %
15.06.2016 04:37 13,4 C 95 % 1000,3 hPa 0,0 l/m 10,1 km/h (2 Bft) SW 217 0 min 0,000 mm 0,0 UV-I 0 W/m 12,6 C 11,3 C 14,5 km/h (3 Bft) 100,00 %
15.06.2016 04:38 13,4 C 95 % 1000,3 hPa 0,0 l/m 10,1 km/h (2 Bft) SW 219 0 min 0,000 mm 0,0 UV-I 0 W/m 12,6 C 11,3 C 14,5 km/h (3 Bft) 100,00 %
15.06.2016 04:39 13,4 C 95 % 1000,3 hPa 0,0 l/m 8,9 km/h (2 Bft) S-SW 204 0 min 0,000 mm 0,0 UV-I 0 W/m 12,6 C 11,9 C 14,5 km/h (3 Bft) 100,00 %
15.06.2016 04:40 13,4 C 95 % 1000,2 hPa 0,0 l/m 13,0 km/h (3 Bft) W-SW 246 0 min 0,000 mm 0,0 UV-I 0 W/m 12,6 C 10,0 C 17,7 km/h (3 Bft) 100,00 %
15.06.2016 04:41 13,4 C 95 % 1000,3 hPa 0,0 l/m 12,2 km/h (2 Bft) W-SW 240 0 min 0,000 mm 0,0 UV-I 0 W/m 12,6 C 10,3 C 16,1 km/h (3 Bft) 100,00 %
15.06.2016 04:42 13,4 C 95 % 1000,3 hPa 0,0 l/m 16,7 km/h (3 Bft) SW 230 0 min 0,000 mm 0,0 UV-I 0 W/m 12,6 C 8,7 C 20,9 km/h (4 Bft) 93,33 %
15.06.2016 04:43 13,4 C 95 % 1000,3 hPa 0,0 l/m 12,2 km/h (2 Bft) SW 232 0 min 0,000 mm 0,0 UV-I 0 W/m 12,6 C 10,3 C 14,5 km/h (3 Bft) 96,15 %
15.06.2016 04:44 13,4 C 95 % 1000,2 hPa 0,0 l/m 12,9 km/h (3 Bft) S-SW 198 0 min 0,000 mm 0,0 UV-I 0 W/m 12,6 C 10,1 C 17,7 km/h (3 Bft) 100,00 %
15.06.2016 04:45 13,4 C 95 % 1000,2 hPa 0,0 l/m 14,6 km/h (3 Bft) SW 215 0 min 0,000 mm 0,0 UV-I 0 W/m 12,6 C 9,4 C 22,5 km/h (4 Bft) 100,00 %
15.06.2016 04:46 13,4 C 95 % 1000,3 hPa 0,0 l/m 14,9 km/h (3 Bft) S-SW 211 0 min 0,000 mm 0,0 UV-I 0 W/m 12,6 C 9,3 C 19,3 km/h (3 Bft) 100,00 %
15.06.2016 04:47 13,3 C 95 % 1000,3 hPa 0,0 l/m 18,4 km/h (3 Bft) W-SW 246 0 min 0,000 mm 0,0 UV-I 0 W/m 12,5 C 8,0 C 25,7 km/h (4 Bft) 100,00 %
15.06.2016 04:48 13,3 C 95 % 1000,3 hPa 0,0 l/m 19,5 km/h (3 Bft) SW 236 0 min 0,000 mm 0,0 UV-I 0 W/m 12,5 C 7,7 C 25,7 km/h (4 Bft) 100,00 %
15.06.2016 04:49 13,3 C 95 % 1000,3 hPa 0,0 l/m 14,6 km/h (3 Bft) W-SW 257 0 min 0,000 mm 0,0 UV-I 0 W/m 12,5 C 9,3 C 20,9 km/h (4 Bft) 100,00 %
15.06.2016 04:50 13,3 C 95 % 1000,4 hPa 0,0 l/m 14,8 km/h (3 Bft) S-SW 206 0 min 0,000 mm 0,0 UV-I 0 W/m 12,5 C 9,2 C 20,9 km/h (4 Bft) 100,00 %
15.06.2016 04:51 13,3 C 94 % 1000,3 hPa 0,0 l/m 20,5 km/h (4 Bft) SW 227 0 min 0,000 mm 0,0 UV-I 0 W/m 12,4 C 7,4 C 29,0 km/h (5 Bft) 100,00 %
15.06.2016 04:52 13,3 C 94 % 1000,3 hPa 0,0 l/m 19,6 km/h (3 Bft) W-SW 254 0 min 0,000 mm 0,0 UV-I 0 W/m 12,4 C 7,7 C 30,6 km/h (5 Bft) 100,00 %
15.06.2016 04:53 13,3 C 94 % 1000,3 hPa 0,0 l/m 17,5 km/h (3 Bft) W-SW 250 0 min 0,000 mm 0,0 UV-I 0 W/m 12,4 C 8,3 C 20,9 km/h (4 Bft) 100,00 %
15.06.2016 04:54 13,3 C 94 % 1000,3 hPa 0,0 l/m 19,1 km/h (3 Bft) SW 221 0 min 0,000 mm 0,0 UV-I 0 W/m 12,4 C 7,8 C 29,0 km/h (5 Bft) 100,00 %
15.06.2016 04:55 13,3 C 94 % 1000,4 hPa 0,0 l/m 17,7 km/h (3 Bft) S-SW 201 0 min 0,000 mm 0,0 UV-I 0 W/m 12,4 C 8,2 C 24,1 km/h (4 Bft) 100,00 %
15.06.2016 04:56 13,3 C 94 % 1000,3 hPa 0,0 l/m 17,4 km/h (3 Bft) SW 229 0 min 0,000 mm 0,0 UV-I 0 W/m 12,4 C 8,3 C 20,9 km/h (4 Bft) 96,30 %
15.06.2016 04:57 13,3 C 94 % 1000,3 hPa 0,0 l/m 11,7 km/h (2 Bft) W-SW 251 0 min 0,000 mm 0,0 UV-I 0 W/m 12,4 C 10,4 C 16,1 km/h (3 Bft) 100,00 %
15.06.2016 04:58 13,2 C 94 % 1000,3 hPa 0,0 l/m 12,5 km/h (3 Bft) SW 235 0 min 0,000 mm 0,0 UV-I 0 W/m 12,3 C 10,0 C 19,3 km/h (3 Bft) 95,12 %
15.06.2016 04:59 13,2 C 94 % 1000,3 hPa 0,0 l/m 17,4 km/h (3 Bft) W-SW 240 0 min 0,000 mm 0,0 UV-I 0 W/m 12,3 C 8,2 C 25,7 km/h (4 Bft) 100,00 %
15.06.2016 05:00 13,2 C 94 % 1000,4 hPa 0,0 l/m 17,1 km/h (3 Bft) W 273 0 min 0,000 mm 0,0 UV-I 0 W/m 12,3 C 8,3 C 25,7 km/h (4 Bft) 96,88 %
15.06.2016 05:02 13,2 C 94 % 1000,3 hPa 0,0 l/m 14,3 km/h (3 Bft) W-SW 245 0 min 0,000 mm 0,0 UV-I 0 W/m 12,3 C 9,3 C 20,9 km/h (4 Bft) 94,74 %
15.06.2016 05:03 13,2 C 94 % 1000,4 hPa 0,0 l/m 14,3 km/h (3 Bft) SW 234 0 min 0,000 mm 0,0 UV-I 0 W/m 12,3 C 9,3 C 17,7 km/h (3 Bft) 96,30 %
15.06.2016 05:04 13,2 C 94 % 1000,4 hPa 0,0 l/m 13,3 km/h (3 Bft) SW 226 0 min 0,000 mm 0,0 UV-I 0 W/m 12,3 C 9,7 C 17,7 km/h (3 Bft) 100,00 %
15.06.2016 05:05 13,2 C 94 % 1000,4 hPa 0,0 l/m 16,8 km/h (3 Bft) W-SW 250 0 min 0,000 mm 0,0 UV-I 0 W/m 12,3 C 8,4 C 22,5 km/h (4 Bft) 95,83 %
15.06.2016 05:06 13,2 C 94 % 1000,4 hPa 0,0 l/m 9,6 km/h (2 Bft) SW 223 0 min 0,000 mm 0,0 UV-I 0 W/m 12,3 C 11,3 C 14,5 km/h (3 Bft) 100,00 %
15.06.2016 05:07 13,2 C 95 % 1000,4 hPa 0,0 l/m 10,9 km/h (2 Bft) S-SW 207 0 min 0,000 mm 0,0 UV-I 0 W/m 12,4 C 10,7 C 16,1 km/h (3 Bft) 91,67 %
15.06.2016 05:08 13,1 C 95 % 1000,4 hPa 0,0 l/m 13,0 km/h (3 Bft) SW 230 0 min 0,000 mm 0,0 UV-I 0 W/m 12,3 C 9,7 C 19,3 km/h (3 Bft) 97,14 %
15.06.2016 05:09 13,1 C 95 % 1000,4 hPa 0,0 l/m 13,7 km/h (3 Bft) SW 229 0 min 0,000 mm 0,0 UV-I 0 W/m 12,3 C 9,4 C 20,9 km/h (4 Bft) 100,00 %
15.06.2016 05:10 13,1 C 95 % 1000,4 hPa 0,0 l/m 17,4 km/h (3 Bft) SW 215 0 min 0,000 mm 0,0 UV-I 0 W/m 12,3 C 8,1 C 22,5 km/h (4 Bft) 100,00 %
15.06.2016 05:11 13,1 C 94 % 1000,5 hPa 0,0 l/m 15,8 km/h (3 Bft) SW 224 0 min 0,000 mm 0,0 UV-I 0 W/m 12,2 C 8,6 C 22,5 km/h (4 Bft) 96,30 %
15.06.2016 05:12 13,1 C 94 % 1000,5 hPa 0,0 l/m 17,5 km/h (3 Bft) W-SW 246 0 min 0,000 mm 0,0 UV-I 0 W/m 12,2 C 8,0 C 24,1 km/h (4 Bft) 92,31 %
15.06.2016 05:13 13,1 C 94 % 1000,5 hPa 0,0 l/m 17,9 km/h (3 Bft) SW 231 0 min 0,000 mm 0,0 UV-I 0 W/m 12,2 C 7,9 C 25,7 km/h (4 Bft) 100,00 %
15.06.2016 05:14 13,1 C 95 % 1000,5 hPa 0,0 l/m 16,4 km/h (3 Bft) W-SW 246 0 min 0,000 mm 0,0 UV-I 0 W/m 12,3 C 8,4 C 24,1 km/h (4 Bft) 92,86 %
15.06.2016 05:15 13,0 C 94 % 1000,5 hPa 0,0 l/m 16,2 km/h (3 Bft) W 267 0 min 0,000 mm 0,0 UV-I 0 W/m 12,1 C 8,3 C 27,4 km/h (4 Bft) 100,00 %
15.06.2016 05:16 13,0 C 94 % 1000,5 hPa 0,0 l/m 19,0 km/h (3 Bft) SW 234 0 min 0,000 mm 0,0 UV-I 0 W/m 12,1 C 7,5 C 27,4 km/h (4 Bft) 96,55 %
15.06.2016 05:17 12,9 C 94 % 1000,5 hPa 0,0 l/m 14,0 km/h (3 Bft) S 191 0 min 0,000 mm 0,0 UV-I 0 W/m 12,0 C 9,0 C 19,3 km/h (3 Bft) 95,83 %
15.06.2016 05:18 12,9 C 94 % 1000,5 hPa 0,0 l/m 18,3 km/h (3 Bft) W-SW 244 0 min 0,000 mm 0,0 UV-I 2 W/m 12,0 C 7,5 C 25,7 km/h (4 Bft) 100,00 %
15.06.2016 05:19 12,9 C 94 % 1000,5 hPa 0,0 l/m 17,6 km/h (3 Bft) SW 225 0 min 0,000 mm 0,0 UV-I 2 W/m 12,0 C 7,8 C 25,7 km/h (4 Bft) 96,15 %
15.06.2016 05:20 12,9 C 94 % 1000,5 hPa 0,2 l/m 17,9 km/h (3 Bft) SW 219 0 min 0,000 mm 0,0 UV-I 0 W/m 12,0 C 7,7 C 24,1 km/h (4 Bft) 100,00 %
15.06.2016 05:21 12,9 C 94 % 1000,5 hPa 0,0 l/m 14,7 km/h (3 Bft) SW 236 0 min 0,000 mm 0,0 UV-I 0 W/m 12,0 C 8,8 C 20,9 km/h (4 Bft) 96,15 %
15.06.2016 05:22 12,8 C 94 % 1000,5 hPa 0,0 l/m 12,4 km/h (3 Bft) SW 217 0 min 0,000 mm 0,0 UV-I 1 W/m 11,9 C 9,6 C 16,1 km/h (3 Bft) 100,00 %
15.06.2016 05:23 12,8 C 94 % 1000,5 hPa 0,0 l/m 16,3 km/h (3 Bft) S-SW 203 0 min 0,000 mm 0,0 UV-I 5 W/m 11,9 C 8,1 C 20,9 km/h (4 Bft) 93,33 %
15.06.2016 05:24 12,8 C 94 % 1000,6 hPa 0,0 l/m 21,0 km/h (4 Bft) SW 222 0 min 0,000 mm 0,0 UV-I 5 W/m 11,9 C 6,6 C 33,8 km/h (5 Bft) 100,00 %
15.06.2016 05:25 12,8 C 94 % 1000,5 hPa 0,0 l/m 18,2 km/h (3 Bft) SW 217 0 min 0,000 mm 0,0 UV-I 5 W/m 11,9 C 7,4 C 30,6 km/h (5 Bft) 95,65 %
15.06.2016 05:26 12,7 C 94 % 1000,5 hPa 0,0 l/m 16,0 km/h (3 Bft) W-SW 240 0 min 0,000 mm 0,0 UV-I 5 W/m 11,8 C 8,0 C 22,5 km/h (4 Bft) 96,30 %
15.06.2016 05:27 12,7 C 94 % 1000,5 hPa 0,0 l/m 19,2 km/h (3 Bft) W-SW 240 0 min 0,000 mm 0,0 UV-I 5 W/m 11,8 C 7,0 C 30,6 km/h (5 Bft) 100,00 %
15.06.2016 05:28 12,7 C 94 % 1000,4 hPa 0,2 l/m 22,7 km/h (4 Bft) W-SW 251 0 min 0,000 mm 0,0 UV-I 7 W/m 11,8 C 6,0 C 30,6 km/h (5 Bft) 91,67 %
15.06.2016 05:29 12,7 C 94 % 1000,5 hPa 0,0 l/m 17,3 km/h (3 Bft) SW 222 0 min 0,000 mm 0,0 UV-I 7 W/m 11,8 C 7,6 C 22,5 km/h (4 Bft) 100,00 %
15.06.2016 05:30 12,7 C 94 % 1000,4 hPa 0,0 l/m 17,2 km/h (3 Bft) SW 227 0 min 0,000 mm 0,0 UV-I 7 W/m 11,8 C 7,6 C 24,1 km/h (4 Bft) 100,00 %
15.06.2016 05:31 12,7 C 94 % 1000,5 hPa 0,0 l/m 24,1 km/h (4 Bft) SW 225 0 min 0,000 mm 0,0 UV-I 7 W/m 11,8 C 5,7 C 30,6 km/h (5 Bft) 100,00 %
15.06.2016 05:32 12,6 C 94 % 1000,4 hPa 0,0 l/m 15,2 km/h (3 Bft) W-SW 240 0 min 0,000 mm 0,0 UV-I 9 W/m 11,7 C 8,2 C 22,5 km/h (4 Bft) 100,00 %
15.06.2016 05:33 12,6 C 94 % 1000,4 hPa 0,0 l/m 16,9 km/h (3 Bft) W-SW 246 0 min 0,000 mm 0,0 UV-I 9 W/m 11,7 C 7,6 C 20,9 km/h (4 Bft) 100,00 %
15.06.2016 05:34 12,6 C 94 % 1000,4 hPa 0,0 l/m 17,3 km/h (3 Bft) W-SW 250 0 min 0,000 mm 0,0 UV-I 11 W/m 11,7 C 7,5 C 22,5 km/h (4 Bft) 96,30 %
15.06.2016 05:35 12,6 C 94 % 1000,4 hPa 0,0 l/m 14,0 km/h (3 Bft) W-SW 244 0 min 0,000 mm 0,0 UV-I 14 W/m 11,7 C 8,7 C 22,5 km/h (4 Bft) 100,00 %
15.06.2016 05:36 12,6 C 94 % 1000,4 hPa 0,0 l/m 11,6 km/h (2 Bft) SW 218 0 min 0,000 mm 0,0 UV-I 16 W/m 11,7 C 9,7 C 17,7 km/h (3 Bft) 96,30 %
15.06.2016 05:37 12,6 C 94 % 1000,4 hPa 0,0 l/m 21,9 km/h (4 Bft) SW 236 0 min 0,000 mm 0,0 UV-I 16 W/m 11,7 C 6,1 C 29,0 km/h (5 Bft) 100,00 %
15.06.2016 05:38 12,5 C 94 % 1000,4 hPa 0,2 l/m 16,3 km/h (3 Bft) SW 217 0 min 0,000 mm 0,0 UV-I 18 W/m 11,6 C 7,7 C 24,1 km/h (4 Bft) 100,00 %
15.06.2016 05:39 12,5 C 94 % 1000,5 hPa 0,0 l/m 18,3 km/h (3 Bft) SW 233 0 min 0,000 mm 0,0 UV-I 18 W/m 11,6 C 7,0 C 22,5 km/h (4 Bft) 100,00 %
15.06.2016 05:40 12,4 C 94 % 1000,4 hPa 0,0 l/m 12,5 km/h (3 Bft) SW 218 0 min 0,000 mm 0,0 UV-I 18 W/m 11,5 C 9,1 C 17,7 km/h (3 Bft) 100,00 %
15.06.2016 05:41 12,4 C 94 % 1000,4 hPa 0,0 l/m 17,2 km/h (3 Bft) SW 225 0 min 0,000 mm 0,0 UV-I 18 W/m 11,5 C 7,3 C 20,9 km/h (4 Bft) 100,00 %
15.06.2016 05:42 12,4 C 94 % 1000,5 hPa 0,0 l/m 20,5 km/h (4 Bft) S-SW 212 0 min 0,000 mm 0,0 UV-I 18 W/m 11,5 C 6,2 C 29,0 km/h (5 Bft) 100,00 %
15.06.2016 05:43 12,4 C 94 % 1000,5 hPa 0,0 l/m 17,7 km/h (3 Bft) SW 225 0 min 0,000 mm 0,0 UV-I 18 W/m 11,5 C 7,1 C 25,7 km/h (4 Bft) 96,15 %
15.06.2016 05:44 12,4 C 94 % 1000,5 hPa 0,0 l/m 24,0 km/h (4 Bft) W-SW 246 0 min 0,000 mm 0,0 UV-I 16 W/m 11,5 C 5,3 C 30,6 km/h (5 Bft) 100,00 %
15.06.2016 05:45 12,3 C 94 % 1000,5 hPa 0,0 l/m 22,5 km/h (4 Bft) SW 235 0 min 0,000 mm 0,0 UV-I 16 W/m 11,4 C 5,6 C 29,0 km/h (5 Bft) 100,00 %
15.06.2016 05:46 12,3 C 94 % 1000,5 hPa 0,0 l/m 17,0 km/h (3 Bft) SW 223 0 min 0,000 mm 0,0 UV-I 16 W/m 11,4 C 7,2 C 25,7 km/h (4 Bft) 100,00 %
15.06.2016 05:47 12,3 C 94 % 1000,6 hPa 0,0 l/m 19,7 km/h (3 Bft) SW 233 0 min 0,000 mm 0,0 UV-I 16 W/m 11,4 C 6,3 C 25,7 km/h (4 Bft) 100,00 %
15.06.2016 05:48 12,3 C 94 % 1000,6 hPa 0,0 l/m 20,4 km/h (4 Bft) SW 227 0 min 0,000 mm 0,0 UV-I 15 W/m 11,4 C 6,1 C 27,4 km/h (4 Bft) 100,00 %
15.06.2016 05:49 12,3 C 94 % 1000,6 hPa 0,0 l/m 17,2 km/h (3 Bft) W-SW 257 0 min 0,000 mm 0,0 UV-I 14 W/m 11,4 C 7,1 C 29,0 km/h (5 Bft) 95,83 %
15.06.2016 05:50 12,3 C 94 % 1000,6 hPa 0,0 l/m 14,0 km/h (3 Bft) S 179 0 min 0,000 mm 0,0 UV-I 14 W/m 11,4 C 8,3 C 19,3 km/h (3 Bft) 100,00 %
15.06.2016 05:51 12,2 C 94 % 1000,6 hPa 0,0 l/m 14,9 km/h (3 Bft) W-SW 256 0 min 0,000 mm 0,0 UV-I 14 W/m 11,3 C 7,8 C 20,9 km/h (4 Bft) 100,00 %
15.06.2016 05:52 12,2 C 94 % 1000,6 hPa 0,0 l/m 17,5 km/h (3 Bft) SW 215 0 min 0,000 mm 0,0 UV-I 16 W/m 11,3 C 6,9 C 20,9 km/h (4 Bft) 95,65 %
15.06.2016 05:53 12,2 C 94 % 1000,6 hPa 0,0 l/m 18,3 km/h (3 Bft) SW 214 0 min 0,000 mm 0,0 UV-I 16 W/m 11,3 C 6,7 C 22,5 km/h (4 Bft) 100,00 %
15.06.2016 05:54 12,2 C 94 % 1000,6 hPa 0,0 l/m 20,3 km/h (4 Bft) SW 235 0 min 0,000 mm 0,0 UV-I 17 W/m 11,3 C 6,0 C 27,4 km/h (4 Bft) 98,63 %
15.06.2016 05:55 12,2 C 94 % 1000,6 hPa 0,0 l/m 17,3 km/h (3 Bft) SW 231 0 min 0,000 mm 0,0 UV-I 19 W/m 11,3 C 7,0 C 24,1 km/h (4 Bft) 100,00 %
15.06.2016 05:56 12,2 C 94 % 1000,6 hPa 0,2 l/m 18,6 km/h (3 Bft) SW 234 0 min 0,000 mm 0,0 UV-I 19 W/m 11,3 C 6,6 C 25,7 km/h (4 Bft) 100,00 %
15.06.2016 05:57 12,2 C 94 % 1000,6 hPa 0,0 l/m 16,5 km/h (3 Bft) W-SW 250 0 min 0,000 mm 0,0 UV-I 21 W/m 11,3 C 7,3 C 24,1 km/h (4 Bft) 100,00 %
15.06.2016 05:58 12,1 C 94 % 1000,6 hPa 0,0 l/m 16,3 km/h (3 Bft) SW 219 0 min 0,000 mm 0,0 UV-I 21 W/m 11,2 C 7,2 C 25,7 km/h (4 Bft) 91,67 %
15.06.2016 05:59 12,1 C 94 % 1000,6 hPa 0,0 l/m 18,5 km/h (3 Bft) W 259 0 min 0,000 mm 0,0 UV-I 23 W/m 11,2 C 6,5 C 22,5 km/h (4 Bft) 100,00 %
15.06.2016 06:00 12,1 C 94 % 1000,6 hPa 0,0 l/m 15,6 km/h (3 Bft) W-SW 238 0 min 0,025 mm 0,0 UV-I 25 W/m 11,2 C 7,5 C 22,5 km/h (4 Bft) 100,00 %
15.06.2016 06:01 12,1 C 94 % 1000,6 hPa 0,0 l/m 17,4 km/h (3 Bft) W-SW 237 0 min 0,000 mm 0,0 UV-I 25 W/m 11,2 C 6,8 C 27,4 km/h (4 Bft) 100,00 %
15.06.2016 06:02 12,1 C 94 % 1000,6 hPa 0,0 l/m 18,3 km/h (3 Bft) SW 227 0 min 0,000 mm 0,0 UV-I 25 W/m 11,2 C 6,5 C 25,7 km/h (4 Bft) 100,00 %
15.06.2016 06:03 12,1 C 94 % 1000,6 hPa 0,0 l/m 16,0 km/h (3 Bft) W-SW 245 0 min 0,000 mm 0,0 UV-I 26 W/m 11,2 C 7,3 C 22,5 km/h (4 Bft) 100,00 %
15.06.2016 06:04 12,1 C 94 % 1000,6 hPa 0,0 l/m 16,1 km/h (3 Bft) W-SW 240 0 min 0,000 mm 0,0 UV-I 26 W/m 11,2 C 7,3 C 22,5 km/h (4 Bft) 91,67 %
15.06.2016 06:05 12,1 C 94 % 1000,6 hPa 0,0 l/m 19,7 km/h (3 Bft) SW 228 0 min 0,000 mm 0,0 UV-I 26 W/m 11,2 C 6,1 C 29,0 km/h (5 Bft) 100,00 %
15.06.2016 06:06 12,1 C 94 % 1000,6 hPa 0,0 l/m 17,2 km/h (3 Bft) SW 234 0 min 0,000 mm 0,0 UV-I 27 W/m 11,2 C 6,9 C 24,1 km/h (4 Bft) 100,00 %
15.06.2016 06:07 12,1 C 94 % 1000,7 hPa 0,0 l/m 15,4 km/h (3 Bft) SW 220 0 min 0,000 mm 0,0 UV-I 28 W/m 11,2 C 7,5 C 22,5 km/h (4 Bft) 90,91 %
15.06.2016 06:08 12,1 C 94 % 1000,6 hPa 0,0 l/m 17,1 km/h (3 Bft) S-SW 213 0 min 0,000 mm 0,0 UV-I 30 W/m 11,2 C 6,9 C 22,5 km/h (4 Bft) 100,00 %
15.06.2016 06:09 12,1 C 94 % 1000,6 hPa 0,0 l/m 11,3 km/h (2 Bft) SW 221 0 min 0,000 mm 0,0 UV-I 31 W/m 11,2 C 9,3 C 16,1 km/h (3 Bft) 100,00 %
15.06.2016 06:10 12,0 C 94 % 1000,6 hPa 0,0 l/m 13,5 km/h (3 Bft) W-SW 256 0 min 0,000 mm 0,0 UV-I 32 W/m 11,1 C 8,2 C 17,7 km/h (3 Bft) 100,00 %
15.06.2016 06:11 12,0 C 94 % 1000,6 hPa 0,0 l/m 13,2 km/h (3 Bft) W 265 0 min 0,000 mm 0,0 UV-I 33 W/m 11,1 C 8,3 C 19,3 km/h (3 Bft) 100,00 %
15.06.2016 06:12 12,0 C 94 % 1000,6 hPa 0,0 l/m 13,8 km/h (3 Bft) S-SW 211 0 min 0,000 mm 0,0 UV-I 34 W/m 11,1 C 8,0 C 19,3 km/h (3 Bft) 100,00 %
15.06.2016 06:13 12,0 C 94 % 1000,6 hPa 0,0 l/m 17,4 km/h (3 Bft) W-SW 240 0 min 0,000 mm 0,0 UV-I 37 W/m 11,1 C 6,7 C 22,5 km/h (4 Bft) 100,00 %
15.06.2016 06:14 12,0 C 94 % 1000,6 hPa 0,0 l/m 16,2 km/h (3 Bft) SW 231 0 min 0,000 mm 0,0 UV-I 39 W/m 11,1 C 7,1 C 20,9 km/h (4 Bft) 100,00 %
15.06.2016 06:15 12,0 C 94 % 1000,6 hPa 0,0 l/m 12,6 km/h (3 Bft) SW 234 0 min 0,000 mm 0,0 UV-I 39 W/m 11,1 C 8,5 C 17,7 km/h (3 Bft) 100,00 %
15.06.2016 06:16 12,0 C 94 % 1000,6 hPa 0,0 l/m 14,9 km/h (3 Bft) SW 217 0 min 0,000 mm 0,0 UV-I 40 W/m 11,1 C 7,6 C 25,7 km/h (4 Bft) 100,00 %
15.06.2016 06:17 12,0 C 94 % 1000,6 hPa 0,0 l/m 19,0 km/h (3 Bft) SW 231 0 min 0,000 mm 0,0 UV-I 40 W/m 11,1 C 6,2 C 25,7 km/h (4 Bft) 95,65 %
15.06.2016 06:18 12,0 C 94 % 1000,6 hPa 0,0 l/m 19,4 km/h (3 Bft) SW 236 0 min 0,000 mm 0,0 UV-I 40 W/m 11,1 C 6,1 C 25,7 km/h (4 Bft) 100,00 %
15.06.2016 06:19 12,0 C 94 % 1000,7 hPa 0,0 l/m 18,8 km/h (3 Bft) SW 227 0 min 0,000 mm 0,0 UV-I 40 W/m 11,1 C 6,2 C 24,1 km/h (4 Bft) 100,00 %
15.06.2016 06:20 12,0 C 94 % 1000,6 hPa 0,0 l/m 15,2 km/h (3 Bft) S-SW 205 0 min 0,000 mm 0,0 UV-I 40 W/m 11,1 C 7,5 C 25,7 km/h (4 Bft) 100,00 %
15.06.2016 06:21 12,0 C 94 % 1000,6 hPa 0,0 l/m 12,9 km/h (3 Bft) SW 223 0 min 0,000 mm 0,0 UV-I 42 W/m 11,1 C 8,4 C 17,7 km/h (3 Bft) 100,00 %
15.06.2016 06:22 12,0 C 94 % 1000,7 hPa 0,0 l/m 17,1 km/h (3 Bft) SW 220 0 min 0,000 mm 0,0 UV-I 42 W/m 11,1 C 6,8 C 25,7 km/h (4 Bft) 100,00 %
15.06.2016 06:23 12,0 C 94 % 1000,7 hPa 0,0 l/m 18,0 km/h (3 Bft) SW 236 0 min 0,000 mm 0,0 UV-I 43 W/m 11,1 C 6,5 C 24,1 km/h (4 Bft) 100,00 %
15.06.2016 06:24 12,0 C 94 % 1000,6 hPa 0,0 l/m 15,8 km/h (3 Bft) SW 232 0 min 0,000 mm 0,0 UV-I 44 W/m 11,1 C 7,3 C 22,5 km/h (4 Bft) 100,00 %
15.06.2016 06:25 12,0 C 94 % 1000,7 hPa 0,0 l/m 12,2 km/h (2 Bft) SW 233 0 min 0,000 mm 0,0 UV-I 44 W/m 11,1 C 8,7 C 17,7 km/h (3 Bft) 100,00 %
15.06.2016 06:26 12,0 C 94 % 1000,7 hPa 0,0 l/m 16,9 km/h (3 Bft) SW 232 0 min 0,000 mm 0,0 UV-I 44 W/m 11,1 C 6,9 C 24,1 km/h (4 Bft) 100,00 %
15.06.2016 06:27 12,0 C 95 % 1000,7 hPa 0,0 l/m 13,8 km/h (3 Bft) SW 223 0 min 0,000 mm 0,0 UV-I 44 W/m 11,2 C 8,0 C 19,3 km/h (3 Bft) 100,00 %
15.06.2016 06:28 12,0 C 95 % 1000,7 hPa 0,0 l/m 18,2 km/h (3 Bft) SW 232 0 min 0,000 mm 0,0 UV-I 43 W/m 11,2 C 6,4 C 24,1 km/h (4 Bft) 100,00 %
15.06.2016 06:29 12,0 C 95 % 1000,7 hPa 0,0 l/m 14,2 km/h (3 Bft) W-SW 240 0 min 0,000 mm 0,0 UV-I 42 W/m 11,2 C 7,9 C 22,5 km/h (4 Bft) 100,00 %
15.06.2016 06:30 12,0 C 95 % 1000,7 hPa 0,0 l/m 15,4 km/h (3 Bft) SW 231 0 min 0,000 mm 0,0 UV-I 44 W/m 11,2 C 7,4 C 20,9 km/h (4 Bft) 100,00 %
15.06.2016 06:31 12,0 C 95 % 1000,7 hPa 0,0 l/m 16,2 km/h (3 Bft) W-SW 250 0 min 0,000 mm 0,0 UV-I 44 W/m 11,2 C 7,1 C 24,1 km/h (4 Bft) 100,00 %
15.06.2016 06:32 12,0 C 95 % 1000,7 hPa 0,0 l/m 15,8 km/h (3 Bft) SW 217 0 min 0,000 mm 0,0 UV-I 44 W/m 11,2 C 7,3 C 20,9 km/h (4 Bft) 100,00 %
15.06.2016 06:33 12,0 C 95 % 1000,7 hPa 0,0 l/m 12,7 km/h (3 Bft) SW 230 0 min 0,000 mm 0,0 UV-I 46 W/m 11,2 C 8,5 C 17,7 km/h (3 Bft) 100,00 %
15.06.2016 06:34 12,0 C 95 % 1000,7 hPa 0,0 l/m 14,2 km/h (3 Bft) SW 217 0 min 0,000 mm 0,0 UV-I 48 W/m 11,2 C 7,9 C 19,3 km/h (3 Bft) 100,00 %
15.06.2016 06:35 12,0 C 95 % 1000,7 hPa 0,0 l/m 14,9 km/h (3 Bft) SW 227 0 min 0,000 mm 0,0 UV-I 50 W/m 11,2 C 7,6 C 22,5 km/h (4 Bft) 100,00 %
15.06.2016 06:36 12,0 C 95 % 1000,7 hPa 0,0 l/m 13,5 km/h (3 Bft) W-SW 244 0 min 0,000 mm 0,0 UV-I 51 W/m 11,2 C 8,2 C 17,7 km/h (3 Bft) 100,00 %
15.06.2016 06:37 12,0 C 95 % 1000,8 hPa 0,0 l/m 13,8 km/h (3 Bft) SW 236 0 min 0,000 mm 0,0 UV-I 51 W/m 11,2 C 8,0 C 20,9 km/h (4 Bft) 100,00 %
15.06.2016 06:38 12,0 C 95 % 1000,8 hPa 0,0 l/m 13,8 km/h (3 Bft) SW 225 0 min 0,000 mm 0,0 UV-I 49 W/m 11,2 C 8,0 C 24,1 km/h (4 Bft) 100,00 %
15.06.2016 06:39 12,0 C 95 % 1000,8 hPa 0,0 l/m 16,0 km/h (3 Bft) SW 223 0 min 0,000 mm 0,0 UV-I 48 W/m 11,2 C 7,2 C 22,5 km/h (4 Bft) 100,00 %
15.06.2016 06:40 12,0 C 95 % 1000,8 hPa 0,0 l/m 16,8 km/h (3 Bft) S-SW 211 0 min 0,000 mm 0,0 UV-I 46 W/m 11,2 C 6,9 C 22,5 km/h (4 Bft) 100,00 %
15.06.2016 06:41 12,0 C 95 % 1000,8 hPa 0,0 l/m 15,1 km/h (3 Bft) SW 235 0 min 0,000 mm 0,0 UV-I 46 W/m 11,2 C 7,5 C 20,9 km/h (4 Bft) 100,00 %
15.06.2016 06:42 12,0 C 95 % 1000,8 hPa 0,0 l/m 19,3 km/h (3 Bft) SW 223 0 min 0,000 mm 0,0 UV-I 46 W/m 11,2 C 6,1 C 27,4 km/h (4 Bft) 100,00 %
15.06.2016 06:43 12,0 C 94 % 1000,8 hPa 0,0 l/m 9,9 km/h (2 Bft) S-SW 196 0 min 0,000 mm 0,0 UV-I 44 W/m 11,1 C 9,9 C 14,5 km/h (3 Bft) 100,00 %
15.06.2016 06:44 12,1 C 94 % 1000,8 hPa 0,0 l/m 14,2 km/h (3 Bft) SW 232 0 min 0,000 mm 0,0 UV-I 44 W/m 11,2 C 8,0 C 19,3 km/h (3 Bft) 100,00 %
15.06.2016 06:45 12,1 C 95 % 1000,8 hPa 0,0 l/m 18,1 km/h (3 Bft) SW 236 0 min 0,000 mm 0,0 UV-I 44 W/m 11,3 C 6,6 C 25,7 km/h (4 Bft) 100,00 %
15.06.2016 06:46 12,0 C 95 % 1000,8 hPa 0,0 l/m 16,7 km/h (3 Bft) W 264 0 min 0,000 mm 0,0 UV-I 44 W/m 11,2 C 6,9 C 22,5 km/h (4 Bft) 100,00 %
15.06.2016 06:47 12,1 C 95 % 1000,8 hPa 0,0 l/m 14,3 km/h (3 Bft) SW 224 0 min 0,000 mm 0,0 UV-I 45 W/m 11,3 C 8,0 C 19,3 km/h (3 Bft) 100,00 %
15.06.2016 06:48 12,1 C 95 % 1000,8 hPa 0,0 l/m 18,7 km/h (3 Bft) SW 232 0 min 0,000 mm 0,0 UV-I 47 W/m 11,3 C 6,4 C 25,7 km/h (4 Bft) 100,00 %
15.06.2016 06:49 12,1 C 95 % 1000,8 hPa 0,0 l/m 14,9 km/h (3 Bft) SW 236 0 min 0,000 mm 0,0 UV-I 49 W/m 11,3 C 7,7 C 20,9 km/h (4 Bft) 100,00 %
15.06.2016 06:50 12,1 C 95 % 1000,8 hPa 0,0 l/m 13,8 km/h (3 Bft) W-SW 248 0 min 0,000 mm 0,0 UV-I 52 W/m 11,3 C 8,2 C 17,7 km/h (3 Bft) 100,00 %
15.06.2016 06:51 12,1 C 94 % 1000,9 hPa 0,0 l/m 14,5 km/h (3 Bft) W-SW 247 0 min 0,000 mm 0,0 UV-I 54 W/m 11,2 C 7,9 C 19,3 km/h (3 Bft) 94,12 %
15.06.2016 06:52 12,1 C 94 % 1000,9 hPa 0,0 l/m 13,0 km/h (3 Bft) W-SW 250 0 min 0,000 mm 0,0 UV-I 57 W/m 11,2 C 8,5 C 20,9 km/h (4 Bft) 100,00 %
15.06.2016 06:53 12,1 C 94 % 1000,9 hPa 0,0 l/m 10,7 km/h (2 Bft) S-SW 192 0 min 0,000 mm 0,0 UV-I 61 W/m 11,2 C 9,6 C 16,1 km/h (3 Bft) 100,00 %
15.06.2016 06:54 12,1 C 94 % 1000,9 hPa 0,0 l/m 19,7 km/h (3 Bft) SW 218 0 min 0,000 mm 0,0 UV-I 63 W/m 11,2 C 6,1 C 25,7 km/h (4 Bft) 100,00 %
15.06.2016 06:55 12,1 C 94 % 1000,9 hPa 0,0 l/m 14,3 km/h (3 Bft) W-SW 243 0 min 0,000 mm 0,0 UV-I 67 W/m 11,2 C 8,0 C 20,9 km/h (4 Bft) 96,15 %
15.06.2016 06:56 12,1 C 94 % 1000,8 hPa 0,0 l/m 14,0 km/h (3 Bft) SW 217 0 min 0,000 mm 0,0 UV-I 69 W/m 11,2 C 8,1 C 16,1 km/h (3 Bft) 100,00 %
15.06.2016 06:57 12,1 C 94 % 1000,8 hPa 0,0 l/m 17,8 km/h (3 Bft) SW 232 0 min 0,000 mm 0,0 UV-I 73 W/m 11,2 C 6,7 C 25,7 km/h (4 Bft) 100,00 %
15.06.2016 06:58 12,1 C 94 % 1000,8 hPa 0,0 l/m 13,9 km/h (3 Bft) SW 227 0 min 0,000 mm 0,0 UV-I 75 W/m 11,2 C 8,1 C 20,9 km/h (4 Bft) 96,15 %
15.06.2016 06:59 12,1 C 94 % 1000,8 hPa 0,0 l/m 13,5 km/h (3 Bft) W-SW 245 0 min 0,000 mm 0,0 UV-I 80 W/m 11,2 C 8,3 C 19,3 km/h (3 Bft) 100,00 %
15.06.2016 07:00 12,1 C 94 % 1000,8 hPa 0,0 l/m 13,5 km/h (3 Bft) W-SW 254 0 min 0,026 mm 0,0 UV-I 83 W/m 11,2 C 8,3 C 24,1 km/h (4 Bft) 91,67 %
15.06.2016 07:02 12,1 C 94 % 1000,9 hPa 0,0 l/m 13,6 km/h (3 Bft) W-SW 252 0 min 0,000 mm 0,0 UV-I 83 W/m 11,2 C 8,2 C 19,3 km/h (3 Bft) 96,55 %
15.06.2016 07:03 12,1 C 94 % 1000,9 hPa 0,0 l/m 16,4 km/h (3 Bft) W 263 0 min 0,000 mm 0,0 UV-I 80 W/m 11,2 C 7,2 C 20,9 km/h (4 Bft) 96,30 %
15.06.2016 07:04 12,1 C 94 % 1000,9 hPa 0,0 l/m 16,1 km/h (3 Bft) W-SW 241 0 min 0,000 mm 0,0 UV-I 78 W/m 11,2 C 7,3 C 20,9 km/h (4 Bft) 100,00 %
15.06.2016 07:05 12,1 C 94 % 1000,9 hPa 0,0 l/m 13,3 km/h (3 Bft) SW 218 0 min 0,000 mm 0,0 UV-I 77 W/m 11,2 C 8,4 C 25,7 km/h (4 Bft) 95,83 %
15.06.2016 07:06 12,2 C 94 % 1000,9 hPa 0,0 l/m 14,1 km/h (3 Bft) W 271 0 min 0,000 mm 0,0 UV-I 76 W/m 11,3 C 8,2 C 24,1 km/h (4 Bft) 100,00 %
15.06.2016 07:07 12,2 C 94 % 1000,9 hPa 0,0 l/m 17,8 km/h (3 Bft) S-SW 207 0 min 0,000 mm 0,0 UV-I 76 W/m 11,3 C 6,8 C 25,7 km/h (4 Bft) 92,86 %
15.06.2016 07:08 12,2 C 94 % 1001,0 hPa 0,0 l/m 15,9 km/h (3 Bft) SW 227 0 min 0,000 mm 0,0 UV-I 74 W/m 11,3 C 7,5 C 24,1 km/h (4 Bft) 100,00 %
15.06.2016 07:09 12,2 C 94 % 1001,0 hPa 0,0 l/m 18,6 km/h (3 Bft) SW 225 0 min 0,000 mm 0,0 UV-I 74 W/m 11,3 C 6,6 C 22,5 km/h (4 Bft) 96,30 %
15.06.2016 07:10 12,2 C 94 % 1000,9 hPa 0,0 l/m 17,5 km/h (3 Bft) SW 219 0 min 0,000 mm 0,0 UV-I 74 W/m 11,3 C 6,9 C 25,7 km/h (4 Bft) 96,15 %
15.06.2016 07:11 12,2 C 94 % 1000,9 hPa 0,0 l/m 13,3 km/h (3 Bft) SW 234 0 min 0,000 mm 0,0 UV-I 72 W/m 11,3 C 8,5 C 17,7 km/h (3 Bft) 100,00 %
15.06.2016 07:12 12,2 C 94 % 1001,0 hPa 0,0 l/m 17,4 km/h (3 Bft) S-SW 211 0 min 0,000 mm 0,0 UV-I 72 W/m 11,3 C 6,9 C 25,7 km/h (4 Bft) 92,86 %
15.06.2016 07:13 12,2 C 94 % 1001,0 hPa 0,0 l/m 15,3 km/h (3 Bft) SW 225 0 min 0,000 mm 0,0 UV-I 74 W/m 11,3 C 7,7 C 22,5 km/h (4 Bft) 100,00 %
15.06.2016 07:14 12,2 C 94 % 1001,0 hPa 0,0 l/m 16,5 km/h (3 Bft) SW 227 0 min 0,000 mm 0,0 UV-I 74 W/m 11,3 C 7,3 C 24,1 km/h (4 Bft) 92,86 %
15.06.2016 07:15 12,2 C 94 % 1000,9 hPa 0,0 l/m 16,4 km/h (3 Bft) SW 231 0 min 0,000 mm 0,0 UV-I 75 W/m 11,3 C 7,3 C 22,5 km/h (4 Bft) 100,00 %
15.06.2016 07:16 12,2 C 94 % 1001,0 hPa 0,0 l/m 16,4 km/h (3 Bft) SW 222 0 min 0,000 mm 0,0 UV-I 76 W/m 11,3 C 7,3 C 22,5 km/h (4 Bft) 97,14 %
15.06.2016 07:17 12,2 C 94 % 1001,0 hPa 0,0 l/m 17,4 km/h (3 Bft) S-SW 213 0 min 0,000 mm 0,0 UV-I 76 W/m 11,3 C 6,9 C 24,1 km/h (4 Bft) 100,00 %
15.06.2016 07:18 12,2 C 94 % 1001,0 hPa 0,0 l/m 10,9 km/h (2 Bft) W-SW 255 0 min 0,000 mm 0,0 UV-I 76 W/m 11,3 C 9,6 C 16,1 km/h (3 Bft) 95,83 %
15.06.2016 07:19 12,2 C 94 % 1001,0 hPa 0,0 l/m 14,9 km/h (3 Bft) SW 223 0 min 0,000 mm 0,0 UV-I 76 W/m 11,3 C 7,8 C 20,9 km/h (4 Bft) 96,15 %
15.06.2016 07:20 12,2 C 94 % 1001,0 hPa 0,0 l/m 14,0 km/h (3 Bft) SW 219 0 min 0,000 mm 0,0 UV-I 73 W/m 11,3 C 8,2 C 19,3 km/h (3 Bft) 100,00 %
15.06.2016 07:21 12,2 C 94 % 1001,0 hPa 0,0 l/m 13,2 km/h (3 Bft) SW 227 0 min 0,000 mm 0,0 UV-I 70 W/m 11,3 C 8,5 C 19,3 km/h (3 Bft) 97,56 %
15.06.2016 07:22 12,2 C 94 % 1001,0 hPa 0,0 l/m 18,8 km/h (3 Bft) SW 232 0 min 0,000 mm 0,0 UV-I 68 W/m 11,3 C 6,5 C 24,1 km/h (4 Bft) 100,00 %
15.06.2016 07:23 12,2 C 94 % 1001,1 hPa 0,0 l/m 11,5 km/h (2 Bft) W-SW 248 0 min 0,000 mm 0,0 UV-I 67 W/m 11,3 C 9,3 C 16,1 km/h (3 Bft) 96,15 %
15.06.2016 07:24 12,2 C 94 % 1001,1 hPa 0,0 l/m 14,1 km/h (3 Bft) SW 234 0 min 0,000 mm 0,0 UV-I 60 W/m 11,3 C 8,2 C 22,5 km/h (4 Bft) 100,00 %
15.06.2016 07:25 12,2 C 94 % 1001,1 hPa 0,0 l/m 20,8 km/h (4 Bft) SW 216 0 min 0,000 mm 0,0 UV-I 58 W/m 11,3 C 5,9 C 27,4 km/h (4 Bft) 92,86 %
15.06.2016 07:26 12,2 C 94 % 1001,1 hPa 0,0 l/m 15,5 km/h (3 Bft) W-SW 241 0 min 0,000 mm 0,0 UV-I 55 W/m 11,3 C 7,6 C 20,9 km/h (4 Bft) 96,97 %
15.06.2016 07:27 12,2 C 94 % 1001,1 hPa 0,0 l/m 15,2 km/h (3 Bft) SW 217 0 min 0,000 mm 0,0 UV-I 54 W/m 11,3 C 7,7 C 24,1 km/h (4 Bft) 92,86 %
15.06.2016 07:28 12,2 C 94 % 1001,2 hPa 0,0 l/m 16,7 km/h (3 Bft) SW 236 0 min 0,000 mm 0,0 UV-I 53 W/m 11,3 C 7,2 C 22,5 km/h (4 Bft) 100,00 %
15.06.2016 07:29 12,2 C 94 % 1001,2 hPa 0,0 l/m 12,5 km/h (3 Bft) S-SW 207 0 min 0,000 mm 0,0 UV-I 53 W/m 11,3 C 8,8 C 17,7 km/h (3 Bft) 92,31 %
15.06.2016 07:30 12,2 C 94 % 1001,2 hPa 0,0 l/m 18,7 km/h (3 Bft) S-SW 212 0 min 0,000 mm 0,0 UV-I 51 W/m 11,3 C 6,5 C 25,7 km/h (4 Bft) 95,83 %
15.06.2016 07:31 12,2 C 94 % 1001,2 hPa 0,0 l/m 16,9 km/h (3 Bft) SW 228 0 min 0,000 mm 0,0 UV-I 49 W/m 11,3 C 7,1 C 24,1 km/h (4 Bft) 100,00 %
15.06.2016 07:32 12,2 C 94 % 1001,2 hPa 0,0 l/m 16,6 km/h (3 Bft) W 260 0 min 0,000 mm 0,0 UV-I 49 W/m 11,3 C 7,2 C 20,9 km/h (4 Bft) 100,00 %
15.06.2016 07:33 12,2 C 94 % 1001,2 hPa 0,0 l/m 18,6 km/h (3 Bft) W-SW 240 0 min 0,000 mm 0,0 UV-I 48 W/m 11,3 C 6,6 C 27,4 km/h (4 Bft) 100,00 %
15.06.2016 07:34 12,2 C 94 % 1001,2 hPa 0,0 l/m 16,3 km/h (3 Bft) W-SW 241 0 min 0,000 mm 0,0 UV-I 47 W/m 11,3 C 7,3 C 25,7 km/h (4 Bft) 100,00 %
15.06.2016 07:35 12,2 C 94 % 1001,2 hPa 0,0 l/m 12,9 km/h (3 Bft) S-SW 205 0 min 0,000 mm 0,0 UV-I 47 W/m 11,3 C 8,6 C 17,7 km/h (3 Bft) 100,00 %
15.06.2016 07:36 12,2 C 94 % 1001,2 hPa 0,0 l/m 13,1 km/h (3 Bft) W 277 0 min 0,000 mm 0,0 UV-I 47 W/m 11,3 C 8,6 C 20,9 km/h (4 Bft) 100,00 %
15.06.2016 07:37 12,2 C 94 % 1001,2 hPa 0,0 l/m 18,2 km/h (3 Bft) SW 219 0 min 0,000 mm 0,0 UV-I 46 W/m 11,3 C 6,7 C 24,1 km/h (4 Bft) 100,00 %
15.06.2016 07:38 12,1 C 94 % 1001,2 hPa 0,0 l/m 15,0 km/h (3 Bft) S-SW 207 0 min 0,000 mm 0,0 UV-I 45 W/m 11,2 C 7,7 C 20,9 km/h (4 Bft) 96,30 %
15.06.2016 07:39 12,2 C 94 % 1001,2 hPa 0,0 l/m 21,1 km/h (4 Bft) S-SW 198 0 min 0,000 mm 0,0 UV-I 44 W/m 11,3 C 5,8 C 30,6 km/h (5 Bft) 91,67 %
15.06.2016 07:40 12,1 C 94 % 1001,3 hPa 0,0 l/m 14,6 km/h (3 Bft) W-SW 240 0 min 0,000 mm 0,0 UV-I 43 W/m 11,2 C 7,8 C 19,3 km/h (3 Bft) 100,00 %
15.06.2016 07:41 12,2 C 94 % 1001,3 hPa 0,0 l/m 15,7 km/h (3 Bft) SW 229 0 min 0,000 mm 0,0 UV-I 42 W/m 11,3 C 7,5 C 24,1 km/h (4 Bft) 96,15 %
15.06.2016 07:42 12,1 C 94 % 1001,3 hPa 0,0 l/m 16,9 km/h (3 Bft) W-SW 247 0 min 0,000 mm 0,0 UV-I 42 W/m 11,2 C 7,0 C 20,9 km/h (4 Bft) 98,68 %
15.06.2016 07:43 12,1 C 94 % 1001,3 hPa 0,0 l/m 19,4 km/h (3 Bft) W-SW 237 0 min 0,000 mm 0,0 UV-I 40 W/m 11,2 C 6,2 C 25,7 km/h (4 Bft) 100,00 %
15.06.2016 07:44 12,1 C 94 % 1001,3 hPa 0,0 l/m 13,1 km/h (3 Bft) SW 230 0 min 0,000 mm 0,0 UV-I 40 W/m 11,2 C 8,4 C 17,7 km/h (3 Bft) 100,00 %
15.06.2016 07:45 12,1 C 94 % 1001,3 hPa 0,0 l/m 17,1 km/h (3 Bft) W-SW 244 0 min 0,000 mm 0,0 UV-I 41 W/m 11,2 C 6,9 C 22,5 km/h (4 Bft) 100,00 %
15.06.2016 07:46 12,1 C 94 % 1001,3 hPa 0,0 l/m 16,3 km/h (3 Bft) SW 232 0 min 0,000 mm 0,0 UV-I 42 W/m 11,2 C 7,2 C 25,7 km/h (4 Bft) 100,00 %
15.06.2016 07:47 12,1 C 94 % 1001,3 hPa 0,0 l/m 18,8 km/h (3 Bft) W-SW 252 0 min 0,000 mm 0,0 UV-I 42 W/m 11,2 C 6,4 C 22,5 km/h (4 Bft) 96,30 %
15.06.2016 07:48 12,1 C 94 % 1001,3 hPa 0,0 l/m 20,5 km/h (4 Bft) W-SW 239 0 min 0,000 mm 0,0 UV-I 44 W/m 11,2 C 5,9 C 29,0 km/h (5 Bft) 100,00 %
15.06.2016 07:49 12,1 C 94 % 1001,4 hPa 0,0 l/m 17,4 km/h (3 Bft) W-SW 247 0 min 0,000 mm 0,0 UV-I 46 W/m 11,2 C 6,8 C 24,1 km/h (4 Bft) 100,00 %
15.06.2016 07:50 12,1 C 94 % 1001,4 hPa 0,0 l/m 15,5 km/h (3 Bft) SW 236 0 min 0,000 mm 0,0 UV-I 48 W/m 11,2 C 7,5 C 19,3 km/h (3 Bft) 100,00 %
15.06.2016 07:51 12,1 C 94 % 1001,4 hPa 0,0 l/m 17,3 km/h (3 Bft) W-SW 238 0 min 0,000 mm 0,0 UV-I 50 W/m 11,2 C 6,9 C 25,7 km/h (4 Bft) 100,00 %
15.06.2016 07:52 12,1 C 94 % 1001,4 hPa 0,0 l/m 18,1 km/h (3 Bft) S-SW 199 0 min 0,000 mm 0,0 UV-I 52 W/m 11,2 C 6,6 C 24,1 km/h (4 Bft) 100,00 %
15.06.2016 07:53 12,1 C 94 % 1001,4 hPa 0,0 l/m 21,3 km/h (4 Bft) W-SW 243 0 min 0,000 mm 0,0 UV-I 54 W/m 11,2 C 5,6 C 27,4 km/h (4 Bft) 100,00 %
15.06.2016 07:54 12,1 C 94 % 1001,4 hPa 0,0 l/m 19,7 km/h (3 Bft) W-SW 238 0 min 0,000 mm 0,0 UV-I 56 W/m 11,2 C 6,1 C 25,7 km/h (4 Bft) 100,00 %
15.06.2016 07:55 12,1 C 94 % 1001,4 hPa 0,0 l/m 17,1 km/h (3 Bft) SW 236 0 min 0,000 mm 0,0 UV-I 58 W/m 11,2 C 6,9 C 22,5 km/h (4 Bft) 100,00 %
15.06.2016 07:56 12,1 C 94 % 1001,4 hPa 0,0 l/m 17,1 km/h (3 Bft) S-SW 212 0 min 0,000 mm 0,0 UV-I 59 W/m 11,2 C 6,9 C 19,3 km/h (3 Bft) 100,00 %
15.06.2016 07:57 12,1 C 94 % 1001,4 hPa 0,0 l/m 21,7 km/h (4 Bft) W 264 0 min 0,000 mm 0,0 UV-I 60 W/m 11,2 C 5,5 C 30,6 km/h (5 Bft) 100,00 %
15.06.2016 07:58 12,1 C 94 % 1001,4 hPa 0,0 l/m 12,6 km/h (3 Bft) SW 232 0 min 0,000 mm 0,0 UV-I 60 W/m 11,2 C 8,7 C 16,1 km/h (3 Bft) 100,00 %
15.06.2016 07:59 12,1 C 94 % 1001,4 hPa 0,0 l/m 14,8 km/h (3 Bft) S-SW 211 0 min 0,000 mm 0,0 UV-I 62 W/m 11,2 C 7,8 C 19,3 km/h (3 Bft) 100,00 %
15.06.2016 08:00 12,1 C 93 % 1001,4 hPa 0,0 l/m 16,9 km/h (3 Bft) SW 219 0 min 0,000 mm 0,0 UV-I 63 W/m 11,0 C 7,0 C 22,5 km/h (4 Bft) 100,00 %
15.06.2016 08:02 12,1 C 94 % 1001,5 hPa 0,0 l/m 14,8 km/h (3 Bft) W 263 0 min 0,051 mm 0,0 UV-I 65 W/m 11,2 C 7,8 C 22,5 km/h (4 Bft) 100,00 %
15.06.2016 08:03 12,1 C 93 % 1001,4 hPa 0,0 l/m 16,3 km/h (3 Bft) SW 223 0 min 0,000 mm 0,0 UV-I 68 W/m 11,0 C 7,2 C 25,7 km/h (4 Bft) 100,00 %
15.06.2016 08:04 12,1 C 94 % 1001,5 hPa 0,0 l/m 14,6 km/h (3 Bft) SW 234 0 min 0,000 mm 0,0 UV-I 69 W/m 11,2 C 7,8 C 27,4 km/h (4 Bft) 100,00 %
15.06.2016 08:05 12,1 C 93 % 1001,5 hPa 0,0 l/m 17,9 km/h (3 Bft) SW 228 0 min 0,000 mm 0,0 UV-I 70 W/m 11,0 C 6,7 C 24,1 km/h (4 Bft) 100,00 %
15.06.2016 08:06 12,1 C 93 % 1001,5 hPa 0,0 l/m 11,9 km/h (2 Bft) W-SW 239 0 min 0,000 mm 0,0 UV-I 70 W/m 11,0 C 9,0 C 14,5 km/h (3 Bft) 100,00 %
15.06.2016 08:07 12,1 C 94 % 1001,5 hPa 0,0 l/m 13,1 km/h (3 Bft) SW 229 0 min 0,000 mm 0,0 UV-I 70 W/m 11,2 C 8,4 C 19,3 km/h (3 Bft) 100,00 %
15.06.2016 08:08 12,1 C 94 % 1001,5 hPa 0,0 l/m 11,7 km/h (2 Bft) SW 223 0 min 0,000 mm 0,0 UV-I 70 W/m 11,2 C 9,1 C 16,1 km/h (3 Bft) 100,00 %
15.06.2016 08:09 12,1 C 94 % 1001,5 hPa 0,0 l/m 15,9 km/h (3 Bft) S-SW 211 0 min 0,000 mm 0,0 UV-I 70 W/m 11,2 C 7,3 C 20,9 km/h (4 Bft) 96,15 %
15.06.2016 08:10 12,1 C 94 % 1001,5 hPa 0,0 l/m 12,5 km/h (3 Bft) W 272 0 min 0,000 mm 0,0 UV-I 70 W/m 11,2 C 8,7 C 17,7 km/h (3 Bft) 100,00 %
15.06.2016 08:11 12,1 C 94 % 1001,6 hPa 0,0 l/m 14,7 km/h (3 Bft) SW 232 0 min 0,000 mm 0,0 UV-I 70 W/m 11,2 C 7,8 C 22,5 km/h (4 Bft) 96,55 %
15.06.2016 08:12 12,2 C 94 % 1001,6 hPa 0,0 l/m 13,5 km/h (3 Bft) SW 232 0 min 0,000 mm 0,0 UV-I 70 W/m 11,3 C 8,4 C 22,5 km/h (4 Bft) 100,00 %
15.06.2016 08:13 12,1 C 94 % 1001,6 hPa 0,2 l/m 10,5 km/h (2 Bft) W-SW 256 0 min 0,000 mm 0,0 UV-I 70 W/m 11,2 C 9,7 C 12,9 km/h (3 Bft) 95,65 %
15.06.2016 08:14 12,2 C 94 % 1001,6 hPa 0,0 l/m 11,9 km/h (2 Bft) W-SW 237 0 min 0,000 mm 0,0 UV-I 70 W/m 11,3 C 9,1 C 16,1 km/h (3 Bft) 100,00 %
15.06.2016 08:15 12,1 C 94 % 1001,7 hPa 0,0 l/m 11,2 km/h (2 Bft) SW 236 0 min 0,000 mm 0,0 UV-I 70 W/m 11,2 C 9,3 C 16,1 km/h (3 Bft) 100,00 %
15.06.2016 08:16 12,2 C 94 % 1001,6 hPa 0,0 l/m 10,0 km/h (2 Bft) W-SW 257 0 min 0,000 mm 0,0 UV-I 70 W/m 11,3 C 10,0 C 16,1 km/h (3 Bft) 100,00 %
15.06.2016 08:17 12,2 C 94 % 1001,6 hPa 0,0 l/m 11,3 km/h (2 Bft) SW 232 0 min 0,000 mm 0,0 UV-I 70 W/m 11,3 C 9,4 C 16,1 km/h (3 Bft) 100,00 %
15.06.2016 08:18 12,2 C 94 % 1001,6 hPa 0,0 l/m 12,2 km/h (2 Bft) SW 230 0 min 0,000 mm 0,0 UV-I 69 W/m 11,3 C 9,0 C 17,7 km/h (3 Bft) 100,00 %
15.06.2016 08:19 12,2 C 94 % 1001,6 hPa 0,0 l/m 14,1 km/h (3 Bft) SW 222 0 min 0,000 mm 0,0 UV-I 69 W/m 11,3 C 8,2 C 17,7 km/h (3 Bft) 100,00 %
15.06.2016 08:20 12,2 C 94 % 1001,7 hPa 0,0 l/m 10,7 km/h (2 Bft) SW 236 0 min 0,000 mm 0,0 UV-I 69 W/m 11,3 C 9,7 C 14,5 km/h (3 Bft) 92,31 %
15.06.2016 08:21 12,2 C 94 % 1001,7 hPa 0,0 l/m 7,5 km/h (2 Bft) S-SW 195 0 min 0,000 mm 0,0 UV-I 69 W/m 11,3 C 11,5 C 11,3 km/h (2 Bft) 100,00 %
15.06.2016 08:22 12,2 C 94 % 1001,7 hPa 0,0 l/m 13,3 km/h (3 Bft) SW 236 0 min 0,000 mm 0,0 UV-I 69 W/m 11,3 C 8,5 C 20,9 km/h (4 Bft) 93,33 %
15.06.2016 08:23 12,2 C 94 % 1001,7 hPa 0,0 l/m 13,1 km/h (3 Bft) W-SW 257 0 min 0,000 mm 0,0 UV-I 69 W/m 11,3 C 8,6 C 17,7 km/h (3 Bft) 100,00 %
15.06.2016 08:24 12,2 C 94 % 1001,8 hPa 0,0 l/m 12,3 km/h (3 Bft) SW 223 0 min 0,000 mm 0,0 UV-I 69 W/m 11,3 C 8,9 C 17,7 km/h (3 Bft) 100,00 %
15.06.2016 08:25 12,2 C 94 % 1001,8 hPa 0,0 l/m 12,8 km/h (3 Bft) W-SW 238 0 min 0,000 mm 0,0 UV-I 69 W/m 11,3 C 8,7 C 17,7 km/h (3 Bft) 100,00 %
15.06.2016 08:26 12,2 C 94 % 1001,8 hPa 0,0 l/m 15,1 km/h (3 Bft) W-SW 239 0 min 0,000 mm 0,0 UV-I 69 W/m 11,3 C 7,8 C 17,7 km/h (3 Bft) 100,00 %
15.06.2016 08:27 12,2 C 95 % 1001,8 hPa 0,0 l/m 9,8 km/h (2 Bft) W-SW 244 0 min 0,000 mm 0,0 UV-I 70 W/m 11,4 C 10,1 C 16,1 km/h (3 Bft) 93,33 %
15.06.2016 08:28 12,2 C 95 % 1001,8 hPa 0,0 l/m 9,6 km/h (2 Bft) SW 220 0 min 0,000 mm 0,0 UV-I 70 W/m 11,4 C 10,2 C 16,1 km/h (3 Bft) 100,00 %
15.06.2016 08:29 12,2 C 95 % 1001,8 hPa 0,0 l/m 10,6 km/h (2 Bft) SW 236 0 min 0,000 mm 0,0 UV-I 72 W/m 11,4 C 9,7 C 14,5 km/h (3 Bft) 100,00 %
15.06.2016 08:30 12,2 C 95 % 1001,8 hPa 0,0 l/m 8,5 km/h (2 Bft) SW 217 0 min 0,000 mm 0,0 UV-I 72 W/m 11,4 C 10,9 C 12,9 km/h (3 Bft) 100,00 %
15.06.2016 08:31 12,2 C 95 % 1001,8 hPa 0,2 l/m 6,3 km/h (2 Bft) W-SW 257 0 min 0,000 mm 0,0 UV-I 73 W/m 11,4 C 12,2 C 9,7 km/h (2 Bft) 100,00 %
15.06.2016 08:32 12,2 C 95 % 1001,8 hPa 0,0 l/m 7,5 km/h (2 Bft) SW 235 0 min 0,000 mm 0,0 UV-I 74 W/m 11,4 C 11,5 C 16,1 km/h (3 Bft) 91,30 %
15.06.2016 08:33 12,2 C 95 % 1001,8 hPa 0,0 l/m 10,9 km/h (2 Bft) W-SW 239 0 min 0,000 mm 0,0 UV-I 74 W/m 11,4 C 9,6 C 14,5 km/h (3 Bft) 100,00 %
15.06.2016 08:34 12,2 C 95 % 1001,9 hPa 0,0 l/m 13,9 km/h (3 Bft) W-SW 240 0 min 0,000 mm 0,0 UV-I 76 W/m 11,4 C 8,2 C 19,3 km/h (3 Bft) 100,00 %
15.06.2016 08:35 12,2 C 95 % 1001,9 hPa 0,0 l/m 10,0 km/h (2 Bft) W-SW 248 0 min 0,000 mm 0,0 UV-I 76 W/m 11,4 C 10,0 C 14,5 km/h (3 Bft) 100,00 %
15.06.2016 08:36 12,2 C 95 % 1001,8 hPa 0,0 l/m 11,3 km/h (2 Bft) W-SW 238 0 min 0,000 mm 0,0 UV-I 76 W/m 11,4 C 9,4 C 17,7 km/h (3 Bft) 100,00 %
15.06.2016 08:37 12,2 C 94 % 1002,0 hPa 0,0 l/m 15,8 km/h (3 Bft) W-SW 238 0 min 0,000 mm 0,0 UV-I 76 W/m 11,3 C 7,5 C 19,3 km/h (3 Bft) 100,00 %
15.06.2016 08:38 12,2 C 95 % 1001,9 hPa 0,0 l/m 14,9 km/h (3 Bft) S 186 0 min 0,000 mm 0,0 UV-I 78 W/m 11,4 C 7,8 C 20,9 km/h (4 Bft) 100,00 %
15.06.2016 08:39 12,2 C 95 % 1001,9 hPa 0,0 l/m 9,4 km/h (2 Bft) SW 228 0 min 0,000 mm 0,0 UV-I 79 W/m 11,4 C 10,3 C 12,9 km/h (3 Bft) 97,56 %
15.06.2016 08:40 12,3 C 95 % 1001,8 hPa 0,0 l/m 9,0 km/h (2 Bft) SW 229 0 min 0,000 mm 0,0 UV-I 81 W/m 11,5 C 10,7 C 19,3 km/h (3 Bft) 100,00 %
15.06.2016 08:41 12,3 C 95 % 1001,9 hPa 0,0 l/m 15,1 km/h (3 Bft) SW 232 0 min 0,000 mm 0,0 UV-I 83 W/m 11,5 C 7,9 C 20,9 km/h (4 Bft) 100,00 %
15.06.2016 08:42 12,3 C 95 % 1001,9 hPa 0,0 l/m 12,9 km/h (3 Bft) SW 223 0 min 0,000 mm 0,0 UV-I 83 W/m 11,5 C 8,8 C 19,3 km/h (3 Bft) 100,00 %
15.06.2016 08:43 12,3 C 95 % 1001,9 hPa 0,0 l/m 9,0 km/h (2 Bft) W-SW 244 0 min 0,000 mm 0,0 UV-I 84 W/m 11,5 C 10,7 C 16,1 km/h (3 Bft) 100,00 %
15.06.2016 08:44 12,3 C 94 % 1001,9 hPa 0,0 l/m 7,9 km/h (2 Bft) W-SW 242 0 min 0,000 mm 0,0 UV-I 84 W/m 11,4 C 11,3 C 12,9 km/h (3 Bft) 100,00 %
15.06.2016 08:45 12,3 C 94 % 1001,9 hPa 0,0 l/m 8,4 km/h (2 Bft) S-SW 200 0 min 0,000 mm 0,0 UV-I 84 W/m 11,4 C 11,0 C 16,1 km/h (3 Bft) 95,65 %
15.06.2016 08:46 12,3 C 94 % 1001,9 hPa 0,0 l/m 12,9 km/h (3 Bft) SW 219 0 min 0,000 mm 0,0 UV-I 84 W/m 11,4 C 8,8 C 17,7 km/h (3 Bft) 100,00 %
15.06.2016 08:47 12,3 C 94 % 1001,9 hPa 0,0 l/m 11,3 km/h (2 Bft) W-SW 245 0 min 0,000 mm 0,0 UV-I 83 W/m 11,4 C 9,5 C 16,1 km/h (3 Bft) 100,00 %
15.06.2016 08:48 12,3 C 94 % 1001,9 hPa 0,0 l/m 12,1 km/h (2 Bft) W-SW 242 0 min 0,000 mm 0,0 UV-I 83 W/m 11,4 C 9,1 C 16,1 km/h (3 Bft) 100,00 %
15.06.2016 08:49 12,3 C 94 % 1001,9 hPa 0,0 l/m 11,2 km/h (2 Bft) S-SW 194 0 min 0,000 mm 0,0 UV-I 83 W/m 11,4 C 9,5 C 19,3 km/h (3 Bft) 100,00 %
15.06.2016 08:50 12,3 C 94 % 1001,9 hPa 0,0 l/m 10,9 km/h (2 Bft) SW 235 0 min 0,000 mm 0,0 UV-I 83 W/m 11,4 C 9,7 C 14,5 km/h (3 Bft) 96,30 %
15.06.2016 08:51 12,3 C 94 % 1001,9 hPa 0,2 l/m 13,6 km/h (3 Bft) W-SW 244 0 min 0,000 mm 0,0 UV-I 83 W/m 11,4 C 8,5 C 19,3 km/h (3 Bft) 100,00 %
15.06.2016 08:52 12,3 C 94 % 1002,0 hPa 0,0 l/m 12,5 km/h (3 Bft) S-SW 194 0 min 0,000 mm 0,0 UV-I 83 W/m 11,4 C 8,9 C 16,1 km/h (3 Bft) 100,00 %
15.06.2016 08:53 12,3 C 94 % 1002,0 hPa 0,0 l/m 12,7 km/h (3 Bft) SW 227 0 min 0,000 mm 0,0 UV-I 83 W/m 11,4 C 8,9 C 19,3 km/h (3 Bft) 100,00 %
15.06.2016 08:54 12,3 C 94 % 1002,0 hPa 0,0 l/m 10,4 km/h (2 Bft) S-SW 209 0 min 0,000 mm 0,0 UV-I 84 W/m 11,4 C 9,9 C 19,3 km/h (3 Bft) 100,00 %
15.06.2016 08:55 12,3 C 94 % 1002,0 hPa 0,0 l/m 10,3 km/h (2 Bft) SW 234 0 min 0,000 mm 0,0 UV-I 85 W/m 11,4 C 10,0 C 16,1 km/h (3 Bft) 100,00 %
15.06.2016 08:56 12,3 C 94 % 1001,9 hPa 0,0 l/m 13,5 km/h (3 Bft) SW 216 0 min 0,000 mm 0,0 UV-I 88 W/m 11,4 C 8,5 C 17,7 km/h (3 Bft) 100,00 %
15.06.2016 08:57 12,3 C 94 % 1002,0 hPa 0,0 l/m 13,1 km/h (3 Bft) SW 230 0 min 0,000 mm 0,0 UV-I 88 W/m 11,4 C 8,7 C 17,7 km/h (3 Bft) 96,55 %
15.06.2016 08:58 12,3 C 94 % 1002,1 hPa 0,0 l/m 13,8 km/h (3 Bft) SW 227 0 min 0,000 mm 0,0 UV-I 90 W/m 11,4 C 8,4 C 19,3 km/h (3 Bft) 100,00 %
15.06.2016 08:59 12,3 C 94 % 1002,0 hPa 0,0 l/m 9,6 km/h (2 Bft) SW 226 0 min 0,000 mm 0,0 UV-I 90 W/m 11,4 C 10,3 C 16,1 km/h (3 Bft) 100,00 %
15.06.2016 09:00 12,3 C 94 % 1002,0 hPa 0,0 l/m 9,7 km/h (2 Bft) S-SW 205 0 min 0,000 mm 0,0 UV-I 91 W/m 11,4 C 10,3 C 14,5 km/h (3 Bft) 96,15 %
15.06.2016 09:01 12,3 C 94 % 1002,0 hPa 0,0 l/m 12,6 km/h (3 Bft) SW 217 0 min 0,050 mm 0,0 UV-I 91 W/m 11,4 C 8,9 C 17,7 km/h (3 Bft) 100,00 %
15.06.2016 09:02 12,3 C 94 % 1002,0 hPa 0,0 l/m 12,7 km/h (3 Bft) SW 216 0 min 0,000 mm 0,0 UV-I 92 W/m 11,4 C 8,9 C 16,1 km/h (3 Bft) 95,65 %
15.06.2016 09:03 12,2 C 94 % 1002,0 hPa 0,0 l/m 11,2 km/h (2 Bft) SW 232 0 min 0,000 mm 0,0 UV-I 93 W/m 11,3 C 9,4 C 16,1 km/h (3 Bft) 95,83 %
15.06.2016 09:04 12,3 C 94 % 1002,0 hPa 0,2 l/m 9,6 km/h (2 Bft) W-SW 243 0 min 0,000 mm 0,0 UV-I 95 W/m 11,4 C 10,3 C 14,5 km/h (3 Bft) 100,00 %
15.06.2016 09:05 12,3 C 94 % 1002,0 hPa 0,0 l/m 8,8 km/h (2 Bft) W 265 0 min 0,000 mm 0,0 UV-I 95 W/m 11,4 C 10,8 C 14,5 km/h (3 Bft) 91,67 %
15.06.2016 09:06 12,3 C 94 % 1002,1 hPa 0,0 l/m 10,7 km/h (2 Bft) SW 230 0 min 0,000 mm 0,0 UV-I 95 W/m 11,4 C 9,8 C 16,1 km/h (3 Bft) 100,00 %
15.06.2016 09:07 12,3 C 94 % 1002,0 hPa 0,0 l/m 11,3 km/h (2 Bft) W-SW 247 0 min 0,000 mm 0,2 UV-I 95 W/m 11,4 C 9,5 C 16,1 km/h (3 Bft) 97,73 %
15.06.2016 09:08 12,3 C 94 % 1002,0 hPa 0,0 l/m 10,5 km/h (2 Bft) W-SW 248 0 min 0,000 mm 0,5 UV-I 95 W/m 11,4 C 9,9 C 16,1 km/h (3 Bft) 100,00 %
15.06.2016 09:09 12,3 C 94 % 1002,1 hPa 0,0 l/m 10,7 km/h (2 Bft) SW 224 0 min 0,000 mm 0,5 UV-I 95 W/m 11,4 C 9,8 C 16,1 km/h (3 Bft) 93,33 %
15.06.2016 09:10 12,3 C 94 % 1002,1 hPa 0,0 l/m 10,7 km/h (2 Bft) W-SW 242 0 min 0,000 mm 0,5 UV-I 96 W/m 11,4 C 9,8 C 12,9 km/h (3 Bft) 97,73 %
15.06.2016 09:11 12,3 C 94 % 1002,0 hPa 0,0 l/m 6,4 km/h (2 Bft) SW 220 0 min 0,000 mm 0,5 UV-I 97 W/m 11,4 C 12,3 C 9,7 km/h (2 Bft) 100,00 %
15.06.2016 09:12 12,3 C 94 % 1002,1 hPa 0,0 l/m 9,8 km/h (2 Bft) W-SW 250 0 min 0,000 mm 0,5 UV-I 97 W/m 11,4 C 10,2 C 14,5 km/h (3 Bft) 96,55 %
15.06.2016 09:13 12,2 C 94 % 1002,1 hPa 0,0 l/m 9,5 km/h (2 Bft) SW 215 0 min 0,000 mm 0,5 UV-I 97 W/m 11,3 C 10,3 C 14,5 km/h (3 Bft) 100,00 %
15.06.2016 09:14 12,3 C 94 % 1002,0 hPa 0,0 l/m 9,3 km/h (2 Bft) S-SW 204 0 min 0,000 mm 0,5 UV-I 97 W/m 11,4 C 10,5 C 14,5 km/h (3 Bft) 95,65 %
15.06.2016 09:15 12,2 C 94 % 1002,1 hPa 0,2 l/m 8,0 km/h (2 Bft) W-SW 257 0 min 0,000 mm 0,5 UV-I 95 W/m 11,3 C 11,2 C 14,5 km/h (3 Bft) 100,00 %
15.06.2016 09:16 12,2 C 94 % 1002,1 hPa 0,0 l/m 11,7 km/h (2 Bft) SW 215 0 min 0,000 mm 0,5 UV-I 95 W/m 11,3 C 9,2 C 17,7 km/h (3 Bft) 91,67 %
15.06.2016 09:17 12,2 C 94 % 1002,1 hPa 0,0 l/m 9,9 km/h (2 Bft) W-SW 251 0 min 0,000 mm 0,5 UV-I 95 W/m 11,3 C 10,1 C 14,5 km/h (3 Bft) 100,00 %
15.06.2016 09:18 12,2 C 94 % 1002,2 hPa 0,0 l/m 9,8 km/h (2 Bft) SW 219 0 min 0,000 mm 0,5 UV-I 95 W/m 11,3 C 10,1 C 16,1 km/h (3 Bft) 91,67 %
15.06.2016 09:19 12,2 C 94 % 1002,1 hPa 0,0 l/m 7,1 km/h (2 Bft) W-SW 247 0 min 0,000 mm 0,5 UV-I 95 W/m 11,3 C 11,7 C 12,9 km/h (3 Bft) 97,56 %
15.06.2016 09:20 12,2 C 94 % 1002,2 hPa 0,0 l/m 8,4 km/h (2 Bft) SW 217 0 min 0,000 mm 0,5 UV-I 96 W/m 11,3 C 10,9 C 12,9 km/h (3 Bft) 100,00 %
15.06.2016 09:21 12,2 C 94 % 1002,2 hPa 0,0 l/m 10,3 km/h (2 Bft) SW 224 0 min 0,000 mm 0,5 UV-I 97 W/m 11,3 C 9,9 C 14,5 km/h (3 Bft) 100,00 %
15.06.2016 09:22 12,2 C 94 % 1002,2 hPa 0,0 l/m 11,6 km/h (2 Bft) S-SW 208 0 min 0,000 mm 0,5 UV-I 97 W/m 11,3 C 9,2 C 14,5 km/h (3 Bft) 96,30 %
15.06.2016 09:23 12,2 C 94 % 1002,2 hPa 0,2 l/m 10,1 km/h (2 Bft) W-SW 256 0 min 0,000 mm 0,5 UV-I 97 W/m 11,3 C 10,0 C 14,5 km/h (3 Bft) 96,55 %
15.06.2016 09:24 12,2 C 94 % 1002,2 hPa 0,0 l/m 10,4 km/h (2 Bft) W-SW 242 0 min 0,000 mm 0,5 UV-I 96 W/m 11,3 C 9,8 C 12,9 km/h (3 Bft) 100,00 %
15.06.2016 09:25 12,2 C 94 % 1002,1 hPa 0,0 l/m 11,9 km/h (2 Bft) SW 220 0 min 0,000 mm 0,5 UV-I 95 W/m 11,3 C 9,1 C 14,5 km/h (3 Bft) 92,86 %
15.06.2016 09:26 12,2 C 94 % 1002,1 hPa 0,0 l/m 7,4 km/h (2 Bft) SW 225 0 min 0,000 mm 0,5 UV-I 95 W/m 11,3 C 11,5 C 11,3 km/h (2 Bft) 100,00 %
15.06.2016 09:27 12,2 C 94 % 1002,2 hPa 0,0 l/m 7,5 km/h (2 Bft) W-SW 246 0 min 0,000 mm 0,5 UV-I 93 W/m 11,3 C 11,5 C 11,3 km/h (2 Bft) 96,15 %
15.06.2016 09:28 12,2 C 94 % 1002,2 hPa 0,0 l/m 8,9 km/h (2 Bft) W-SW 246 0 min 0,000 mm 0,5 UV-I 91 W/m 11,3 C 10,6 C 12,9 km/h (3 Bft) 95,83 %
15.06.2016 09:29 12,2 C 94 % 1002,1 hPa 0,0 l/m 8,6 km/h (2 Bft) W-SW 241 0 min 0,000 mm 0,5 UV-I 91 W/m 11,3 C 10,8 C 14,5 km/h (3 Bft) 100,00 %
15.06.2016 09:30 12,2 C 94 % 1002,2 hPa 0,0 l/m 7,3 km/h (2 Bft) W-SW 238 0 min 0,000 mm 0,5 UV-I 90 W/m 11,3 C 11,6 C 11,3 km/h (2 Bft) 92,59 %
15.06.2016 09:31 12,2 C 94 % 1002,2 hPa 0,0 l/m 9,5 km/h (2 Bft) SW 224 0 min 0,000 mm 0,5 UV-I 89 W/m 11,3 C 10,3 C 11,3 km/h (2 Bft) 100,00 %
15.06.2016 09:32 12,3 C 94 % 1002,2 hPa 0,0 l/m 9,8 km/h (2 Bft) W-SW 250 0 min 0,000 mm 0,5 UV-I 88 W/m 11,4 C 10,2 C 14,5 km/h (3 Bft) 96,55 %
15.06.2016 09:33 12,2 C 94 % 1002,2 hPa 0,0 l/m 9,8 km/h (2 Bft) SW 223 0 min 0,000 mm 0,5 UV-I 88 W/m 11,3 C 10,1 C 14,5 km/h (3 Bft) 100,00 %
15.06.2016 09:34 12,2 C 94 % 1002,2 hPa 0,0 l/m 11,3 km/h (2 Bft) SW 215 0 min 0,000 mm 0,5 UV-I 88 W/m 11,3 C 9,4 C 16,1 km/h (3 Bft) 96,15 %
15.06.2016 09:35 12,2 C 94 % 1002,2 hPa 0,2 l/m 11,0 km/h (2 Bft) SW 223 0 min 0,000 mm 0,5 UV-I 89 W/m 11,3 C 9,5 C 16,1 km/h (3 Bft) 100,00 %
15.06.2016 09:36 12,2 C 94 % 1002,2 hPa 0,0 l/m 10,0 km/h (2 Bft) S-SW 212 0 min 0,000 mm 0,5 UV-I 90 W/m 11,3 C 10,0 C 14,5 km/h (3 Bft) 92,86 %
15.06.2016 09:37 12,2 C 94 % 1002,2 hPa 0,0 l/m 10,2 km/h (2 Bft) W-SW 244 0 min 0,000 mm 0,5 UV-I 90 W/m 11,3 C 9,9 C 12,9 km/h (3 Bft) 100,00 %
15.06.2016 09:38 12,2 C 94 % 1002,2 hPa 0,0 l/m 8,0 km/h (2 Bft) W-SW 246 0 min 0,000 mm 0,5 UV-I 91 W/m 11,3 C 11,2 C 12,9 km/h (3 Bft) 100,00 %
15.06.2016 09:39 12,2 C 94 % 1002,2 hPa 0,0 l/m 9,8 km/h (2 Bft) SW 222 0 min 0,000 mm 0,5 UV-I 91 W/m 11,3 C 10,1 C 12,9 km/h (3 Bft) 100,00 %
15.06.2016 09:40 12,2 C 94 % 1002,2 hPa 0,0 l/m 9,7 km/h (2 Bft) W-SW 240 0 min 0,000 mm 0,5 UV-I 92 W/m 11,3 C 10,2 C 12,9 km/h (3 Bft) 96,55 %
15.06.2016 09:41 12,2 C 94 % 1002,2 hPa 0,0 l/m 10,5 km/h (2 Bft) SW 234 0 min 0,000 mm 0,5 UV-I 93 W/m 11,3 C 9,8 C 14,5 km/h (3 Bft) 100,00 %
15.06.2016 09:42 12,2 C 94 % 1002,2 hPa 0,2 l/m 9,2 km/h (2 Bft) SW 230 0 min 0,000 mm 0,5 UV-I 93 W/m 11,3 C 10,5 C 11,3 km/h (2 Bft) 100,00 %
15.06.2016 09:43 12,3 C 94 % 1002,2 hPa 0,0 l/m 9,3 km/h (2 Bft) W-SW 243 0 min 0,000 mm 0,5 UV-I 93 W/m 11,4 C 10,5 C 11,3 km/h (2 Bft) 100,00 %
15.06.2016 09:44 12,3 C 94 % 1002,2 hPa 0,0 l/m 11,2 km/h (2 Bft) W-SW 248 0 min 0,000 mm 0,5 UV-I 93 W/m 11,4 C 9,5 C 14,5 km/h (3 Bft) 100,00 %
15.06.2016 09:45 12,3 C 94 % 1002,2 hPa 0,0 l/m 9,2 km/h (2 Bft) W-SW 239 0 min 0,000 mm 0,5 UV-I 93 W/m 11,4 C 10,6 C 11,3 km/h (2 Bft) 96,67 %
15.06.2016 09:46 12,2 C 94 % 1002,2 hPa 0,0 l/m 8,5 km/h (2 Bft) W-SW 258 0 min 0,000 mm 0,5 UV-I 91 W/m 11,3 C 10,9 C 12,9 km/h (3 Bft) 96,55 %
15.06.2016 09:47 12,3 C 94 % 1002,2 hPa 0,0 l/m 8,2 km/h (2 Bft) SW 234 0 min 0,000 mm 0,5 UV-I 90 W/m 11,4 C 11,1 C 11,3 km/h (2 Bft) 100,00 %
15.06.2016 09:48 12,3 C 95 % 1002,1 hPa 0,0 l/m 7,9 km/h (2 Bft) SW 218 0 min 0,000 mm 0,5 UV-I 90 W/m 11,5 C 11,3 C 11,3 km/h (2 Bft) 100,00 %
15.06.2016 09:49 12,3 C 95 % 1002,2 hPa 0,2 l/m 7,4 km/h (2 Bft) SW 227 0 min 0,000 mm 0,5 UV-I 89 W/m 11,5 C 11,6 C 11,3 km/h (2 Bft) 100,00 %
15.06.2016 09:50 12,3 C 95 % 1002,2 hPa 0,0 l/m 8,9 km/h (2 Bft) W 279 0 min 0,000 mm 0,5 UV-I 86 W/m 11,5 C 10,7 C 12,9 km/h (3 Bft) 100,00 %
15.06.2016 09:51 12,3 C 95 % 1002,2 hPa 0,0 l/m 8,5 km/h (2 Bft) SW 227 0 min 0,000 mm 0,5 UV-I 84 W/m 11,5 C 11,0 C 11,3 km/h (2 Bft) 96,30 %
15.06.2016 09:52 12,3 C 94 % 1002,2 hPa 0,0 l/m 10,1 km/h (2 Bft) W 261 0 min 0,000 mm 0,4 UV-I 82 W/m 11,4 C 10,1 C 14,5 km/h (3 Bft) 92,86 %
15.06.2016 09:53 12,3 C 95 % 1002,2 hPa 0,2 l/m 10,4 km/h (2 Bft) W 259 0 min 0,000 mm 0,0 UV-I 80 W/m 11,5 C 9,9 C 16,1 km/h (3 Bft) 96,67 %
15.06.2016 09:54 12,3 C 95 % 1002,2 hPa 0,0 l/m 9,0 km/h (2 Bft) SW 236 0 min 0,000 mm 0,0 UV-I 79 W/m 11,5 C 10,7 C 12,9 km/h (3 Bft) 100,00 %
15.06.2016 09:55 12,3 C 95 % 1002,3 hPa 0,0 l/m 8,1 km/h (2 Bft) S-SW 196 0 min 0,000 mm 0,0 UV-I 78 W/m 11,5 C 11,2 C 16,1 km/h (3 Bft) 100,00 %
15.06.2016 09:56 12,3 C 94 % 1002,3 hPa 0,0 l/m 9,6 km/h (2 Bft) SW 233 0 min 0,000 mm 0,0 UV-I 76 W/m 11,4 C 10,3 C 14,5 km/h (3 Bft) 100,00 %
15.06.2016 09:57 12,3 C 95 % 1002,2 hPa 0,2 l/m 7,5 km/h (2 Bft) SW 222 0 min 0,000 mm 0,0 UV-I 76 W/m 11,5 C 11,6 C 11,3 km/h (2 Bft) 95,12 %
15.06.2016 09:58 12,3 C 95 % 1002,2 hPa 0,0 l/m 6,8 km/h (2 Bft) W-SW 258 0 min 0,000 mm 0,0 UV-I 74 W/m 11,5 C 12,0 C 12,9 km/h (3 Bft) 91,67 %
15.06.2016 09:59 12,3 C 95 % 1002,3 hPa 0,0 l/m 9,5 km/h (2 Bft) W-SW 250 0 min 0,000 mm 0,0 UV-I 74 W/m 11,5 C 10,4 C 14,5 km/h (3 Bft) 100,00 %
15.06.2016 10:00 12,3 C 95 % 1002,3 hPa 0,0 l/m 8,6 km/h (2 Bft) W-SW 257 0 min 0,051 mm 0,0 UV-I 74 W/m 11,5 C 10,9 C 14,5 km/h (3 Bft) 100,00 %
15.06.2016 10:02 12,3 C 95 % 1002,3 hPa 0,2 l/m 9,3 km/h (2 Bft) SW 227 0 min 0,000 mm 0,0 UV-I 76 W/m 11,5 C 10,5 C 16,1 km/h (3 Bft) 100,00 %
15.06.2016 10:03 12,3 C 95 % 1002,2 hPa 0,0 l/m 11,6 km/h (2 Bft) SW 215 0 min 0,000 mm 0,0 UV-I 77 W/m 11,5 C 9,3 C 16,1 km/h (3 Bft) 100,00 %
15.06.2016 10:04 12,3 C 95 % 1002,4 hPa 0,0 l/m 12,4 km/h (3 Bft) W-SW 241 0 min 0,000 mm 0,0 UV-I 78 W/m 11,5 C 9,0 C 17,7 km/h (3 Bft) 100,00 %
15.06.2016 10:05 12,3 C 95 % 1002,3 hPa 0,0 l/m 8,7 km/h (2 Bft) S-SW 203 0 min 0,000 mm 0,5 UV-I 80 W/m 11,5 C 10,8 C 11,3 km/h (2 Bft) 100,00 %
15.06.2016 10:06 12,2 C 95 % 1002,4 hPa 0,0 l/m 8,6 km/h (2 Bft) SW 234 0 min 0,000 mm 0,5 UV-I 82 W/m 11,4 C 10,8 C 11,3 km/h (2 Bft) 100,00 %
15.06.2016 10:07 12,2 C 95 % 1002,4 hPa 0,0 l/m 8,7 km/h (2 Bft) S-SW 195 0 min 0,000 mm 0,5 UV-I 83 W/m 11,4 C 10,7 C 11,3 km/h (2 Bft) 100,00 %
15.06.2016 10:08 12,2 C 95 % 1002,4 hPa 0,2 l/m 10,1 km/h (2 Bft) S-SW 205 0 min 0,000 mm 0,5 UV-I 84 W/m 11,4 C 10,0 C 12,9 km/h (3 Bft) 100,00 %
15.06.2016 10:09 12,2 C 95 % 1002,4 hPa 0,0 l/m 9,2 km/h (2 Bft) SW 225 0 min 0,000 mm 0,5 UV-I 84 W/m 11,4 C 10,5 C 14,5 km/h (3 Bft) 100,00 %
15.06.2016 10:10 12,2 C 95 % 1002,4 hPa 0,0 l/m 11,1 km/h (2 Bft) W-SW 244 0 min 0,000 mm 0,5 UV-I 84 W/m 11,4 C 9,5 C 17,7 km/h (3 Bft) 100,00 %
15.06.2016 10:11 12,2 C 95 % 1002,4 hPa 0,0 l/m 8,2 km/h (2 Bft) S-SO 163 0 min 0,000 mm 0,5 UV-I 82 W/m 11,4 C 11,0 C 11,3 km/h (2 Bft) 100,00 %
15.06.2016 10:12 12,2 C 95 % 1002,4 hPa 0,0 l/m 9,7 km/h (2 Bft) W-SW 240 0 min 0,000 mm 0,5 UV-I 80 W/m 11,4 C 10,2 C 14,5 km/h (3 Bft) 100,00 %
15.06.2016 10:13 12,2 C 95 % 1002,5 hPa 0,0 l/m 10,1 km/h (2 Bft) SW 218 0 min 0,000 mm 0,5 UV-I 79 W/m 11,4 C 10,0 C 16,1 km/h (3 Bft) 100,00 %
15.06.2016 10:14 12,3 C 95 % 1002,4 hPa 0,0 l/m 9,0 km/h (2 Bft) SW 229 0 min 0,000 mm 0,5 UV-I 81 W/m 11,5 C 10,7 C 12,9 km/h (3 Bft) 100,00 %
15.06.2016 10:15 12,3 C 95 % 1002,4 hPa 0,0 l/m 11,1 km/h (2 Bft) SW 234 0 min 0,000 mm 0,5 UV-I 82 W/m 11,5 C 9,6 C 14,5 km/h (3 Bft) 100,00 %
15.06.2016 10:16 12,3 C 95 % 1002,5 hPa 0,2 l/m 6,4 km/h (2 Bft) S-SW 209 0 min 0,000 mm 0,5 UV-I 83 W/m 11,5 C 12,3 C 9,7 km/h (2 Bft) 100,00 %
15.06.2016 10:17 12,3 C 95 % 1002,5 hPa 0,0 l/m 8,3 km/h (2 Bft) SW 225 0 min 0,000 mm 0,5 UV-I 86 W/m 11,5 C 11,1 C 11,3 km/h (2 Bft) 96,88 %
15.06.2016 10:18 12,3 C 95 % 1002,4 hPa 0,0 l/m 10,5 km/h (2 Bft) W-SW 238 0 min 0,000 mm 0,5 UV-I 90 W/m 11,5 C 9,9 C 17,7 km/h (3 Bft) 100,00 %
15.06.2016 10:19 12,3 C 95 % 1002,4 hPa 0,0 l/m 11,2 km/h (2 Bft) W-SW 238 0 min 0,000 mm 0,6 UV-I 96 W/m 11,5 C 9,5 C 16,1 km/h (3 Bft) 93,33 %
15.06.2016 10:20 12,3 C 95 % 1002,4 hPa 0,0 l/m 10,4 km/h (2 Bft) SW 230 0 min 0,000 mm 0,6 UV-I 103 W/m 11,5 C 9,9 C 14,5 km/h (3 Bft) 100,00 %
15.06.2016 10:21 12,3 C 95 % 1002,4 hPa 0,0 l/m 10,9 km/h (2 Bft) SW 220 0 min 0,000 mm 0,6 UV-I 112 W/m 11,5 C 9,7 C 19,3 km/h (3 Bft) 100,00 %
15.06.2016 10:22 12,3 C 95 % 1002,4 hPa 0,0 l/m 14,4 km/h (3 Bft) SW 220 0 min 0,000 mm 0,7 UV-I 126 W/m 11,5 C 8,2 C 17,7 km/h (3 Bft) 100,00 %
15.06.2016 10:23 12,3 C 95 % 1002,4 hPa 0,2 l/m 11,2 km/h (2 Bft) SW 227 0 min 0,000 mm 0,8 UV-I 138 W/m 11,5 C 9,5 C 17,7 km/h (3 Bft) 100,00 %
15.06.2016 10:24 12,3 C 95 % 1002,5 hPa 0,0 l/m 11,4 km/h (2 Bft) W-SW 246 0 min 0,000 mm 0,9 UV-I 152 W/m 11,5 C 9,4 C 16,1 km/h (3 Bft) 95,65 %
15.06.2016 10:25 12,4 C 95 % 1002,5 hPa 0,0 l/m 12,8 km/h (3 Bft) SW 217 0 min 0,000 mm 1,0 UV-I 169 W/m 11,6 C 8,9 C 17,7 km/h (3 Bft) 100,00 %
15.06.2016 10:26 12,4 C 95 % 1002,4 hPa 0,0 l/m 6,2 km/h (2 Bft) W-SW 246 0 min 0,000 mm 1,1 UV-I 183 W/m 11,6 C 12,4 C 9,7 km/h (2 Bft) 100,00 %
15.06.2016 10:27 12,4 C 95 % 1002,3 hPa 0,0 l/m 6,0 km/h (2 Bft) SW 217 0 min 0,000 mm 1,2 UV-I 194 W/m 11,6 C 12,4 C 9,7 km/h (2 Bft) 100,00 %
15.06.2016 10:28 12,4 C 95 % 1002,3 hPa 0,0 l/m 5,7 km/h (1 Bft) SW 234 0 min 0,000 mm 1,2 UV-I 203 W/m 11,6 C 12,4 C 8,0 km/h (2 Bft) 100,00 %
15.06.2016 10:29 12,5 C 95 % 1002,3 hPa 0,2 l/m 6,0 km/h (2 Bft) SW 229 0 min 0,000 mm 1,2 UV-I 209 W/m 11,7 C 12,5 C 12,9 km/h (3 Bft) 100,00 %
15.06.2016 10:30 12,6 C 95 % 1002,3 hPa 0,0 l/m 5,3 km/h (1 Bft) W-SW 237 0 min 0,000 mm 1,3 UV-I 213 W/m 11,8 C 12,6 C 11,3 km/h (2 Bft) 95,65 %
15.06.2016 10:31 12,6 C 95 % 1002,3 hPa 0,0 l/m 8,6 km/h (2 Bft) SW 227 0 min 0,000 mm 1,3 UV-I 216 W/m 11,8 C 11,2 C 11,3 km/h (2 Bft) 100,00 %
15.06.2016 10:32 12,6 C 95 % 1002,3 hPa 0,0 l/m 4,5 km/h (1 Bft) W-SW 254 0 min 0,000 mm 1,3 UV-I 218 W/m 11,8 C 12,6 C 6,4 km/h (2 Bft) 100,00 %
15.06.2016 10:33 12,6 C 95 % 1002,3 hPa 0,0 l/m 5,0 km/h (1 Bft) SW 234 0 min 0,000 mm 1,3 UV-I 221 W/m 11,8 C 12,6 C 6,4 km/h (2 Bft) 100,00 %
15.06.2016 10:34 12,7 C 95 % 1002,2 hPa 0,0 l/m 5,4 km/h (1 Bft) S-SW 202 0 min 0,000 mm 1,3 UV-I 225 W/m 11,9 C 12,7 C 8,0 km/h (2 Bft) 100,00 %
15.06.2016 10:35 12,7 C 95 % 1002,2 hPa 0,0 l/m 6,1 km/h (2 Bft) S 190 0 min 0,000 mm 1,4 UV-I 231 W/m 11,9 C 12,7 C 9,7 km/h (2 Bft) 100,00 %
15.06.2016 10:36 12,7 C 95 % 1002,2 hPa 0,0 l/m 6,0 km/h (2 Bft) W-SW 246 0 min 0,000 mm 1,5 UV-I 239 W/m 11,9 C 12,7 C 8,0 km/h (2 Bft) 100,00 %
15.06.2016 10:37 12,8 C 95 % 1002,2 hPa 0,0 l/m 2,9 km/h (1 Bft) S 188 0 min 0,000 mm 1,5 UV-I 249 W/m 12,0 C 12,8 C 6,4 km/h (2 Bft) 95,65 %
15.06.2016 10:38 12,8 C 95 % 1002,2 hPa 0,0 l/m 6,2 km/h (2 Bft) S-SW 197 0 min 0,000 mm 1,6 UV-I 262 W/m 12,0 C 12,8 C 9,7 km/h (2 Bft) 100,00 %
15.06.2016 10:39 12,8 C 95 % 1002,2 hPa 0,0 l/m 4,8 km/h (1 Bft) S 182 0 min 0,000 mm 1,7 UV-I 273 W/m 12,0 C 12,8 C 8,0 km/h (2 Bft) 100,00 %
15.06.2016 10:40 12,9 C 95 % 1002,2 hPa 0,0 l/m 4,5 km/h (1 Bft) S 190 0 min 0,000 mm 1,8 UV-I 289 W/m 12,1 C 12,9 C 6,4 km/h (2 Bft) 100,00 %
15.06.2016 10:41 12,9 C 94 % 1002,2 hPa 0,0 l/m 6,2 km/h (2 Bft) S-SO 162 0 min 0,000 mm 2,0 UV-I 322 W/m 12,0 C 12,9 C 11,3 km/h (2 Bft) 100,00 %
15.06.2016 10:42 12,9 C 93 % 1002,1 hPa 0,0 l/m 8,2 km/h (2 Bft) W-SW 244 0 min 0,000 mm 2,1 UV-I 330 W/m 11,8 C 11,8 C 11,3 km/h (2 Bft) 100,00 %
15.06.2016 10:43 12,9 C 94 % 1002,1 hPa 0,0 l/m 4,9 km/h (1 Bft) SW 223 0 min 0,000 mm 2,1 UV-I 333 W/m 12,0 C 12,9 C 8,0 km/h (2 Bft) 98,74 %
15.06.2016 10:44 13,1 C 94 % 1002,2 hPa 0,0 l/m 6,8 km/h (2 Bft) S-SW 197 0 min 0,000 mm 2,3 UV-I 373 W/m 12,2 C 12,9 C 9,7 km/h (2 Bft) 100,00 %
15.06.2016 10:45 13,2 C 94 % 1002,1 hPa 0,0 l/m 4,8 km/h (1 Bft) S-SW 210 1 min 0,000 mm 2,6 UV-I 438 W/m 12,3 C 13,2 C 6,4 km/h (2 Bft) 100,00 %
15.06.2016 10:46 13,2 C 94 % 1002,1 hPa 0,0 l/m 4,7 km/h (1 Bft) S 185 1 min 0,000 mm 2,7 UV-I 463 W/m 12,3 C 13,2 C 8,0 km/h (2 Bft) 100,00 %
15.06.2016 10:47 13,3 C 93 % 1002,1 hPa 0,0 l/m 3,2 km/h (1 Bft) S 185 0 min 0,000 mm 2,6 UV-I 423 W/m 12,2 C 13,3 C 4,8 km/h (1 Bft) 95,65 %
15.06.2016 10:48 13,4 C 94 % 1002,2 hPa 0,0 l/m 6,7 km/h (2 Bft) SW 236 0 min 0,000 mm 2,6 UV-I 416 W/m 12,5 C 13,2 C 11,3 km/h (2 Bft) 100,00 %
15.06.2016 10:49 13,5 C 94 % 1002,2 hPa 0,0 l/m 8,9 km/h (2 Bft) SW 231 0 min 0,000 mm 2,6 UV-I 417 W/m 12,6 C 12,0 C 12,9 km/h (3 Bft) 100,00 %
15.06.2016 10:50 13,6 C 95 % 1002,3 hPa 0,0 l/m 10,2 km/h (2 Bft) W-SW 244 0 min 0,000 mm 2,6 UV-I 418 W/m 12,8 C 11,5 C 14,5 km/h (3 Bft) 100,00 %
15.06.2016 10:51 13,7 C 94 % 1002,2 hPa 0,0 l/m 8,7 km/h (2 Bft) S-SW 207 1 min 0,000 mm 2,7 UV-I 454 W/m 12,8 C 12,3 C 11,3 km/h (2 Bft) 100,00 %
15.06.2016 10:52 13,8 C 92 % 1002,3 hPa 0,0 l/m 7,6 km/h (2 Bft) S-SO 159 1 min 0,000 mm 2,9 UV-I 471 W/m 12,5 C 13,1 C 9,7 km/h (2 Bft) 100,00 %
15.06.2016 10:53 13,8 C 92 % 1002,3 hPa 0,0 l/m 6,9 km/h (2 Bft) S-SW 202 1 min 0,000 mm 2,8 UV-I 457 W/m 12,5 C 13,5 C 8,0 km/h (2 Bft) 96,15 %
15.06.2016 10:54 13,8 C 91 % 1002,3 hPa 0,0 l/m 7,0 km/h (2 Bft) SW 227 0 min 0,000 mm 2,8 UV-I 434 W/m 12,4 C 13,4 C 11,3 km/h (2 Bft) 100,00 %
15.06.2016 10:55 13,8 C 92 % 1002,3 hPa 0,0 l/m 5,6 km/h (1 Bft) S-SW 210 0 min 0,000 mm 2,8 UV-I 420 W/m 12,5 C 13,8 C 9,7 km/h (2 Bft) 100,00 %
15.06.2016 10:56 13,8 C 91 % 1002,3 hPa 0,0 l/m 6,5 km/h (2 Bft) SW 236 0 min 0,000 mm 2,9 UV-I 438 W/m 12,4 C 13,8 C 11,3 km/h (2 Bft) 100,00 %
15.06.2016 10:57 13,9 C 92 % 1002,2 hPa 0,0 l/m 7,1 km/h (2 Bft) SW 233 1 min 0,000 mm 3,1 UV-I 469 W/m 12,6 C 13,5 C 11,3 km/h (2 Bft) 100,00 %
15.06.2016 10:58 13,9 C 91 % 1002,2 hPa 0,0 l/m 2,7 km/h (1 Bft) S-SO 157 1 min 0,000 mm 3,3 UV-I 485 W/m 12,5 C 13,9 C 4,8 km/h (1 Bft) 100,00 %
15.06.2016 10:59 13,9 C 91 % 1002,1 hPa 0,0 l/m 5,4 km/h (1 Bft) SW 221 1 min 0,000 mm 3,2 UV-I 485 W/m 12,5 C 13,9 C 8,0 km/h (2 Bft) 93,33 %
15.06.2016 11:00 14,0 C 91 % 1002,2 hPa 0,0 l/m 5,4 km/h (1 Bft) S 186 1 min 0,000 mm 3,0 UV-I 485 W/m 12,6 C 14,0 C 6,4 km/h (2 Bft) 86,96 %
15.06.2016 11:02 14,1 C 90 % 1002,2 hPa 0,0 l/m 11,4 km/h (2 Bft) S 187 2 min 0,127 mm 3,1 UV-I 502 W/m 12,5 C 11,5 C 19,3 km/h (3 Bft) 97,78 %
15.06.2016 11:03 14,2 C 89 % 1002,2 hPa 0,0 l/m 13,3 km/h (3 Bft) S-SW 199 1 min 0,000 mm 3,0 UV-I 485 W/m 12,4 C 10,8 C 16,1 km/h (3 Bft) 100,00 %
15.06.2016 11:04 14,2 C 89 % 1002,1 hPa 0,0 l/m 11,8 km/h (2 Bft) SW 224 1 min 0,000 mm 3,3 UV-I 526 W/m 12,4 C 11,4 C 17,7 km/h (3 Bft) 96,15 %
15.06.2016 11:05 14,3 C 89 % 1002,2 hPa 0,0 l/m 11,7 km/h (2 Bft) SW 227 1 min 0,000 mm 4,0 UV-I 646 W/m 12,5 C 11,6 C 16,1 km/h (3 Bft) 100,00 %
15.06.2016 11:06 14,3 C 88 % 1002,1 hPa 0,0 l/m 8,2 km/h (2 Bft) S-SW 207 1 min 0,000 mm 4,0 UV-I 700 W/m 12,3 C 13,3 C 12,9 km/h (3 Bft) 88,46 %
15.06.2016 11:07 14,3 C 88 % 1002,2 hPa 0,0 l/m 9,8 km/h (2 Bft) SW 220 1 min 0,000 mm 3,9 UV-I 701 W/m 12,3 C 12,4 C 12,9 km/h (3 Bft) 93,33 %
15.06.2016 11:08 14,4 C 89 % 1002,2 hPa 0,0 l/m 10,3 km/h (2 Bft) SW 220 1 min 0,000 mm 3,5 UV-I 679 W/m 12,6 C 12,3 C 14,5 km/h (3 Bft) 100,00 %
15.06.2016 11:09 14,4 C 88 % 1002,2 hPa 0,0 l/m 10,4 km/h (2 Bft) S-SW 200 1 min 0,000 mm 3,2 UV-I 475 W/m 12,4 C 12,3 C 14,5 km/h (3 Bft) 96,30 %
15.06.2016 11:10 14,4 C 86 % 1002,2 hPa 0,0 l/m 8,0 km/h (2 Bft) S 170 0 min 0,000 mm 3,0 UV-I 416 W/m 12,1 C 13,5 C 11,3 km/h (2 Bft) 100,00 %
15.06.2016 11:11 14,5 C 86 % 1002,2 hPa 0,0 l/m 10,4 km/h (2 Bft) SW 221 0 min 0,000 mm 3,0 UV-I 405 W/m 12,2 C 12,4 C 17,7 km/h (3 Bft) 91,67 %
15.06.2016 11:12 14,5 C 87 % 1002,1 hPa 0,0 l/m 7,8 km/h (2 Bft) SW 232 0 min 0,000 mm 3,2 UV-I 453 W/m 12,4 C 13,7 C 11,3 km/h (2 Bft) 86,96 %
15.06.2016 11:13 14,5 C 87 % 1002,1 hPa 0,0 l/m 8,9 km/h (2 Bft) S 181 1 min 0,000 mm 3,4 UV-I 491 W/m 12,4 C 13,1 C 14,5 km/h (3 Bft) 100,00 %
15.06.2016 11:14 14,6 C 89 % 1002,1 hPa 0,0 l/m 7,5 km/h (2 Bft) SW 214 1 min 0,000 mm 3,3 UV-I 465 W/m 12,8 C 14,0 C 9,7 km/h (2 Bft) 96,15 %
15.06.2016 11:15 14,6 C 88 % 1002,1 hPa 0,0 l/m 5,2 km/h (1 Bft) W-SW 248 0 min 0,000 mm 3,2 UV-I 435 W/m 12,6 C 14,6 C 9,7 km/h (2 Bft) 100,00 %
15.06.2016 11:16 14,7 C 88 % 1002,1 hPa 0,0 l/m 5,5 km/h (1 Bft) W-SW 255 1 min 0,000 mm 3,5 UV-I 471 W/m 12,7 C 14,7 C 8,0 km/h (2 Bft) 95,65 %
15.06.2016 11:17 14,7 C 89 % 1002,1 hPa 0,0 l/m 6,1 km/h (2 Bft) W-SW 246 1 min 0,000 mm 3,8 UV-I 496 W/m 12,9 C 14,7 C 8,0 km/h (2 Bft) 100,00 %
15.06.2016 11:18 14,8 C 90 % 1002,1 hPa 0,0 l/m 4,7 km/h (1 Bft) W 262 1 min 0,000 mm 4,3 UV-I 496 W/m 13,2 C 14,8 C 6,4 km/h (2 Bft) 96,67 %
15.06.2016 11:19 15,0 C 90 % 1002,1 hPa 0,0 l/m 5,3 km/h (1 Bft) W-SW 251 1 min 0,000 mm 4,1 UV-I 592 W/m 13,4 C 15,0 C 9,7 km/h (2 Bft) 96,15 %
15.06.2016 11:20 15,1 C 88 % 1002,1 hPa 0,0 l/m 6,1 km/h (2 Bft) SW 234 1 min 0,000 mm 4,0 UV-I 586 W/m 13,1 C 15,1 C 9,7 km/h (2 Bft) 92,59 %
15.06.2016 11:21 15,1 C 87 % 1002,1 hPa 0,0 l/m 5,0 km/h (1 Bft) W-SW 253 1 min 0,000 mm 4,2 UV-I 682 W/m 13,0 C 15,1 C 8,0 km/h (2 Bft) 100,00 %
15.06.2016 11:22 15,2 C 87 % 1002,1 hPa 0,0 l/m 5,5 km/h (1 Bft) S-SW 201 1 min 0,000 mm 4,3 UV-I 722 W/m 13,0 C 15,2 C 9,7 km/h (2 Bft) 95,83 %
15.06.2016 11:23 15,2 C 83 % 1002,1 hPa 0,0 l/m 5,1 km/h (1 Bft) S 169 1 min 0,000 mm 4,2 UV-I 635 W/m 12,3 C 15,2 C 9,7 km/h (2 Bft) 96,15 %
15.06.2016 11:24 15,1 C 82 % 1002,1 hPa 0,0 l/m 5,6 km/h (1 Bft) S 178 1 min 0,000 mm 4,4 UV-I 598 W/m 12,0 C 15,1 C 8,0 km/h (2 Bft) 100,00 %
15.06.2016 11:25 15,1 C 84 % 1002,2 hPa 0,0 l/m 7,8 km/h (2 Bft) W-SW 247 1 min 0,000 mm 4,3 UV-I 642 W/m 12,4 C 14,3 C 9,7 km/h (2 Bft) 94,12 %
15.06.2016 11:26 15,1 C 84 % 1002,2 hPa 0,0 l/m 8,0 km/h (2 Bft) SW 231 1 min 0,000 mm 4,0 UV-I 598 W/m 12,4 C 14,2 C 14,5 km/h (3 Bft) 100,00 %
15.06.2016 11:27 15,1 C 86 % 1002,2 hPa 0,0 l/m 6,5 km/h (2 Bft) SW 233 1 min 0,000 mm 4,0 UV-I 572 W/m 12,8 C 15,1 C 11,3 km/h (2 Bft) 95,65 %
15.06.2016 11:28 15,2 C 84 % 1002,2 hPa 0,0 l/m 8,2 km/h (2 Bft) S-SO 159 1 min 0,000 mm 4,0 UV-I 615 W/m 12,5 C 14,2 C 9,7 km/h (2 Bft) 100,00 %
15.06.2016 11:29 15,2 C 85 % 1002,2 hPa 0,0 l/m 7,9 km/h (2 Bft) W-SW 257 1 min 0,000 mm 4,4 UV-I 686 W/m 12,7 C 14,4 C 9,7 km/h (2 Bft) 96,15 %
15.06.2016 11:30 15,3 C 85 % 1002,3 hPa 0,0 l/m 6,6 km/h (2 Bft) S-SO 159 1 min 0,000 mm 4,3 UV-I 691 W/m 12,8 C 15,2 C 11,3 km/h (2 Bft) 91,67 %
15.06.2016 11:31 15,3 C 84 % 1002,2 hPa 0,0 l/m 8,1 km/h (2 Bft) S-SW 192 1 min 0,000 mm 4,5 UV-I 753 W/m 12,6 C 14,4 C 11,3 km/h (2 Bft) 100,00 %
15.06.2016 11:32 15,5 C 87 % 1002,2 hPa 0,0 l/m 8,0 km/h (2 Bft) S-SW 198 1 min 0,000 mm 4,4 UV-I 694 W/m 13,3 C 14,6 C 11,3 km/h (2 Bft) 94,44 %
15.06.2016 11:33 15,6 C 83 % 1002,3 hPa 0,0 l/m 7,2 km/h (2 Bft) S 188 1 min 0,000 mm 4,2 UV-I 624 W/m 12,7 C 15,2 C 11,3 km/h (2 Bft) 100,00 %
15.06.2016 11:34 15,6 C 82 % 1002,3 hPa 0,0 l/m 12,0 km/h (2 Bft) S-SW 209 1 min 0,000 mm 3,8 UV-I 563 W/m 12,5 C 13,0 C 14,5 km/h (3 Bft) 100,00 %
15.06.2016 11:35 15,6 C 82 % 1002,3 hPa 0,0 l/m 11,3 km/h (2 Bft) W 269 1 min 0,000 mm 3,6 UV-I 507 W/m 12,5 C 13,2 C 20,9 km/h (4 Bft) 100,00 %
15.06.2016 11:36 15,6 C 84 % 1002,3 hPa 0,0 l/m 8,6 km/h (2 Bft) W 273 0 min 0,000 mm 3,4 UV-I 466 W/m 12,9 C 14,4 C 14,5 km/h (3 Bft) 100,00 %
15.06.2016 11:37 15,7 C 85 % 1002,3 hPa 0,0 l/m 5,5 km/h (1 Bft) W-SW 258 0 min 0,000 mm 3,4 UV-I 456 W/m 13,2 C 15,7 C 16,1 km/h (3 Bft) 100,00 %
15.06.2016 11:38 15,7 C 83 % 1002,3 hPa 0,0 l/m 12,1 km/h (2 Bft) W-SW 252 0 min 0,000 mm 3,5 UV-I 466 W/m 12,8 C 13,0 C 16,1 km/h (3 Bft) 100,00 %
15.06.2016 11:39 15,7 C 81 % 1002,3 hPa 0,0 l/m 8,4 km/h (2 Bft) W 279 1 min 0,000 mm 3,7 UV-I 492 W/m 12,4 C 14,6 C 14,5 km/h (3 Bft) 100,00 %
15.06.2016 11:40 15,7 C 85 % 1002,3 hPa 0,0 l/m 9,4 km/h (2 Bft) SW 234 1 min 0,000 mm 4,2 UV-I 512 W/m 13,2 C 14,2 C 14,5 km/h (3 Bft) 95,65 %
15.06.2016 11:41 15,7 C 82 % 1002,3 hPa 0,0 l/m 10,4 km/h (2 Bft) S 171 1 min 0,000 mm 4,5 UV-I 512 W/m 12,6 C 13,7 C 16,1 km/h (3 Bft) 95,83 %
15.06.2016 11:42 15,7 C 80 % 1002,3 hPa 0,0 l/m 9,0 km/h (2 Bft) W 259 1 min 0,000 mm 4,3 UV-I 535 W/m 12,3 C 14,3 C 12,9 km/h (3 Bft) 100,00 %
15.06.2016 11:43 15,8 C 82 % 1002,2 hPa 0,0 l/m 6,1 km/h (2 Bft) SW 226 1 min 0,000 mm 4,7 UV-I 664 W/m 12,7 C 15,8 C 9,7 km/h (2 Bft) 100,00 %
15.06.2016 11:44 15,8 C 81 % 1002,2 hPa 0,0 l/m 8,6 km/h (2 Bft) S-SW 212 1 min 0,000 mm 5,3 UV-I 736 W/m 12,5 C 14,6 C 11,3 km/h (2 Bft) 100,00 %
15.06.2016 11:45 15,9 C 83 % 1002,2 hPa 0,0 l/m 9,9 km/h (2 Bft) SW 230 1 min 0,000 mm 5,7 UV-I 856 W/m 13,0 C 14,2 C 17,7 km/h (3 Bft) 100,00 %
15.06.2016 11:46 16,0 C 79 % 1002,3 hPa 0,0 l/m 10,1 km/h (2 Bft) W-SW 241 1 min 0,000 mm 5,8 UV-I 897 W/m 12,4 C 14,2 C 14,5 km/h (3 Bft) 100,00 %
15.06.2016 11:47 16,1 C 80 % 1002,2 hPa 0,0 l/m 9,5 km/h (2 Bft) W-SW 253 1 min 0,000 mm 5,3 UV-I 838 W/m 12,6 C 14,6 C 12,9 km/h (3 Bft) 100,00 %
15.06.2016 11:48 16,2 C 80 % 1002,3 hPa 0,0 l/m 8,4 km/h (2 Bft) W-SW 238 1 min 0,000 mm 5,7 UV-I 838 W/m 12,7 C 15,2 C 12,9 km/h (3 Bft) 100,00 %
15.06.2016 11:49 16,4 C 85 % 1002,2 hPa 0,0 l/m 9,9 km/h (2 Bft) SW 234 1 min 0,000 mm 5,9 UV-I 971 W/m 13,9 C 14,7 C 14,5 km/h (3 Bft) 100,00 %
15.06.2016 11:50 16,6 C 83 % 1002,2 hPa 0,0 l/m 11,7 km/h (2 Bft) W-SW 242 1 min 0,000 mm 6,0 UV-I 980 W/m 13,7 C 14,2 C 19,3 km/h (3 Bft) 100,00 %
15.06.2016 11:51 16,6 C 77 % 1002,3 hPa 0,0 l/m 10,8 km/h (2 Bft) W-SW 242 1 min 0,000 mm 6,0 UV-I 975 W/m 12,5 C 14,6 C 17,7 km/h (3 Bft) 100,00 %
15.06.2016 11:52 16,6 C 79 % 1002,2 hPa 0,0 l/m 6,0 km/h (2 Bft) W-SW 243 1 min 0,000 mm 6,0 UV-I 974 W/m 12,9 C 16,6 C 9,7 km/h (2 Bft) 100,00 %
15.06.2016 11:53 16,7 C 79 % 1002,2 hPa 0,0 l/m 5,7 km/h (1 Bft) S 179 1 min 0,000 mm 6,1 UV-I 950 W/m 13,0 C 16,7 C 8,0 km/h (2 Bft) 100,00 %
15.06.2016 11:54 16,7 C 79 % 1002,2 hPa 0,0 l/m 12,4 km/h (3 Bft) SW 229 1 min 0,000 mm 6,0 UV-I 946 W/m 13,0 C 14,1 C 16,1 km/h (3 Bft) 100,00 %
15.06.2016 11:55 16,8 C 78 % 1002,2 hPa 0,0 l/m 13,6 km/h (3 Bft) SW 215 1 min 0,000 mm 5,8 UV-I 954 W/m 12,9 C 13,8 C 17,7 km/h (3 Bft) 97,56 %
15.06.2016 11:56 16,8 C 75 % 1002,3 hPa 0,0 l/m 10,9 km/h (2 Bft) W 259 1 min 0,000 mm 6,2 UV-I 983 W/m 12,3 C 14,8 C 17,7 km/h (3 Bft) 100,00 %
15.06.2016 11:57 16,9 C 75 % 1002,3 hPa 0,0 l/m 10,1 km/h (2 Bft) SW 234 1 min 0,000 mm 6,4 UV-I 1004 W/m 12,4 C 15,2 C 16,1 km/h (3 Bft) 100,00 %
15.06.2016 11:58 16,8 C 74 % 1002,3 hPa 0,0 l/m 13,5 km/h (3 Bft) SW 236 1 min 0,000 mm 6,2 UV-I 897 W/m 12,1 C 13,8 C 19,3 km/h (3 Bft) 100,00 %
15.06.2016 11:59 16,8 C 75 % 1002,3 hPa 0,0 l/m 10,3 km/h (2 Bft) W-SW 257 1 min 0,000 mm 6,2 UV-I 950 W/m 12,3 C 15,0 C 12,9 km/h (3 Bft) 100,00 %
15.06.2016 12:00 16,8 C 74 % 1002,2 hPa 0,0 l/m 10,7 km/h (2 Bft) W-SW 252 1 min 0,381 mm 6,2 UV-I 971 W/m 12,1 C 14,8 C 14,5 km/h (3 Bft) 100,00 %
15.06.2016 12:02 16,9 C 77 % 1002,3 hPa 0,0 l/m 9,5 km/h (2 Bft) SW 228 2 min 0,000 mm 5,9 UV-I 942 W/m 12,8 C 15,4 C 16,1 km/h (3 Bft) 100,00 %
15.06.2016 12:03 17,0 C 77 % 1002,3 hPa 0,0 l/m 8,2 km/h (2 Bft) W-NW 293 1 min 0,000 mm 6,2 UV-I 920 W/m 12,9 C 16,1 C 11,3 km/h (2 Bft) 100,00 %
15.06.2016 12:04 17,0 C 77 % 1002,2 hPa 0,0 l/m 9,7 km/h (2 Bft) W 260 1 min 0,000 mm 5,4 UV-I 905 W/m 12,9 C 15,4 C 14,5 km/h (3 Bft) 100,00 %
15.06.2016 12:05 17,0 C 75 % 1002,3 hPa 0,0 l/m 7,9 km/h (2 Bft) W 271 1 min 0,000 mm 4,6 UV-I 905 W/m 12,5 C 16,2 C 14,5 km/h (3 Bft) 100,00 %
15.06.2016 12:06 16,9 C 76 % 1002,3 hPa 0,0 l/m 9,3 km/h (2 Bft) W-SW 253 1 min 0,000 mm 4,5 UV-I 570 W/m 12,6 C 15,5 C 17,7 km/h (3 Bft) 86,67 %
15.06.2016 12:07 16,9 C 74 % 1002,3 hPa 0,0 l/m 7,4 km/h (2 Bft) W-NW 290 1 min 0,000 mm 4,3 UV-I 575 W/m 12,2 C 16,4 C 14,5 km/h (3 Bft) 100,00 %
15.06.2016 12:08 16,9 C 76 % 1002,3 hPa 0,0 l/m 4,7 km/h (1 Bft) W-NW 290 1 min 0,000 mm 4,5 UV-I 612 W/m 12,6 C 16,9 C 8,0 km/h (2 Bft) 100,00 %
15.06.2016 12:09 16,9 C 77 % 1002,3 hPa 0,0 l/m 9,8 km/h (2 Bft) SW 215 1 min 0,000 mm 4,5 UV-I 620 W/m 12,8 C 15,3 C 14,5 km/h (3 Bft) 100,00 %
15.06.2016 12:10 16,9 C 73 % 1002,3 hPa 0,0 l/m 12,3 km/h (3 Bft) W-SW 247 1 min 0,000 mm 4,5 UV-I 603 W/m 12,0 C 14,4 C 20,9 km/h (4 Bft) 100,00 %
15.06.2016 12:11 16,9 C 73 % 1002,3 hPa 0,0 l/m 14,6 km/h (3 Bft) W-SW 252 1 min 0,000 mm 4,5 UV-I 602 W/m 12,0 C 13,6 C 22,5 km/h (4 Bft) 100,00 %
15.06.2016 12:12 16,9 C 74 % 1002,3 hPa 0,0 l/m 11,0 km/h (2 Bft) W-NW 282 1 min 0,000 mm 4,7 UV-I 581 W/m 12,2 C 14,8 C 14,5 km/h (3 Bft) 100,00 %
15.06.2016 12:13 16,9 C 75 % 1002,3 hPa 0,0 l/m 7,4 km/h (2 Bft) W 263 1 min 0,000 mm 4,5 UV-I 586 W/m 12,4 C 16,4 C 11,3 km/h (2 Bft) 100,00 %
15.06.2016 12:14 16,9 C 75 % 1002,3 hPa 0,0 l/m 8,2 km/h (2 Bft) W 265 1 min 0,000 mm 4,6 UV-I 566 W/m 12,4 C 16,0 C 11,3 km/h (2 Bft) 100,00 %
15.06.2016 12:15 16,8 C 71 % 1002,3 hPa 0,0 l/m 10,0 km/h (2 Bft) S 181 1 min 0,000 mm 5,1 UV-I 566 W/m 11,5 C 15,1 C 14,5 km/h (3 Bft) 100,00 %
15.06.2016 12:16 16,8 C 76 % 1002,2 hPa 0,0 l/m 7,7 km/h (2 Bft) SW 231 1 min 0,000 mm 5,1 UV-I 566 W/m 12,5 C 16,1 C 12,9 km/h (3 Bft) 96,88 %
15.06.2016 12:17 16,9 C 78 % 1002,3 hPa 0,0 l/m 9,1 km/h (2 Bft) W-SW 252 1 min 0,000 mm 5,4 UV-I 774 W/m 13,0 C 15,6 C 16,1 km/h (3 Bft) 100,00 %
15.06.2016 12:18 16,9 C 73 % 1002,3 hPa 0,0 l/m 9,7 km/h (2 Bft) W-SW 244 1 min 0,000 mm 5,8 UV-I 851 W/m 12,0 C 15,3 C 12,9 km/h (3 Bft) 100,00 %
15.06.2016 12:19 17,0 C 73 % 1002,3 hPa 0,0 l/m 8,6 km/h (2 Bft) SW 234 1 min 0,000 mm 4,9 UV-I 766 W/m 12,1 C 15,9 C 12,9 km/h (3 Bft) 100,00 %
15.06.2016 12:20 17,0 C 74 % 1002,3 hPa 0,0 l/m 5,6 km/h (1 Bft) W-NW 286 1 min 0,000 mm 4,6 UV-I 630 W/m 12,3 C 17,0 C 14,5 km/h (3 Bft) 100,00 %
15.06.2016 12:21 17,1 C 74 % 1002,2 hPa 0,0 l/m 3,3 km/h (1 Bft) S 170 1 min 0,000 mm 4,7 UV-I 603 W/m 12,4 C 17,1 C 8,0 km/h (2 Bft) 100,00 %
15.06.2016 12:22 17,1 C 76 % 1002,2 hPa 0,0 l/m 5,3 km/h (1 Bft) W-SW 237 1 min 0,000 mm 4,9 UV-I 674 W/m 12,8 C 17,1 C 9,7 km/h (2 Bft) 100,00 %
15.06.2016 12:23 17,2 C 74 % 1002,2 hPa 0,0 l/m 11,4 km/h (2 Bft) S 188 1 min 0,000 mm 5,2 UV-I 741 W/m 12,5 C 15,0 C 14,5 km/h (3 Bft) 100,00 %
15.06.2016 12:24 17,1 C 72 % 1002,2 hPa 0,0 l/m 7,0 km/h (2 Bft) S-SW 207 1 min 0,000 mm 5,0 UV-I 700 W/m 12,0 C 16,8 C 11,3 km/h (2 Bft) 100,00 %
15.06.2016 12:25 17,2 C 74 % 1002,2 hPa 0,0 l/m 4,8 km/h (1 Bft) W 269 1 min 0,000 mm 5,1 UV-I 703 W/m 12,5 C 17,2 C 6,4 km/h (2 Bft) 95,83 %
15.06.2016 12:26 17,2 C 72 % 1002,2 hPa 0,0 l/m 4,0 km/h (1 Bft) W-SW 242 1 min 0,000 mm 4,7 UV-I 657 W/m 12,1 C 17,2 C 9,7 km/h (2 Bft) 92,31 %
15.06.2016 12:27 17,2 C 73 % 1002,2 hPa 0,0 l/m 1,5 km/h (1 Bft) W-SW 242 1 min 0,000 mm 4,5 UV-I 629 W/m 12,3 C 17,2 C 3,2 km/h (1 Bft) 100,00 %
15.06.2016 12:28 17,2 C 73 % 1002,2 hPa 0,0 l/m 4,0 km/h (1 Bft) W-SW 244 1 min 0,000 mm 4,4 UV-I 612 W/m 12,3 C 17,2 C 6,4 km/h (2 Bft) 100,00 %
15.06.2016 12:29 17,2 C 73 % 1002,3 hPa 0,0 l/m 4,8 km/h (1 Bft) W 260 1 min 0,000 mm 4,5 UV-I 608 W/m 12,3 C 17,2 C 8,0 km/h (2 Bft) 93,33 %
15.06.2016 12:30 17,3 C 77 % 1002,2 hPa 0,0 l/m 4,7 km/h (1 Bft) W 273 1 min 0,000 mm 4,4 UV-I 608 W/m 13,2 C 17,3 C 9,7 km/h (2 Bft) 95,65 %
15.06.2016 12:31 17,3 C 76 % 1002,2 hPa 0,0 l/m 9,1 km/h (2 Bft) SW 217 1 min 0,000 mm 4,6 UV-I 631 W/m 13,0 C 16,0 C 14,5 km/h (3 Bft) 100,00 %
15.06.2016 12:32 17,4 C 74 % 1002,2 hPa 0,0 l/m 9,4 km/h (2 Bft) S-SW 207 1 min 0,000 mm 4,6 UV-I 633 W/m 12,7 C 16,0 C 14,5 km/h (3 Bft) 100,00 %
15.06.2016 12:33 17,3 C 73 % 1002,2 hPa 0,0 l/m 11,0 km/h (2 Bft) W-SW 257 1 min 0,000 mm 4,6 UV-I 642 W/m 12,4 C 15,3 C 14,5 km/h (3 Bft) 96,15 %
15.06.2016 12:34 17,4 C 74 % 1002,2 hPa 0,0 l/m 11,0 km/h (2 Bft) W-SW 244 1 min 0,000 mm 4,8 UV-I 663 W/m 12,7 C 15,4 C 14,5 km/h (3 Bft) 96,15 %
15.06.2016 12:35 17,4 C 75 % 1002,2 hPa 0,0 l/m 10,7 km/h (2 Bft) W-SW 245 1 min 0,000 mm 4,7 UV-I 658 W/m 12,9 C 15,5 C 14,5 km/h (3 Bft) 100,00 %
15.06.2016 12:36 17,4 C 74 % 1002,2 hPa 0,0 l/m 11,2 km/h (2 Bft) SW 236 1 min 0,000 mm 4,6 UV-I 641 W/m 12,7 C 15,3 C 14,5 km/h (3 Bft) 100,00 %
15.06.2016 12:37 17,3 C 72 % 1002,2 hPa 0,0 l/m 10,1 km/h (2 Bft) W-SW 251 1 min 0,000 mm 4,6 UV-I 635 W/m 12,2 C 15,6 C 16,1 km/h (3 Bft) 100,00 %
15.06.2016 12:38 17,3 C 73 % 1002,3 hPa 0,0 l/m 5,4 km/h (1 Bft) SW 234 1 min 0,000 mm 4,7 UV-I 651 W/m 12,4 C 17,3 C 9,7 km/h (2 Bft) 100,00 %
15.06.2016 12:39 17,3 C 73 % 1002,2 hPa 0,0 l/m 4,9 km/h (1 Bft) W 259 1 min 0,000 mm 4,5 UV-I 629 W/m 12,4 C 17,3 C 9,7 km/h (2 Bft) 100,00 %
15.06.2016 12:40 17,3 C 72 % 1002,3 hPa 0,0 l/m 7,5 km/h (2 Bft) SW 219 1 min 0,000 mm 4,6 UV-I 640 W/m 12,2 C 16,8 C 11,3 km/h (2 Bft) 100,00 %
15.06.2016 12:41 17,3 C 73 % 1002,3 hPa 0,0 l/m 7,1 km/h (2 Bft) SW 225 1 min 0,000 mm 4,5 UV-I 629 W/m 12,4 C 17,0 C 9,7 km/h (2 Bft) 95,65 %
15.06.2016 12:42 17,3 C 73 % 1002,3 hPa 0,0 l/m 6,6 km/h (2 Bft) W-SW 248 1 min 0,000 mm 4,4 UV-I 617 W/m 12,4 C 17,2 C 11,3 km/h (2 Bft) 95,83 %
15.06.2016 12:43 17,4 C 77 % 1002,3 hPa 0,0 l/m 7,8 km/h (2 Bft) W 262 1 min 0,000 mm 4,3 UV-I 598 W/m 13,3 C 16,7 C 14,5 km/h (3 Bft) 100,00 %
15.06.2016 12:44 17,4 C 71 % 1002,3 hPa 0,0 l/m 5,7 km/h (1 Bft) W-SW 244 1 min 0,000 mm 4,1 UV-I 565 W/m 12,1 C 17,4 C 9,7 km/h (2 Bft) 100,00 %
15.06.2016 12:45 17,4 C 71 % 1002,3 hPa 0,0 l/m 9,7 km/h (2 Bft) W-SW 238 1 min 0,000 mm 4,0 UV-I 541 W/m 12,1 C 15,9 C 14,5 km/h (3 Bft) 100,00 %
15.06.2016 12:46 17,4 C 72 % 1002,4 hPa 0,0 l/m 7,6 km/h (2 Bft) W-SW 238 1 min 0,000 mm 3,8 UV-I 527 W/m 12,3 C 16,8 C 16,1 km/h (3 Bft) 100,00 %
15.06.2016 12:47 17,4 C 73 % 1002,3 hPa 0,0 l/m 3,4 km/h (1 Bft) W-SW 251 1 min 0,000 mm 3,8 UV-I 528 W/m 12,5 C 17,4 C 6,4 km/h (2 Bft) 93,10 %
15.06.2016 12:48 17,4 C 73 % 1002,3 hPa 0,0 l/m 4,1 km/h (1 Bft) W-SW 238 1 min 0,000 mm 3,8 UV-I 532 W/m 12,5 C 17,4 C 6,4 km/h (2 Bft) 100,00 %
15.06.2016 12:49 17,4 C 72 % 1002,4 hPa 0,0 l/m 7,8 km/h (2 Bft) W-SW 237 1 min 0,000 mm 3,8 UV-I 526 W/m 12,3 C 16,7 C 19,3 km/h (3 Bft) 100,00 %
15.06.2016 12:50 17,4 C 71 % 1002,4 hPa 0,0 l/m 13,2 km/h (3 Bft) SW 230 1 min 0,000 mm 3,6 UV-I 507 W/m 12,1 C 14,6 C 16,1 km/h (3 Bft) 98,64 %
15.06.2016 12:51 17,4 C 73 % 1002,4 hPa 0,0 l/m 8,0 km/h (2 Bft) W-SW 251 1 min 0,000 mm 3,6 UV-I 498 W/m 12,5 C 16,6 C 14,5 km/h (3 Bft) 97,56 %
15.06.2016 12:52 17,4 C 71 % 1002,4 hPa 0,0 l/m 8,2 km/h (2 Bft) W-SW 257 1 min 0,000 mm 3,6 UV-I 498 W/m 12,1 C 16,5 C 14,5 km/h (3 Bft) 100,00 %
15.06.2016 12:53 17,4 C 70 % 1002,4 hPa 0,0 l/m 9,3 km/h (2 Bft) W-SW 239 1 min 0,000 mm 3,7 UV-I 511 W/m 11,9 C 16,1 C 17,7 km/h (3 Bft) 100,00 %
15.06.2016 12:54 17,4 C 74 % 1002,4 hPa 0,0 l/m 8,6 km/h (2 Bft) W 259 1 min 0,000 mm 3,7 UV-I 522 W/m 12,7 C 16,4 C 11,3 km/h (2 Bft) 100,00 %
15.06.2016 12:55 17,4 C 73 % 1002,4 hPa 0,0 l/m 5,4 km/h (1 Bft) W-SW 238 1 min 0,000 mm 3,8 UV-I 534 W/m 12,5 C 17,4 C 6,4 km/h (2 Bft) 100,00 %
15.06.2016 12:56 17,4 C 70 % 1002,3 hPa 0,0 l/m 9,4 km/h (2 Bft) SW 232 1 min 0,000 mm 3,8 UV-I 531 W/m 11,9 C 16,0 C 14,5 km/h (3 Bft) 92,31 %
15.06.2016 12:57 17,4 C 71 % 1002,4 hPa 0,0 l/m 6,4 km/h (2 Bft) W-SW 237 1 min 0,000 mm 3,7 UV-I 513 W/m 12,1 C 17,4 C 12,9 km/h (3 Bft) 96,15 %
15.06.2016 12:58 17,4 C 72 % 1002,4 hPa 0,0 l/m 5,4 km/h (1 Bft) W 264 1 min 0,000 mm 3,5 UV-I 495 W/m 12,3 C 17,4 C 9,7 km/h (2 Bft) 94,44 %
15.06.2016 12:59 17,4 C 72 % 1002,4 hPa 0,0 l/m 12,1 km/h (2 Bft) W 268 0 min 0,000 mm 3,5 UV-I 488 W/m 12,3 C 15,0 C 17,7 km/h (3 Bft) 96,30 %
15.06.2016 13:00 17,4 C 74 % 1002,4 hPa 0,0 l/m 11,0 km/h (2 Bft) SW 223 0 min 0,000 mm 3,5 UV-I 487 W/m 12,7 C 15,4 C 17,7 km/h (3 Bft) 92,86 %
15.06.2016 13:01 17,4 C 73 % 1002,4 hPa 0,0 l/m 5,7 km/h (1 Bft) S-SW 209 0 min 0,356 mm 3,5 UV-I 484 W/m 12,5 C 17,4 C 11,3 km/h (2 Bft) 100,00 %
15.06.2016 13:02 17,5 C 75 % 1002,4 hPa 0,0 l/m 4,0 km/h (1 Bft) W-SW 238 0 min 0,000 mm 3,4 UV-I 480 W/m 13,0 C 17,5 C 6,4 km/h (2 Bft) 95,65 %
15.06.2016 13:03 17,6 C 73 % 1002,4 hPa 0,0 l/m 3,9 km/h (1 Bft) W 264 0 min 0,000 mm 3,4 UV-I 462 W/m 12,7 C 17,6 C 6,4 km/h (2 Bft) 100,00 %
15.06.2016 13:04 17,6 C 71 % 1002,4 hPa 0,0 l/m 4,2 km/h (1 Bft) W 275 0 min 0,000 mm 3,4 UV-I 476 W/m 12,3 C 17,6 C 6,4 km/h (2 Bft) 96,15 %
15.06.2016 13:05 17,6 C 74 % 1002,4 hPa 0,0 l/m 5,1 km/h (1 Bft) W 262 0 min 0,000 mm 3,4 UV-I 479 W/m 12,9 C 17,6 C 8,0 km/h (2 Bft) 100,00 %
15.06.2016 13:06 17,7 C 76 % 1002,4 hPa 0,0 l/m 9,2 km/h (2 Bft) W-SW 249 0 min 0,000 mm 3,5 UV-I 482 W/m 13,4 C 16,4 C 14,5 km/h (3 Bft) 95,65 %
15.06.2016 13:07 17,7 C 71 % 1002,4 hPa 0,0 l/m 10,9 km/h (2 Bft) W-SW 256 0 min 0,000 mm 3,5 UV-I 489 W/m 12,4 C 15,8 C 14,5 km/h (3 Bft) 96,67 %
15.06.2016 13:08 17,7 C 72 % 1002,4 hPa 0,0 l/m 10,1 km/h (2 Bft) W 278 1 min 0,000 mm 3,6 UV-I 498 W/m 12,6 C 16,1 C 14,5 km/h (3 Bft) 100,00 %
15.06.2016 13:09 17,6 C 71 % 1002,4 hPa 0,0 l/m 7,0 km/h (2 Bft) W-SW 250 1 min 0,000 mm 3,6 UV-I 505 W/m 12,3 C 17,3 C 12,9 km/h (3 Bft) 96,15 %
15.06.2016 13:10 17,6 C 72 % 1002,4 hPa 0,0 l/m 8,2 km/h (2 Bft) W-SW 251 1 min 0,000 mm 3,6 UV-I 510 W/m 12,5 C 16,7 C 12,9 km/h (3 Bft) 100,00 %
15.06.2016 13:11 17,6 C 72 % 1002,4 hPa 0,0 l/m 6,4 km/h (2 Bft) W 269 1 min 0,000 mm 3,7 UV-I 512 W/m 12,5 C 17,6 C 9,7 km/h (2 Bft) 96,30 %
15.06.2016 13:12 17,7 C 74 % 1002,4 hPa 0,0 l/m 4,2 km/h (1 Bft) SW 234 1 min 0,000 mm 3,7 UV-I 516 W/m 13,0 C 17,7 C 6,4 km/h (2 Bft) 100,00 %
15.06.2016 13:13 17,7 C 74 % 1002,4 hPa 0,0 l/m 8,9 km/h (2 Bft) W-SW 242 1 min 0,000 mm 3,7 UV-I 525 W/m 13,0 C 16,5 C 12,9 km/h (3 Bft) 92,59 %
15.06.2016 13:14 17,7 C 74 % 1002,4 hPa 0,0 l/m 10,9 km/h (2 Bft) W-NW 282 1 min 0,000 mm 3,9 UV-I 541 W/m 13,0 C 15,8 C 16,1 km/h (3 Bft) 100,00 %
15.06.2016 13:15 17,8 C 75 % 1002,4 hPa 0,0 l/m 4,4 km/h (1 Bft) SW 215 1 min 0,000 mm 4,0 UV-I 558 W/m 13,3 C 17,8 C 11,3 km/h (2 Bft) 96,15 %
15.06.2016 13:16 17,8 C 73 % 1002,4 hPa 0,0 l/m 6,5 km/h (2 Bft) SW 227 1 min 0,000 mm 4,0 UV-I 561 W/m 12,9 C 17,8 C 11,3 km/h (2 Bft) 100,00 %
15.06.2016 13:17 17,7 C 71 % 1002,4 hPa 0,0 l/m 7,9 km/h (2 Bft) W-SW 241 1 min 0,000 mm 4,0 UV-I 553 W/m 12,4 C 17,0 C 12,9 km/h (3 Bft) 98,58 %
15.06.2016 13:18 17,8 C 72 % 1002,4 hPa 0,0 l/m 11,8 km/h (2 Bft) W-SW 250 1 min 0,000 mm 4,0 UV-I 548 W/m 12,7 C 15,6 C 16,1 km/h (3 Bft) 96,77 %
15.06.2016 13:19 17,8 C 75 % 1002,4 hPa 0,0 l/m 4,1 km/h (1 Bft) W-SW 238 1 min 0,000 mm 4,0 UV-I 544 W/m 13,3 C 17,8 C 6,4 km/h (2 Bft) 96,15 %
15.06.2016 13:20 17,9 C 73 % 1002,4 hPa 0,0 l/m 5,2 km/h (1 Bft) W-SW 244 1 min 0,000 mm 4,0 UV-I 546 W/m 13,0 C 17,9 C 8,0 km/h (2 Bft) 83,33 %
15.06.2016 13:21 17,9 C 71 % 1002,4 hPa 0,0 l/m 2,1 km/h (1 Bft) W 268 1 min 0,000 mm 4,1 UV-I 561 W/m 12,6 C 17,9 C 4,8 km/h (1 Bft) 100,00 %
15.06.2016 13:22 17,9 C 73 % 1002,4 hPa 0,0 l/m 4,2 km/h (1 Bft) W 272 1 min 0,000 mm 4,2 UV-I 585 W/m 13,0 C 17,9 C 4,8 km/h (1 Bft) 95,83 %
15.06.2016 13:23 18,0 C 75 % 1002,4 hPa 0,0 l/m 5,6 km/h (1 Bft) S-SW 207 1 min 0,000 mm 4,3 UV-I 596 W/m 13,5 C 18,0 C 9,7 km/h (2 Bft) 96,15 %
15.06.2016 13:24 18,1 C 73 % 1002,4 hPa 0,0 l/m 8,3 km/h (2 Bft) SW 219 1 min 0,000 mm 4,3 UV-I 591 W/m 13,2 C 17,2 C 9,7 km/h (2 Bft) 100,00 %
15.06.2016 13:25 18,0 C 71 % 1002,4 hPa 0,0 l/m 9,4 km/h (2 Bft) S-SW 207 1 min 0,000 mm 4,3 UV-I 579 W/m 12,7 C 16,7 C 11,3 km/h (2 Bft) 90,91 %
15.06.2016 13:26 18,1 C 75 % 1002,3 hPa 0,0 l/m 9,4 km/h (2 Bft) SW 223 1 min 0,000 mm 4,2 UV-I 573 W/m 13,6 C 16,8 C 16,1 km/h (3 Bft) 100,00 %
15.06.2016 13:27 18,1 C 72 % 1002,5 hPa 0,0 l/m 11,5 km/h (2 Bft) W-SW 251 1 min 0,000 mm 4,4 UV-I 591 W/m 13,0 C 16,0 C 16,1 km/h (3 Bft) 95,65 %
15.06.2016 13:28 18,1 C 70 % 1002,4 hPa 0,0 l/m 9,7 km/h (2 Bft) W-SW 251 1 min 0,000 mm 4,5 UV-I 625 W/m 12,5 C 16,7 C 12,9 km/h (3 Bft) 96,30 %
15.06.2016 13:29 18,1 C 71 % 1002,4 hPa 0,0 l/m 9,1 km/h (2 Bft) W 274 1 min 0,000 mm 4,7 UV-I 644 W/m 12,8 C 16,9 C 11,3 km/h (2 Bft) 95,65 %
15.06.2016 13:30 18,1 C 70 % 1002,4 hPa 0,0 l/m 6,3 km/h (2 Bft) W-SW 250 1 min 0,000 mm 4,5 UV-I 613 W/m 12,5 C 18,1 C 9,7 km/h (2 Bft) 100,00 %
15.06.2016 13:31 18,2 C 70 % 1002,4 hPa 0,0 l/m 7,5 km/h (2 Bft) SW 234 1 min 0,000 mm 4,2 UV-I 577 W/m 12,6 C 17,7 C 14,5 km/h (3 Bft) 100,00 %
15.06.2016 13:32 18,2 C 71 % 1002,4 hPa 0,2 l/m 14,6 km/h (3 Bft) W-SW 246 1 min 0,000 mm 4,2 UV-I 577 W/m 12,9 C 15,2 C 20,9 km/h (4 Bft) 100,00 %
15.06.2016 13:33 18,2 C 69 % 1002,4 hPa 0,0 l/m 17,9 km/h (3 Bft) W-SW 237 1 min 0,000 mm 4,2 UV-I 580 W/m 12,4 C 14,3 C 22,5 km/h (4 Bft) 95,83 %
15.06.2016 13:34 18,2 C 66 % 1002,4 hPa 0,0 l/m 12,5 km/h (3 Bft) W 259 1 min 0,000 mm 4,2 UV-I 580 W/m 11,7 C 15,8 C 14,5 km/h (3 Bft) 100,00 %
15.06.2016 13:35 18,2 C 66 % 1002,4 hPa 0,0 l/m 11,9 km/h (2 Bft) W 273 1 min 0,000 mm 4,2 UV-I 582 W/m 11,7 C 16,0 C 14,5 km/h (3 Bft) 100,00 %
15.06.2016 13:36 18,2 C 67 % 1002,4 hPa 0,0 l/m 7,8 km/h (2 Bft) W 271 1 min 0,000 mm 4,2 UV-I 583 W/m 12,0 C 17,6 C 12,9 km/h (3 Bft) 96,15 %
15.06.2016 13:37 18,1 C 66 % 1002,4 hPa 0,0 l/m 9,7 km/h (2 Bft) W 279 1 min 0,000 mm 4,3 UV-I 589 W/m 11,6 C 16,7 C 12,9 km/h (3 Bft) 100,00 %
15.06.2016 13:38 18,1 C 65 % 1002,4 hPa 0,0 l/m 8,7 km/h (2 Bft) W 275 1 min 0,000 mm 4,4 UV-I 604 W/m 11,4 C 17,1 C 12,9 km/h (3 Bft) 96,15 %
15.06.2016 13:39 18,1 C 66 % 1002,4 hPa 0,0 l/m 6,8 km/h (2 Bft) SW 230 1 min 0,000 mm 4,6 UV-I 630 W/m 11,6 C 17,9 C 9,7 km/h (2 Bft) 100,00 %
15.06.2016 13:40 18,2 C 71 % 1002,3 hPa 0,0 l/m 6,3 km/h (2 Bft) W-SW 238 1 min 0,000 mm 4,5 UV-I 639 W/m 12,9 C 18,2 C 8,0 km/h (2 Bft) 100,00 %
15.06.2016 13:41 18,2 C 67 % 1002,3 hPa 0,0 l/m 5,2 km/h (1 Bft) S-SW 200 1 min 0,000 mm 5,0 UV-I 657 W/m 12,0 C 18,2 C 6,4 km/h (2 Bft) 100,00 %
15.06.2016 13:42 18,2 C 66 % 1002,3 hPa 0,0 l/m 3,0 km/h (1 Bft) W-SW 258 1 min 0,000 mm 6,1 UV-I 657 W/m 11,7 C 18,2 C 4,8 km/h (1 Bft) 100,00 %
15.06.2016 13:43 18,2 C 68 % 1002,3 hPa 0,0 l/m 1,8 km/h (1 Bft) W-SW 258 1 min 0,000 mm 5,6 UV-I 657 W/m 12,2 C 18,2 C 3,2 km/h (1 Bft) 100,00 %
15.06.2016 13:44 18,2 C 67 % 1002,3 hPa 0,0 l/m 1,3 km/h (1 Bft) W 267 1 min 0,000 mm 5,0 UV-I 705 W/m 12,0 C 18,2 C 3,2 km/h (1 Bft) 96,15 %
15.06.2016 13:45 18,2 C 65 % 1002,3 hPa 0,0 l/m 3,4 km/h (1 Bft) W-SW 242 1 min 0,000 mm 5,2 UV-I 701 W/m 11,5 C 18,2 C 4,8 km/h (1 Bft) 91,67 %
15.06.2016 13:46 18,2 C 65 % 1002,3 hPa 0,0 l/m 1,7 km/h (1 Bft) S-SW 205 1 min 0,000 mm 5,9 UV-I 735 W/m 11,5 C 18,2 C 3,2 km/h (1 Bft) 100,00 %
15.06.2016 13:47 18,3 C 66 % 1002,3 hPa 0,0 l/m 3,9 km/h (1 Bft) S-SW 200 1 min 0,000 mm 6,4 UV-I 735 W/m 11,8 C 18,3 C 8,0 km/h (2 Bft) 100,00 %
15.06.2016 13:48 18,3 C 68 % 1002,3 hPa 0,0 l/m 6,9 km/h (2 Bft) W-SW 242 1 min 0,000 mm 4,4 UV-I 668 W/m 12,3 C 18,1 C 9,7 km/h (2 Bft) 100,00 %
15.06.2016 13:49 18,4 C 66 % 1002,3 hPa 0,0 l/m 6,8 km/h (2 Bft) S 169 1 min 0,000 mm 4,5 UV-I 613 W/m 11,9 C 18,2 C 11,3 km/h (2 Bft) 100,00 %
15.06.2016 13:50 18,4 C 67 % 1002,3 hPa 0,0 l/m 11,4 km/h (2 Bft) W-SW 254 1 min 0,000 mm 4,4 UV-I 566 W/m 12,2 C 16,4 C 17,7 km/h (3 Bft) 100,00 %
15.06.2016 13:51 18,4 C 66 % 1002,3 hPa 0,0 l/m 12,9 km/h (3 Bft) W-SW 244 1 min 0,000 mm 4,3 UV-I 606 W/m 11,9 C 15,9 C 17,7 km/h (3 Bft) 100,00 %
15.06.2016 13:52 18,5 C 66 % 1002,3 hPa 0,0 l/m 8,7 km/h (2 Bft) SW 219 1 min 0,000 mm 4,0 UV-I 576 W/m 12,0 C 17,5 C 12,9 km/h (3 Bft) 100,00 %
15.06.2016 13:53 18,4 C 66 % 1002,3 hPa 0,0 l/m 6,5 km/h (2 Bft) W-SW 251 1 min 0,000 mm 4,1 UV-I 488 W/m 11,9 C 18,4 C 11,3 km/h (2 Bft) 100,00 %
15.06.2016 13:54 18,4 C 68 % 1002,3 hPa 0,0 l/m 8,6 km/h (2 Bft) S-SW 209 1 min 0,000 mm 4,1 UV-I 489 W/m 12,4 C 17,4 C 12,9 km/h (3 Bft) 100,00 %
15.06.2016 13:55 18,4 C 63 % 1002,3 hPa 0,0 l/m 7,1 km/h (2 Bft) S-SW 212 0 min 0,000 mm 4,2 UV-I 482 W/m 11,2 C 18,1 C 9,7 km/h (2 Bft) 100,00 %
15.06.2016 13:56 18,3 C 67 % 1002,3 hPa 0,0 l/m 8,4 km/h (2 Bft) SW 223 0 min 0,000 mm 3,9 UV-I 431 W/m 12,1 C 17,4 C 12,9 km/h (3 Bft) 100,00 %
15.06.2016 13:57 18,2 C 66 % 1002,3 hPa 0,0 l/m 5,7 km/h (1 Bft) W-SW 248 0 min 0,000 mm 3,8 UV-I 418 W/m 11,7 C 18,2 C 6,4 km/h (2 Bft) 94,12 %
15.06.2016 13:58 18,2 C 68 % 1002,3 hPa 0,0 l/m 5,4 km/h (1 Bft) W-SW 250 0 min 0,000 mm 3,8 UV-I 404 W/m 12,2 C 18,2 C 9,7 km/h (2 Bft) 100,00 %
15.06.2016 13:59 18,3 C 69 % 1002,3 hPa 0,0 l/m 6,4 km/h (2 Bft) W-SW 247 0 min 0,000 mm 3,9 UV-I 404 W/m 12,5 C 18,3 C 12,9 km/h (3 Bft) 100,00 %
15.06.2016 14:00 18,3 C 67 % 1002,3 hPa 0,0 l/m 11,6 km/h (2 Bft) SO 136 0 min 0,355 mm 5,4 UV-I 404 W/m 12,1 C 16,2 C 16,1 km/h (3 Bft) 93,33 %
15.06.2016 14:01 18,4 C 66 % 1002,4 hPa 0,0 l/m 15,3 km/h (3 Bft) S 175 0 min 0,000 mm 6,3 UV-I 404 W/m 11,9 C 15,2 C 22,5 km/h (4 Bft) 100,00 %
15.06.2016 14:02 18,6 C 65 % 1002,4 hPa 0,0 l/m 10,0 km/h (2 Bft) W-SW 247 1 min 0,000 mm 6,2 UV-I 874 W/m 11,9 C 17,1 C 16,1 km/h (3 Bft) 100,00 %
15.06.2016 14:03 18,7 C 65 % 1002,4 hPa 0,0 l/m 10,2 km/h (2 Bft) W 265 1 min 0,000 mm 6,1 UV-I 940 W/m 12,0 C 17,1 C 16,1 km/h (3 Bft) 96,15 %
15.06.2016 14:04 18,8 C 66 % 1002,4 hPa 0,0 l/m 14,0 km/h (3 Bft) W-SW 251 1 min 0,000 mm 6,0 UV-I 930 W/m 12,3 C 16,1 C 17,7 km/h (3 Bft) 100,00 %
15.06.2016 14:05 18,9 C 63 % 1002,3 hPa 0,0 l/m 10,6 km/h (2 Bft) W-SW 257 1 min 0,000 mm 6,1 UV-I 925 W/m 11,7 C 17,2 C 16,1 km/h (3 Bft) 100,00 %
15.06.2016 14:06 19,0 C 63 % 1002,3 hPa 0,0 l/m 10,6 km/h (2 Bft) W 267 1 min 0,000 mm 6,0 UV-I 918 W/m 11,8 C 17,3 C 17,7 km/h (3 Bft) 100,00 %
15.06.2016 14:07 19,0 C 63 % 1002,3 hPa 0,0 l/m 7,8 km/h (2 Bft) SW 225 1 min 0,000 mm 6,0 UV-I 914 W/m 11,8 C 18,4 C 11,3 km/h (2 Bft) 100,00 %
15.06.2016 14:08 19,0 C 63 % 1002,3 hPa 0,0 l/m 3,6 km/h (1 Bft) W 269 1 min 0,000 mm 6,0 UV-I 911 W/m 11,8 C 19,0 C 4,8 km/h (1 Bft) 95,83 %
15.06.2016 14:09 19,0 C 61 % 1002,3 hPa 0,0 l/m 2,9 km/h (1 Bft) SW 223 1 min 0,000 mm 5,9 UV-I 905 W/m 11,3 C 19,0 C 4,8 km/h (1 Bft) 95,65 %
15.06.2016 14:10 18,9 C 62 % 1002,3 hPa 0,0 l/m 4,3 km/h (1 Bft) SW 222 1 min 0,000 mm 5,9 UV-I 902 W/m 11,5 C 18,9 C 6,4 km/h (2 Bft) 100,00 %
15.06.2016 14:11 18,9 C 63 % 1002,2 hPa 0,0 l/m 3,9 km/h (1 Bft) S-SW 208 1 min 0,000 mm 5,9 UV-I 901 W/m 11,7 C 18,9 C 8,0 km/h (2 Bft) 100,00 %
15.06.2016 14:12 18,9 C 63 % 1002,1 hPa 0,0 l/m 1,7 km/h (1 Bft) S-SW 205 1 min 0,000 mm 5,9 UV-I 899 W/m 11,7 C 18,9 C 3,2 km/h (1 Bft) 100,00 %
15.06.2016 14:13 19,1 C 71 % 1002,2 hPa 0,0 l/m 2,5 km/h (1 Bft) W-SW 246 1 min 0,000 mm 5,9 UV-I 898 W/m 13,7 C 19,1 C 6,4 km/h (2 Bft) 100,00 %
15.06.2016 14:14 19,2 C 66 % 1002,2 hPa 0,0 l/m 5,0 km/h (1 Bft) W 271 1 min 0,000 mm 5,9 UV-I 896 W/m 12,7 C 19,2 C 6,4 km/h (2 Bft) 100,00 %
15.06.2016 14:15 19,3 C 65 % 1002,2 hPa 0,0 l/m 5,7 km/h (1 Bft) SW 215 1 min 0,000 mm 5,9 UV-I 899 W/m 12,6 C 19,3 C 8,0 km/h (2 Bft) 100,00 %
15.06.2016 14:16 19,3 C 65 % 1002,3 hPa 0,0 l/m 4,6 km/h (1 Bft) SW 220 1 min 0,000 mm 5,9 UV-I 904 W/m 12,6 C 19,3 C 8,0 km/h (2 Bft) 100,00 %
15.06.2016 14:17 19,3 C 64 % 1002,3 hPa 0,0 l/m 4,5 km/h (1 Bft) W-SW 258 1 min 0,000 mm 5,9 UV-I 916 W/m 12,3 C 19,3 C 6,4 km/h (2 Bft) 100,00 %
15.06.2016 14:18 19,3 C 64 % 1002,2 hPa 0,0 l/m 1,5 km/h (1 Bft) W 262 1 min 0,000 mm 6,0 UV-I 928 W/m 12,3 C 19,3 C 3,2 km/h (1 Bft) 100,00 %
15.06.2016 14:19 19,2 C 62 % 1002,2 hPa 0,0 l/m 0,9 km/h (0 Bft) SW 231 1 min 0,000 mm 5,9 UV-I 924 W/m 11,7 C 19,2 C 1,6 km/h (1 Bft) 100,00 %
15.06.2016 14:20 19,2 C 63 % 1002,2 hPa 0,0 l/m 2,5 km/h (1 Bft) SW 225 1 min 0,000 mm 5,9 UV-I 914 W/m 12,0 C 19,2 C 4,8 km/h (1 Bft) 100,00 %
15.06.2016 14:21 19,3 C 66 % 1002,2 hPa 0,0 l/m 5,9 km/h (2 Bft) W-SW 244 1 min 0,000 mm 5,8 UV-I 908 W/m 12,8 C 19,3 C 12,9 km/h (3 Bft) 100,00 %
15.06.2016 14:22 19,3 C 60 % 1002,2 hPa 0,0 l/m 5,3 km/h (1 Bft) W-SW 258 1 min 0,000 mm 5,8 UV-I 909 W/m 11,3 C 19,3 C 8,0 km/h (2 Bft) 100,00 %
15.06.2016 14:23 19,2 C 60 % 1002,2 hPa 0,0 l/m 2,8 km/h (1 Bft) W-SW 258 1 min 0,000 mm 5,8 UV-I 903 W/m 11,2 C 19,2 C 4,8 km/h (1 Bft) 100,00 %
15.06.2016 14:24 19,2 C 62 % 1002,2 hPa 0,0 l/m 2,3 km/h (1 Bft) W-NW 296 1 min 0,000 mm 5,8 UV-I 895 W/m 11,7 C 19,2 C 6,4 km/h (2 Bft) 100,00 %
15.06.2016 14:25 19,2 C 60 % 1002,1 hPa 0,0 l/m 2,7 km/h (1 Bft) W-NW 302 1 min 0,000 mm 5,8 UV-I 911 W/m 11,2 C 19,2 C 4,8 km/h (1 Bft) 95,83 %
15.06.2016 14:26 19,2 C 59 % 1002,1 hPa 0,0 l/m 0,8 km/h (0 Bft) NW 309 1 min 0,000 mm 5,7 UV-I 905 W/m 11,0 C 19,2 C 1,6 km/h (1 Bft) 100,00 %
15.06.2016 14:27 19,3 C 64 % 1002,1 hPa 0,0 l/m 4,3 km/h (1 Bft) SW 235 1 min 0,000 mm 5,7 UV-I 901 W/m 12,3 C 19,3 C 11,3 km/h (2 Bft) 100,00 %
15.06.2016 14:28 19,6 C 64 % 1002,1 hPa 0,0 l/m 10,6 km/h (2 Bft) SW 223 1 min 0,000 mm 5,3 UV-I 851 W/m 12,6 C 18,0 C 14,5 km/h (3 Bft) 100,00 %
15.06.2016 14:29 19,7 C 64 % 1002,1 hPa 0,0 l/m 6,6 km/h (2 Bft) S-SW 209 1 min 0,000 mm 5,2 UV-I 807 W/m 12,7 C 19,6 C 9,7 km/h (2 Bft) 100,00 %
15.06.2016 14:30 19,6 C 60 % 1002,1 hPa 0,0 l/m 6,3 km/h (2 Bft) W-SW 257 1 min 0,000 mm 5,0 UV-I 766 W/m 11,6 C 19,6 C 11,3 km/h (2 Bft) 100,00 %
15.06.2016 14:31 19,6 C 60 % 1002,1 hPa 0,0 l/m 8,5 km/h (2 Bft) W-SW 238 1 min 0,000 mm 4,7 UV-I 686 W/m 11,6 C 18,7 C 14,5 km/h (3 Bft) 100,00 %
15.06.2016 14:32 19,6 C 59 % 1002,1 hPa 0,0 l/m 9,0 km/h (2 Bft) SW 229 1 min 0,000 mm 4,4 UV-I 619 W/m 11,4 C 18,6 C 16,1 km/h (3 Bft) 100,00 %
15.06.2016 14:33 19,5 C 61 % 1002,1 hPa 0,0 l/m 10,0 km/h (2 Bft) W-SW 240 1 min 0,000 mm 4,3 UV-I 603 W/m 11,8 C 18,1 C 14,5 km/h (3 Bft) 100,00 %
15.06.2016 14:34 19,4 C 64 % 1002,1 hPa 0,0 l/m 7,5 km/h (2 Bft) SW 215 1 min 0,000 mm 4,2 UV-I 605 W/m 12,4 C 18,9 C 12,9 km/h (3 Bft) 100,00 %
15.06.2016 14:35 19,5 C 63 % 1002,1 hPa 0,0 l/m 8,3 km/h (2 Bft) W-SW 240 1 min 0,000 mm 4,1 UV-I 638 W/m 12,3 C 18,7 C 12,9 km/h (3 Bft) 100,00 %
15.06.2016 14:36 19,5 C 61 % 1002,1 hPa 0,0 l/m 5,7 km/h (1 Bft) W-SW 250 1 min 0,000 mm 4,2 UV-I 595 W/m 11,8 C 19,5 C 8,0 km/h (2 Bft) 100,00 %
15.06.2016 14:37 19,4 C 62 % 1002,0 hPa 0,0 l/m 7,1 km/h (2 Bft) W-SW 257 1 min 0,000 mm 4,2 UV-I 608 W/m 11,9 C 19,1 C 11,3 km/h (2 Bft) 100,00 %
15.06.2016 14:38 19,3 C 58 % 1002,0 hPa 0,0 l/m 8,8 km/h (2 Bft) W-SW 240 1 min 0,000 mm 3,2 UV-I 555 W/m 10,8 C 18,3 C 12,9 km/h (3 Bft) 100,00 %
15.06.2016 14:39 19,2 C 60 % 1002,0 hPa 0,0 l/m 8,4 km/h (2 Bft) W-SW 252 0 min 0,000 mm 3,3 UV-I 269 W/m 11,2 C 18,4 C 12,9 km/h (3 Bft) 100,00 %
15.06.2016 14:40 19,2 C 61 % 1002,0 hPa 0,0 l/m 9,0 km/h (2 Bft) W 261 0 min 0,000 mm 4,9 UV-I 269 W/m 11,5 C 18,1 C 12,9 km/h (3 Bft) 100,00 %
15.06.2016 14:41 19,2 C 61 % 1001,9 hPa 0,0 l/m 6,1 km/h (2 Bft) W-SW 244 1 min 0,000 mm 5,4 UV-I 732 W/m 11,5 C 19,2 C 12,9 km/h (3 Bft) 100,00 %
15.06.2016 14:42 19,2 C 62 % 1001,9 hPa 0,0 l/m 4,1 km/h (1 Bft) W-SW 247 1 min 0,000 mm 5,4 UV-I 935 W/m 11,7 C 19,2 C 6,4 km/h (2 Bft) 100,00 %
15.06.2016 14:43 19,3 C 65 % 1001,9 hPa 0,0 l/m 3,1 km/h (1 Bft) W-SW 252 1 min 0,000 mm 5,5 UV-I 888 W/m 12,6 C 19,3 C 4,8 km/h (1 Bft) 100,00 %
15.06.2016 14:44 19,4 C 66 % 1001,9 hPa 0,0 l/m 1,8 km/h (1 Bft) W 269 1 min 0,000 mm 5,6 UV-I 933 W/m 12,9 C 19,4 C 3,2 km/h (1 Bft) 100,00 %
15.06.2016 14:45 19,6 C 68 % 1001,8 hPa 0,0 l/m 4,6 km/h (1 Bft) N-NW 328 1 min 0,000 mm 4,6 UV-I 890 W/m 13,5 C 19,6 C 6,4 km/h (2 Bft) 96,15 %
15.06.2016 14:46 19,7 C 59 % 1001,8 hPa 0,0 l/m 3,8 km/h (1 Bft) W-SW 257 1 min 0,000 mm 5,5 UV-I 868 W/m 11,5 C 19,7 C 12,9 km/h (3 Bft) 100,00 %
15.06.2016 14:47 19,7 C 57 % 1001,8 hPa 0,0 l/m 7,1 km/h (2 Bft) SW 236 1 min 0,000 mm 5,5 UV-I 908 W/m 10,9 C 19,4 C 9,7 km/h (2 Bft) 100,00 %
15.06.2016 14:48 19,7 C 59 % 1001,8 hPa 0,0 l/m 11,2 km/h (2 Bft) W-SW 254 1 min 0,000 mm 5,5 UV-I 901 W/m 11,5 C 17,9 C 12,9 km/h (3 Bft) 100,00 %
15.06.2016 14:49 19,7 C 62 % 1001,7 hPa 0,0 l/m 10,3 km/h (2 Bft) SW 233 1 min 0,000 mm 5,4 UV-I 882 W/m 12,2 C 18,2 C 12,9 km/h (3 Bft) 96,30 %
15.06.2016 14:50 19,8 C 61 % 1001,7 hPa 0,0 l/m 10,1 km/h (2 Bft) S 190 1 min 0,000 mm 5,3 UV-I 857 W/m 12,1 C 18,4 C 14,5 km/h (3 Bft) 100,00 %
15.06.2016 14:51 19,8 C 59 % 1001,7 hPa 0,0 l/m 11,2 km/h (2 Bft) S-SW 202 1 min 0,000 mm 5,2 UV-I 842 W/m 11,6 C 18,0 C 14,5 km/h (3 Bft) 100,00 %
15.06.2016 14:52 19,7 C 59 % 1001,8 hPa 0,0 l/m 9,3 km/h (2 Bft) S-SO 165 1 min 0,000 mm 5,1 UV-I 843 W/m 11,5 C 18,6 C 11,3 km/h (2 Bft) 100,00 %
15.06.2016 14:53 19,7 C 58 % 1001,7 hPa 0,0 l/m 7,1 km/h (2 Bft) S-SW 204 1 min 0,000 mm 5,1 UV-I 848 W/m 11,2 C 19,4 C 11,3 km/h (2 Bft) 95,83 %
15.06.2016 14:54 19,7 C 59 % 1001,7 hPa 0,0 l/m 4,4 km/h (1 Bft) SW 229 1 min 0,000 mm 5,1 UV-I 821 W/m 11,5 C 19,7 C 8,0 km/h (2 Bft) 100,00 %
15.06.2016 14:55 19,7 C 62 % 1001,8 hPa 0,0 l/m 5,4 km/h (1 Bft) S-SW 196 1 min 0,000 mm 5,2 UV-I 814 W/m 12,2 C 19,7 C 11,3 km/h (2 Bft) 95,83 %
15.06.2016 14:56 19,8 C 58 % 1001,7 hPa 0,0 l/m 4,6 km/h (1 Bft) S-SO 163 1 min 0,000 mm 5,2 UV-I 864 W/m 11,3 C 19,8 C 8,0 km/h (2 Bft) 96,55 %
15.06.2016 14:57 19,8 C 59 % 1001,8 hPa 0,0 l/m 10,3 km/h (2 Bft) S-SW 211 1 min 0,000 mm 5,2 UV-I 865 W/m 11,6 C 18,3 C 16,1 km/h (3 Bft) 98,62 %
15.06.2016 14:58 19,8 C 61 % 1001,7 hPa 0,0 l/m 7,8 km/h (2 Bft) S-SO 163 1 min 0,000 mm 5,2 UV-I 863 W/m 12,1 C 19,2 C 12,9 km/h (3 Bft) 97,56 %
15.06.2016 14:59 19,8 C 56 % 1001,7 hPa 0,0 l/m 8,5 km/h (2 Bft) S 177 1 min 0,000 mm 5,1 UV-I 863 W/m 10,8 C 18,9 C 12,9 km/h (3 Bft) 100,00 %
15.06.2016 15:00 19,7 C 57 % 1001,7 hPa 0,0 l/m 6,8 km/h (2 Bft) S-SW 197 1 min 0,508 mm 5,0 UV-I 867 W/m 10,9 C 19,5 C 11,3 km/h (2 Bft) 96,15 %
15.06.2016 15:02 19,7 C 59 % 1001,7 hPa 0,0 l/m 4,8 km/h (1 Bft) S-SO 167 2 min 0,000 mm 5,1 UV-I 871 W/m 11,5 C 19,7 C 11,3 km/h (2 Bft) 97,56 %
15.06.2016 15:03 19,7 C 58 % 1001,7 hPa 0,0 l/m 7,3 km/h (2 Bft) S-SW 192 1 min 0,000 mm 5,1 UV-I 877 W/m 11,2 C 19,3 C 9,7 km/h (2 Bft) 100,00 %
15.06.2016 15:04 19,7 C 56 % 1001,7 hPa 0,0 l/m 2,0 km/h (1 Bft) S-SW 192 1 min 0,000 mm 5,0 UV-I 872 W/m 10,7 C 19,7 C 6,4 km/h (2 Bft) 95,65 %
15.06.2016 15:05 19,7 C 58 % 1001,7 hPa 0,0 l/m 5,8 km/h (2 Bft) S-SW 196 1 min 0,000 mm 5,0 UV-I 853 W/m 11,2 C 19,7 C 12,9 km/h (3 Bft) 95,83 %
15.06.2016 15:06 19,7 C 57 % 1001,7 hPa 0,0 l/m 5,5 km/h (1 Bft) S-SO 161 1 min 0,000 mm 4,8 UV-I 841 W/m 10,9 C 19,7 C 9,7 km/h (2 Bft) 100,00 %
15.06.2016 15:07 19,6 C 59 % 1001,7 hPa 0,0 l/m 7,3 km/h (2 Bft) SW 218 1 min 0,000 mm 4,9 UV-I 865 W/m 11,4 C 19,2 C 12,9 km/h (3 Bft) 95,83 %
15.06.2016 15:08 19,6 C 56 % 1001,8 hPa 0,0 l/m 8,4 km/h (2 Bft) SW 236 1 min 0,000 mm 4,8 UV-I 865 W/m 10,6 C 18,8 C 11,3 km/h (2 Bft) 96,15 %
15.06.2016 15:09 19,7 C 56 % 1001,7 hPa 0,0 l/m 7,6 km/h (2 Bft) S-SW 204 1 min 0,000 mm 4,7 UV-I 866 W/m 10,7 C 19,2 C 11,3 km/h (2 Bft) 93,33 %
15.06.2016 15:10 19,7 C 56 % 1001,7 hPa 0,0 l/m 3,9 km/h (1 Bft) S-SW 200 1 min 0,000 mm 4,7 UV-I 835 W/m 10,7 C 19,7 C 6,4 km/h (2 Bft) 100,00 %
15.06.2016 15:11 19,7 C 59 % 1001,7 hPa 0,0 l/m 11,5 km/h (2 Bft) SW 230 1 min 0,000 mm 4,1 UV-I 759 W/m 11,5 C 17,8 C 17,7 km/h (3 Bft) 95,65 %
15.06.2016 15:12 19,8 C 57 % 1001,7 hPa 0,0 l/m 12,7 km/h (3 Bft) S 191 1 min 0,000 mm 2,9 UV-I 728 W/m 11,0 C 17,6 C 16,1 km/h (3 Bft) 100,00 %
15.06.2016 15:13 19,7 C 56 % 1001,7 hPa 0,0 l/m 10,1 km/h (2 Bft) S 176 1 min 0,000 mm 2,7 UV-I 728 W/m 10,7 C 18,3 C 14,5 km/h (3 Bft) 90,91 %
15.06.2016 15:14 19,7 C 57 % 1001,7 hPa 0,0 l/m 7,1 km/h (2 Bft) S-SW 194 1 min 0,000 mm 3,1 UV-I 728 W/m 10,9 C 19,4 C 11,3 km/h (2 Bft) 100,00 %
15.06.2016 15:15 19,6 C 56 % 1001,7 hPa 0,0 l/m 4,5 km/h (1 Bft) SW 216 1 min 0,000 mm 3,9 UV-I 728 W/m 10,6 C 19,6 C 8,0 km/h (2 Bft) 94,12 %
15.06.2016 15:16 19,6 C 61 % 1001,6 hPa 0,0 l/m 4,9 km/h (1 Bft) S 177 1 min 0,000 mm 4,7 UV-I 728 W/m 11,9 C 19,6 C 9,7 km/h (2 Bft) 100,00 %
15.06.2016 15:17 19,7 C 62 % 1001,7 hPa 0,0 l/m 5,1 km/h (1 Bft) S 172 1 min 0,000 mm 4,9 UV-I 899 W/m 12,2 C 19,7 C 9,7 km/h (2 Bft) 94,12 %
15.06.2016 15:18 19,8 C 60 % 1001,7 hPa 0,0 l/m 8,3 km/h (2 Bft) W 262 1 min 0,000 mm 5,1 UV-I 989 W/m 11,8 C 19,0 C 17,7 km/h (3 Bft) 96,30 %
15.06.2016 15:19 19,9 C 58 % 1001,6 hPa 0,0 l/m 10,8 km/h (2 Bft) W 265 1 min 0,000 mm 5,1 UV-I 974 W/m 11,4 C 18,3 C 17,7 km/h (3 Bft) 96,15 %
15.06.2016 15:20 20,1 C 58 % 1001,6 hPa 0,0 l/m 9,1 km/h (2 Bft) W-SW 240 1 min 0,000 mm 5,0 UV-I 957 W/m 11,6 C 19,1 C 14,5 km/h (3 Bft) 95,83 %
15.06.2016 15:21 20,3 C 57 % 1001,6 hPa 0,0 l/m 9,9 km/h (2 Bft) W-NW 282 1 min 0,000 mm 4,9 UV-I 942 W/m 11,5 C 19,0 C 14,5 km/h (3 Bft) 100,00 %
15.06.2016 15:22 20,3 C 57 % 1001,6 hPa 0,0 l/m 7,0 km/h (2 Bft) SW 234 1 min 0,000 mm 4,9 UV-I 936 W/m 11,5 C 20,1 C 9,7 km/h (2 Bft) 96,30 %
15.06.2016 15:23 20,4 C 55 % 1001,6 hPa 0,0 l/m 9,3 km/h (2 Bft) SW 222 1 min 0,000 mm 4,9 UV-I 938 W/m 11,1 C 19,3 C 16,1 km/h (3 Bft) 96,15 %
15.06.2016 15:24 20,4 C 58 % 1001,6 hPa 0,0 l/m 5,8 km/h (2 Bft) W 271 1 min 0,000 mm 4,9 UV-I 940 W/m 11,9 C 20,4 C 11,3 km/h (2 Bft) 91,67 %
15.06.2016 15:25 20,4 C 55 % 1001,6 hPa 0,0 l/m 5,1 km/h (1 Bft) W-SW 255 1 min 0,000 mm 4,8 UV-I 915 W/m 11,1 C 20,4 C 11,3 km/h (2 Bft) 96,55 %
15.06.2016 15:26 20,4 C 55 % 1001,6 hPa 0,0 l/m 3,6 km/h (1 Bft) W-SW 254 1 min 0,000 mm 4,5 UV-I 839 W/m 11,1 C 20,4 C 4,8 km/h (1 Bft) 100,00 %
15.06.2016 15:27 20,5 C 61 % 1001,5 hPa 0,0 l/m 4,6 km/h (1 Bft) S 183 1 min 0,000 mm 4,7 UV-I 882 W/m 12,7 C 20,5 C 6,4 km/h (2 Bft) 100,00 %
15.06.2016 15:28 20,5 C 58 % 1001,5 hPa 0,0 l/m 9,6 km/h (2 Bft) W-SW 258 1 min 0,000 mm 4,6 UV-I 882 W/m 11,9 C 19,3 C 17,7 km/h (3 Bft) 100,00 %
15.06.2016 15:29 20,6 C 57 % 1001,6 hPa 0,0 l/m 11,9 km/h (2 Bft) W-SW 248 1 min 0,000 mm 4,6 UV-I 865 W/m 11,8 C 18,7 C 17,7 km/h (3 Bft) 100,00 %
15.06.2016 15:30 20,6 C 56 % 1001,6 hPa 0,0 l/m 9,4 km/h (2 Bft) W-SW 256 1 min 0,000 mm 4,6 UV-I 859 W/m 11,5 C 19,5 C 12,9 km/h (3 Bft) 100,00 %
15.06.2016 15:31 20,5 C 54 % 1001,6 hPa 0,0 l/m 9,8 km/h (2 Bft) SW 231 1 min 0,000 mm 2,9 UV-I 858 W/m 10,9 C 19,3 C 16,1 km/h (3 Bft) 100,00 %
15.06.2016 15:32 20,4 C 57 % 1001,6 hPa 0,0 l/m 14,2 km/h (3 Bft) W 281 1 min 0,000 mm 2,9 UV-I 858 W/m 11,6 C 17,9 C 17,7 km/h (3 Bft) 100,00 %
15.06.2016 15:33 20,4 C 58 % 1001,6 hPa 0,0 l/m 11,6 km/h (2 Bft) W-SW 256 1 min 0,000 mm 3,6 UV-I 858 W/m 11,9 C 18,6 C 14,5 km/h (3 Bft) 100,00 %
15.06.2016 15:34 20,3 C 55 % 1001,6 hPa 0,0 l/m 7,0 km/h (2 Bft) W 265 1 min 0,000 mm 4,4 UV-I 858 W/m 11,0 C 20,1 C 11,3 km/h (2 Bft) 96,15 %
15.06.2016 15:35 20,1 C 54 % 1001,7 hPa 0,0 l/m 3,7 km/h (1 Bft) W 277 1 min 0,000 mm 3,2 UV-I 858 W/m 10,5 C 20,1 C 4,8 km/h (1 Bft) 100,00 %
15.06.2016 15:36 19,9 C 54 % 1001,6 hPa 0,0 l/m 3,7 km/h (1 Bft) W-NW 292 1 min 0,000 mm 2,4 UV-I 858 W/m 10,3 C 19,9 C 4,8 km/h (1 Bft) 95,65 %
15.06.2016 15:37 19,9 C 60 % 1001,5 hPa 0,0 l/m 2,9 km/h (1 Bft) W-NW 298 1 min 0,000 mm 4,2 UV-I 853 W/m 11,9 C 19,9 C 4,8 km/h (1 Bft) 100,00 %
15.06.2016 15:38 19,9 C 54 % 1001,5 hPa 0,0 l/m 2,0 km/h (1 Bft) NW 315 1 min 0,000 mm 4,4 UV-I 827 W/m 10,3 C 19,9 C 4,8 km/h (1 Bft) 100,00 %
15.06.2016 15:39 19,9 C 57 % 1001,5 hPa 0,0 l/m 2,1 km/h (1 Bft) W 275 1 min 0,000 mm 4,3 UV-I 802 W/m 11,1 C 19,9 C 3,2 km/h (1 Bft) 100,00 %
15.06.2016 15:40 20,1 C 59 % 1001,5 hPa 0,0 l/m 3,8 km/h (1 Bft) NW 318 1 min 0,000 mm 4,2 UV-I 796 W/m 11,8 C 20,1 C 6,4 km/h (2 Bft) 100,00 %
15.06.2016 15:41 20,2 C 62 % 1001,5 hPa 0,0 l/m 6,8 km/h (2 Bft) W 266 1 min 0,000 mm 4,2 UV-I 792 W/m 12,7 C 20,0 C 11,3 km/h (2 Bft) 100,00 %
15.06.2016 15:42 20,3 C 57 % 1001,5 hPa 0,0 l/m 5,2 km/h (1 Bft) W-SW 248 1 min 0,000 mm 4,2 UV-I 789 W/m 11,5 C 20,3 C 9,7 km/h (2 Bft) 100,00 %
15.06.2016 15:43 20,3 C 55 % 1001,6 hPa 0,0 l/m 3,5 km/h (1 Bft) W-SW 257 1 min 0,000 mm 4,2 UV-I 787 W/m 11,0 C 20,3 C 6,4 km/h (2 Bft) 100,00 %
15.06.2016 15:44 20,3 C 54 % 1001,6 hPa 0,0 l/m 3,7 km/h (1 Bft) W-SW 252 1 min 0,000 mm 4,1 UV-I 783 W/m 10,7 C 20,3 C 4,8 km/h (1 Bft) 100,00 %
15.06.2016 15:45 20,3 C 54 % 1001,6 hPa 0,0 l/m 3,5 km/h (1 Bft) W 260 1 min 0,000 mm 4,1 UV-I 778 W/m 10,7 C 20,3 C 4,8 km/h (1 Bft) 100,00 %
15.06.2016 15:46 20,3 C 58 % 1001,6 hPa 0,0 l/m 4,3 km/h (1 Bft) SW 215 1 min 0,000 mm 4,1 UV-I 772 W/m 11,8 C 20,3 C 8,0 km/h (2 Bft) 100,00 %
15.06.2016 15:47 20,3 C 55 % 1001,5 hPa 0,0 l/m 9,4 km/h (2 Bft) W-SW 248 1 min 0,000 mm 4,1 UV-I 766 W/m 11,0 C 19,2 C 14,5 km/h (3 Bft) 100,00 %
15.06.2016 15:48 20,3 C 54 % 1001,5 hPa 0,0 l/m 5,0 km/h (1 Bft) W-SW 254 1 min 0,000 mm 4,0 UV-I 761 W/m 10,7 C 20,3 C 9,7 km/h (2 Bft) 100,00 %
15.06.2016 15:49 20,3 C 57 % 1001,5 hPa 0,0 l/m 4,4 km/h (1 Bft) NW 310 1 min 0,000 mm 4,0 UV-I 758 W/m 11,5 C 20,3 C 6,4 km/h (2 Bft) 100,00 %
15.06.2016 15:50 20,4 C 54 % 1001,5 hPa 0,0 l/m 1,7 km/h (1 Bft) NW 309 1 min 0,000 mm 4,0 UV-I 755 W/m 10,8 C 20,4 C 3,2 km/h (1 Bft) 100,00 %
15.06.2016 15:51 20,5 C 55 % 1001,5 hPa 0,0 l/m 3,0 km/h (1 Bft) W 266 1 min 0,000 mm 4,0 UV-I 754 W/m 11,1 C 20,5 C 3,2 km/h (1 Bft) 100,00 %
15.06.2016 15:52 20,5 C 57 % 1001,5 hPa 0,0 l/m 4,8 km/h (1 Bft) W 281 1 min 0,000 mm 3,9 UV-I 754 W/m 11,7 C 20,5 C 6,4 km/h (2 Bft) 100,00 %
15.06.2016 15:53 20,6 C 53 % 1001,5 hPa 0,0 l/m 6,1 km/h (2 Bft) W-SW 252 1 min 0,000 mm 3,9 UV-I 752 W/m 10,7 C 20,6 C 11,3 km/h (2 Bft) 100,00 %
15.06.2016 15:54 20,5 C 53 % 1001,5 hPa 0,0 l/m 6,8 km/h (2 Bft) W-NW 296 1 min 0,000 mm 3,9 UV-I 751 W/m 10,6 C 20,3 C 9,7 km/h (2 Bft) 95,83 %
15.06.2016 15:55 20,6 C 52 % 1001,5 hPa 0,0 l/m 6,0 km/h (2 Bft) W 271 1 min 0,000 mm 3,9 UV-I 747 W/m 10,4 C 20,6 C 9,7 km/h (2 Bft) 100,00 %
15.06.2016 15:56 20,6 C 51 % 1001,5 hPa 0,0 l/m 6,0 km/h (2 Bft) W 263 1 min 0,000 mm 3,9 UV-I 743 W/m 10,1 C 20,6 C 6,4 km/h (2 Bft) 100,00 %
15.06.2016 15:57 20,5 C 51 % 1001,5 hPa 0,0 l/m 3,2 km/h (1 Bft) W-SW 244 1 min 0,000 mm 3,8 UV-I 742 W/m 10,0 C 20,5 C 4,8 km/h (1 Bft) 100,00 %
15.06.2016 15:58 20,5 C 53 % 1001,5 hPa 0,0 l/m 3,7 km/h (1 Bft) W-SW 258 1 min 0,000 mm 3,8 UV-I 739 W/m 10,6 C 20,5 C 6,4 km/h (2 Bft) 98,61 %
15.06.2016 15:59 20,4 C 54 % 1001,5 hPa 0,0 l/m 5,1 km/h (1 Bft) W-SW 254 1 min 0,000 mm 3,8 UV-I 738 W/m 10,8 C 20,4 C 8,0 km/h (2 Bft) 100,00 %
15.06.2016 16:00 20,4 C 51 % 1001,4 hPa 0,0 l/m 2,7 km/h (1 Bft) W-SW 254 1 min 0,000 mm 3,8 UV-I 735 W/m 9,9 C 20,4 C 4,8 km/h (1 Bft) 100,00 %
15.06.2016 16:02 20,5 C 55 % 1001,5 hPa 0,0 l/m 5,4 km/h (1 Bft) SW 221 2 min 0,483 mm 3,7 UV-I 732 W/m 11,1 C 20,5 C 11,3 km/h (2 Bft) 100,00 %
15.06.2016 16:03 20,6 C 57 % 1001,4 hPa 0,0 l/m 9,5 km/h (2 Bft) SW 233 1 min 0,000 mm 3,7 UV-I 729 W/m 11,8 C 19,5 C 14,5 km/h (3 Bft) 100,00 %
15.06.2016 16:04 20,7 C 54 % 1001,4 hPa 0,0 l/m 7,7 km/h (2 Bft) S-SW 209 1 min 0,000 mm 3,7 UV-I 728 W/m 11,1 C 20,2 C 12,9 km/h (3 Bft) 100,00 %
15.06.2016 16:05 20,7 C 55 % 1001,4 hPa 0,0 l/m 4,8 km/h (1 Bft) S-SO 165 1 min 0,000 mm 3,7 UV-I 728 W/m 11,3 C 20,7 C 8,0 km/h (2 Bft) 95,65 %
15.06.2016 16:06 20,6 C 53 % 1001,4 hPa 0,0 l/m 3,1 km/h (1 Bft) S-SW 192 1 min 0,000 mm 3,6 UV-I 729 W/m 10,7 C 20,6 C 4,8 km/h (1 Bft) 100,00 %
15.06.2016 16:07 20,6 C 54 % 1001,4 hPa 0,0 l/m 3,5 km/h (1 Bft) SW 219 1 min 0,000 mm 2,4 UV-I 721 W/m 11,0 C 20,6 C 4,8 km/h (1 Bft) 100,00 %
15.06.2016 16:08 20,5 C 55 % 1001,5 hPa 0,0 l/m 2,9 km/h (1 Bft) SW 218 1 min 0,000 mm 2,7 UV-I 694 W/m 11,1 C 20,5 C 4,8 km/h (1 Bft) 100,00 %
15.06.2016 16:09 20,4 C 55 % 1001,4 hPa 0,0 l/m 7,2 km/h (2 Bft) S-SW 200 1 min 0,000 mm 2,9 UV-I 694 W/m 11,1 C 20,1 C 9,7 km/h (2 Bft) 96,30 %
15.06.2016 16:10 20,4 C 54 % 1001,4 hPa 0,0 l/m 5,8 km/h (2 Bft) S-SO 159 1 min 0,000 mm 3,6 UV-I 739 W/m 10,8 C 20,4 C 9,7 km/h (2 Bft) 100,00 %
15.06.2016 16:11 20,4 C 53 % 1001,4 hPa 0,0 l/m 5,2 km/h (1 Bft) O 93 1 min 0,000 mm 3,5 UV-I 718 W/m 10,5 C 20,4 C 8,0 km/h (2 Bft) 100,00 %
15.06.2016 16:12 20,3 C 51 % 1001,4 hPa 0,0 l/m 2,0 km/h (1 Bft) S-SO 154 1 min 0,000 mm 3,5 UV-I 710 W/m 9,8 C 20,3 C 3,2 km/h (1 Bft) 96,15 %
15.06.2016 16:13 20,4 C 59 % 1001,4 hPa 0,0 l/m 2,9 km/h (1 Bft) S 178 1 min 0,000 mm 3,4 UV-I 704 W/m 12,1 C 20,4 C 4,8 km/h (1 Bft) 100,00 %
15.06.2016 16:14 20,5 C 55 % 1001,4 hPa 0,0 l/m 2,5 km/h (1 Bft) S-SO 162 1 min 0,000 mm 3,4 UV-I 699 W/m 11,1 C 20,5 C 3,2 km/h (1 Bft) 95,65 %
15.06.2016 16:15 20,6 C 55 % 1001,3 hPa 0,0 l/m 1,9 km/h (1 Bft) O 88 1 min 0,000 mm 3,4 UV-I 697 W/m 11,2 C 20,6 C 3,2 km/h (1 Bft) 100,00 %
15.06.2016 16:16 20,7 C 57 % 1001,4 hPa 0,0 l/m 1,4 km/h (1 Bft) N-NW 333 1 min 0,000 mm 3,4 UV-I 696 W/m 11,9 C 20,7 C 1,6 km/h (1 Bft) 100,00 %
15.06.2016 16:17 20,8 C 59 % 1001,4 hPa 0,0 l/m 2,1 km/h (1 Bft) W-NW 292 1 min 0,000 mm 3,3 UV-I 694 W/m 12,5 C 20,8 C 4,8 km/h (1 Bft) 100,00 %
15.06.2016 16:18 20,8 C 55 % 1001,4 hPa 0,0 l/m 3,9 km/h (1 Bft) W-NW 301 1 min 0,000 mm 3,3 UV-I 692 W/m 11,4 C 20,8 C 6,4 km/h (2 Bft) 100,00 %
15.06.2016 16:19 20,9 C 55 % 1001,4 hPa 0,0 l/m 2,0 km/h (1 Bft) W-NW 295 1 min 0,000 mm 3,3 UV-I 690 W/m 11,5 C 20,9 C 4,8 km/h (1 Bft) 100,00 %
15.06.2016 16:20 20,9 C 56 % 1001,4 hPa 0,0 l/m 3,3 km/h (1 Bft) NW 307 1 min 0,000 mm 3,3 UV-I 689 W/m 11,8 C 20,9 C 6,4 km/h (2 Bft) 100,00 %
15.06.2016 16:21 20,9 C 53 % 1001,3 hPa 0,0 l/m 1,9 km/h (1 Bft) NW 313 1 min 0,000 mm 3,3 UV-I 690 W/m 11,0 C 20,9 C 3,2 km/h (1 Bft) 100,00 %
15.06.2016 16:22 20,9 C 58 % 1001,3 hPa 0,0 l/m 1,0 km/h (0 Bft) N-NO 25 1 min 0,000 mm 3,3 UV-I 693 W/m 12,3 C 20,9 C 3,2 km/h (1 Bft) 100,00 %
15.06.2016 16:23 20,9 C 60 % 1001,4 hPa 0,0 l/m 1,6 km/h (1 Bft) N 360 1 min 0,000 mm 3,3 UV-I 696 W/m 12,8 C 20,9 C 1,6 km/h (1 Bft) 100,00 %
15.06.2016 16:24 20,9 C 59 % 1001,3 hPa 0,0 l/m 1,6 km/h (1 Bft) N-NW 345 1 min 0,000 mm 3,2 UV-I 694 W/m 12,6 C 20,9 C 3,2 km/h (1 Bft) 96,15 %
15.06.2016 16:25 21,1 C 59 % 1001,3 hPa 0,0 l/m 1,8 km/h (1 Bft) N-NW 342 1 min 0,000 mm 3,2 UV-I 692 W/m 12,8 C 21,1 C 3,2 km/h (1 Bft) 100,00 %
15.06.2016 16:26 21,1 C 57 % 1001,3 hPa 0,0 l/m 2,2 km/h (1 Bft) NW 318 1 min 0,000 mm 3,2 UV-I 687 W/m 12,2 C 21,1 C 3,2 km/h (1 Bft) 100,00 %
15.06.2016 16:27 21,1 C 54 % 1001,4 hPa 0,0 l/m 0,7 km/h (0 Bft) NW 318 1 min 0,000 mm 3,2 UV-I 682 W/m 11,4 C 21,1 C 1,6 km/h (1 Bft) 100,00 %
15.06.2016 16:28 21,1 C 54 % 1001,4 hPa 0,0 l/m 0,2 km/h (0 Bft) NW 318 1 min 0,000 mm 3,1 UV-I 678 W/m 11,4 C 21,1 C 1,6 km/h (1 Bft) 96,15 %
15.06.2016 16:29 21,1 C 58 % 1001,4 hPa 0,0 l/m 1,4 km/h (1 Bft) W-NW 290 1 min 0,000 mm 3,1 UV-I 672 W/m 12,5 C 21,1 C 4,8 km/h (1 Bft) 100,00 %
15.06.2016 16:30 21,2 C 54 % 1001,3 hPa 0,0 l/m 2,9 km/h (1 Bft) NW 304 1 min 0,000 mm 3,1 UV-I 667 W/m 11,5 C 21,2 C 3,2 km/h (1 Bft) 100,00 %
15.06.2016 16:31 21,1 C 53 % 1001,3 hPa 0,0 l/m 3,8 km/h (1 Bft) W 269 1 min 0,000 mm 3,1 UV-I 661 W/m 11,1 C 21,1 C 6,4 km/h (2 Bft) 100,00 %
15.06.2016 16:32 21,1 C 54 % 1001,4 hPa 0,0 l/m 3,7 km/h (1 Bft) W 281 1 min 0,000 mm 3,0 UV-I 657 W/m 11,4 C 21,1 C 6,4 km/h (2 Bft) 100,00 %
15.06.2016 16:33 21,1 C 54 % 1001,4 hPa 0,0 l/m 6,8 km/h (2 Bft) W 279 1 min 0,000 mm 3,0 UV-I 656 W/m 11,4 C 21,0 C 9,7 km/h (2 Bft) 100,00 %
15.06.2016 16:34 21,1 C 55 % 1001,4 hPa 0,0 l/m 3,5 km/h (1 Bft) W 274 1 min 0,000 mm 3,0 UV-I 656 W/m 11,7 C 21,1 C 4,8 km/h (1 Bft) 95,83 %
15.06.2016 16:35 21,1 C 56 % 1001,4 hPa 0,0 l/m 5,4 km/h (1 Bft) SW 230 1 min 0,000 mm 3,0 UV-I 656 W/m 12,0 C 21,1 C 8,0 km/h (2 Bft) 100,00 %
15.06.2016 16:36 21,1 C 51 % 1001,3 hPa 0,0 l/m 5,6 km/h (1 Bft) W 264 1 min 0,000 mm 3,0 UV-I 655 W/m 10,6 C 21,1 C 9,7 km/h (2 Bft) 100,00 %
15.06.2016 16:37 21,1 C 53 % 1001,4 hPa 0,0 l/m 5,3 km/h (1 Bft) W 261 1 min 0,000 mm 3,0 UV-I 653 W/m 11,1 C 21,1 C 9,7 km/h (2 Bft) 100,00 %
15.06.2016 16:38 21,0 C 53 % 1001,3 hPa 0,0 l/m 6,0 km/h (2 Bft) W-SW 246 1 min 0,000 mm 2,9 UV-I 650 W/m 11,0 C 21,0 C 11,3 km/h (2 Bft) 100,00 %
15.06.2016 16:39 20,9 C 51 % 1001,3 hPa 0,0 l/m 4,1 km/h (1 Bft) SW 229 1 min 0,000 mm 2,9 UV-I 647 W/m 10,4 C 20,9 C 4,8 km/h (1 Bft) 100,00 %
15.06.2016 16:40 20,9 C 51 % 1001,3 hPa 0,0 l/m 3,2 km/h (1 Bft) S-SW 202 1 min 0,000 mm 2,9 UV-I 643 W/m 10,4 C 20,9 C 6,4 km/h (2 Bft) 95,83 %
15.06.2016 16:41 20,9 C 52 % 1001,4 hPa 0,0 l/m 5,0 km/h (1 Bft) S 184 1 min 0,000 mm 2,8 UV-I 642 W/m 10,7 C 20,9 C 6,4 km/h (2 Bft) 100,00 %
15.06.2016 16:42 20,9 C 53 % 1001,4 hPa 0,0 l/m 2,0 km/h (1 Bft) S 189 1 min 0,000 mm 2,8 UV-I 639 W/m 11,0 C 20,9 C 4,8 km/h (1 Bft) 100,00 %
15.06.2016 16:43 21,0 C 56 % 1001,4 hPa 0,0 l/m 4,0 km/h (1 Bft) SW 226 1 min 0,000 mm 2,8 UV-I 635 W/m 11,9 C 21,0 C 6,4 km/h (2 Bft) 100,00 %
15.06.2016 16:44 21,0 C 56 % 1001,4 hPa 0,0 l/m 6,5 km/h (2 Bft) W-SW 257 1 min 0,000 mm 2,8 UV-I 632 W/m 11,9 C 21,0 C 11,3 km/h (2 Bft) 100,00 %
15.06.2016 16:45 21,1 C 56 % 1001,4 hPa 0,0 l/m 5,2 km/h (1 Bft) SW 218 1 min 0,000 mm 2,7 UV-I 628 W/m 12,0 C 21,1 C 8,0 km/h (2 Bft) 100,00 %
15.06.2016 16:46 21,1 C 53 % 1001,4 hPa 0,0 l/m 12,3 km/h (3 Bft) W-SW 255 1 min 0,000 mm 2,7 UV-I 628 W/m 11,1 C 19,2 C 14,5 km/h (3 Bft) 96,88 %
15.06.2016 16:47 21,1 C 52 % 1001,4 hPa 0,0 l/m 6,4 km/h (2 Bft) W 273 1 min 0,000 mm 2,7 UV-I 626 W/m 10,9 C 21,1 C 11,3 km/h (2 Bft) 100,00 %
15.06.2016 16:48 21,0 C 55 % 1001,3 hPa 0,0 l/m 4,1 km/h (1 Bft) W 281 1 min 0,000 mm 2,7 UV-I 623 W/m 11,6 C 21,0 C 4,8 km/h (1 Bft) 100,00 %
15.06.2016 16:49 21,1 C 52 % 1001,4 hPa 0,0 l/m 2,2 km/h (1 Bft) W-NW 297 1 min 0,000 mm 2,7 UV-I 620 W/m 10,9 C 21,1 C 3,2 km/h (1 Bft) 100,00 %
15.06.2016 16:50 21,2 C 52 % 1001,4 hPa 0,0 l/m 0,7 km/h (0 Bft) W-NW 301 1 min 0,000 mm 2,6 UV-I 615 W/m 10,9 C 21,2 C 1,6 km/h (1 Bft) 95,65 %
15.06.2016 16:51 21,2 C 51 % 1001,4 hPa 0,0 l/m 9,5 km/h (2 Bft) W-SW 247 1 min 0,000 mm 2,6 UV-I 613 W/m 10,7 C 20,1 C 14,5 km/h (3 Bft) 100,00 %
15.06.2016 16:52 21,2 C 51 % 1001,4 hPa 0,0 l/m 6,5 km/h (2 Bft) W 265 1 min 0,000 mm 2,6 UV-I 612 W/m 10,7 C 21,2 C 9,7 km/h (2 Bft) 91,30 %
15.06.2016 16:53 21,2 C 51 % 1001,4 hPa 0,0 l/m 6,5 km/h (2 Bft) S-SW 198 1 min 0,000 mm 2,6 UV-I 609 W/m 10,7 C 21,2 C 11,3 km/h (2 Bft) 95,83 %
15.06.2016 16:54 21,1 C 49 % 1001,4 hPa 0,0 l/m 7,6 km/h (2 Bft) SW 219 1 min 0,000 mm 2,5 UV-I 605 W/m 10,0 C 20,7 C 9,7 km/h (2 Bft) 100,00 %
15.06.2016 16:55 21,0 C 53 % 1001,4 hPa 0,0 l/m 5,6 km/h (1 Bft) S-SW 195 1 min 0,000 mm 2,5 UV-I 601 W/m 11,0 C 21,0 C 8,0 km/h (2 Bft) 96,30 %
15.06.2016 16:56 20,9 C 55 % 1001,4 hPa 0,0 l/m 5,3 km/h (1 Bft) W-SW 243 1 min 0,000 mm 2,5 UV-I 598 W/m 11,5 C 20,9 C 8,0 km/h (2 Bft) 100,00 %
15.06.2016 16:57 21,0 C 52 % 1001,4 hPa 0,0 l/m 8,2 km/h (2 Bft) SW 225 1 min 0,000 mm 2,5 UV-I 596 W/m 10,8 C 20,3 C 11,3 km/h (2 Bft) 93,33 %
15.06.2016 16:58 21,0 C 52 % 1001,4 hPa 0,0 l/m 3,6 km/h (1 Bft) W-SW 238 1 min 0,000 mm 2,4 UV-I 596 W/m 10,8 C 21,0 C 9,7 km/h (2 Bft) 96,15 %
15.06.2016 16:59 21,1 C 54 % 1001,4 hPa 0,0 l/m 5,8 km/h (2 Bft) S-SW 207 1 min 0,000 mm 2,4 UV-I 590 W/m 11,4 C 21,1 C 11,3 km/h (2 Bft) 100,00 %
15.06.2016 17:00 21,1 C 53 % 1001,3 hPa 0,0 l/m 6,4 km/h (2 Bft) W-SW 254 1 min 0,000 mm 2,4 UV-I 587 W/m 11,1 C 21,1 C 12,9 km/h (3 Bft) 93,10 %
15.06.2016 17:01 21,1 C 55 % 1001,3 hPa 0,0 l/m 9,9 km/h (2 Bft) SW 225 1 min 0,406 mm 2,4 UV-I 586 W/m 11,7 C 19,9 C 12,9 km/h (3 Bft) 100,00 %
15.06.2016 17:03 21,1 C 50 % 1001,4 hPa 0,0 l/m 8,2 km/h (2 Bft) S-SW 207 2 min 0,000 mm 2,3 UV-I 579 W/m 10,3 C 20,4 C 11,3 km/h (2 Bft) 97,56 %
15.06.2016 17:04 21,1 C 52 % 1001,3 hPa 0,0 l/m 7,8 km/h (2 Bft) SW 222 1 min 0,000 mm 2,3 UV-I 575 W/m 10,9 C 20,6 C 11,3 km/h (2 Bft) 96,55 %
15.06.2016 17:05 21,1 C 52 % 1001,4 hPa 0,0 l/m 7,0 km/h (2 Bft) S-SW 195 1 min 0,000 mm 2,3 UV-I 570 W/m 10,9 C 20,9 C 9,7 km/h (2 Bft) 100,00 %
15.06.2016 17:06 21,1 C 53 % 1001,4 hPa 0,0 l/m 6,6 km/h (2 Bft) SW 235 1 min 0,000 mm 2,3 UV-I 568 W/m 11,1 C 21,0 C 8,0 km/h (2 Bft) 91,67 %
15.06.2016 17:07 21,0 C 50 % 1001,4 hPa 0,0 l/m 4,6 km/h (1 Bft) W-SW 246 1 min 0,000 mm 2,2 UV-I 567 W/m 10,2 C 21,0 C 6,4 km/h (2 Bft) 96,55 %
15.06.2016 17:08 21,0 C 50 % 1001,5 hPa 0,0 l/m 1,9 km/h (1 Bft) W-SW 246 1 min 0,000 mm 2,2 UV-I 565 W/m 10,2 C 21,0 C 3,2 km/h (1 Bft) 95,83 %
15.06.2016 17:09 21,0 C 54 % 1001,4 hPa 0,0 l/m 1,9 km/h (1 Bft) W 271 1 min 0,000 mm 2,2 UV-I 563 W/m 11,3 C 21,0 C 3,2 km/h (1 Bft) 96,15 %
15.06.2016 17:10 21,1 C 57 % 1001,4 hPa 0,0 l/m 1,9 km/h (1 Bft) NW 325 1 min 0,000 mm 2,2 UV-I 561 W/m 12,2 C 21,1 C 3,2 km/h (1 Bft) 100,00 %
15.06.2016 17:11 21,1 C 50 % 1001,4 hPa 0,0 l/m 1,7 km/h (1 Bft) N-NW 330 1 min 0,000 mm 2,2 UV-I 561 W/m 10,3 C 21,1 C 3,2 km/h (1 Bft) 95,65 %
15.06.2016 17:12 21,1 C 52 % 1001,4 hPa 0,0 l/m 1,4 km/h (1 Bft) N 11 1 min 0,000 mm 2,2 UV-I 561 W/m 10,9 C 21,1 C 4,8 km/h (1 Bft) 95,83 %
15.06.2016 17:13 21,1 C 55 % 1001,3 hPa 0,0 l/m 2,5 km/h (1 Bft) N 5 1 min 0,000 mm 2,2 UV-I 560 W/m 11,7 C 21,1 C 4,8 km/h (1 Bft) 96,15 %
15.06.2016 17:14 21,1 C 52 % 1001,3 hPa 0,0 l/m 1,9 km/h (1 Bft) N 9 1 min 0,000 mm 2,1 UV-I 555 W/m 10,9 C 21,1 C 3,2 km/h (1 Bft) 96,30 %
15.06.2016 17:15 21,2 C 56 % 1001,3 hPa 0,0 l/m 0,4 km/h (0 Bft) N 11 1 min 0,000 mm 2,1 UV-I 550 W/m 12,1 C 21,2 C 1,6 km/h (1 Bft) 100,00 %
15.06.2016 17:16 21,2 C 58 % 1001,3 hPa 0,0 l/m 1,1 km/h (1 Bft) N-NW 346 1 min 0,000 mm 2,1 UV-I 546 W/m 12,6 C 21,2 C 1,6 km/h (1 Bft) 100,00 %
15.06.2016 17:17 21,2 C 51 % 1001,3 hPa 0,0 l/m 2,9 km/h (1 Bft) W-NW 292 1 min 0,000 mm 2,1 UV-I 542 W/m 10,7 C 21,2 C 4,8 km/h (1 Bft) 96,15 %
15.06.2016 17:18 21,3 C 54 % 1001,3 hPa 0,0 l/m 2,2 km/h (1 Bft) NW 305 1 min 0,000 mm 2,0 UV-I 540 W/m 11,6 C 21,3 C 3,2 km/h (1 Bft) 95,83 %
15.06.2016 17:19 21,2 C 51 % 1001,3 hPa 0,0 l/m 1,7 km/h (1 Bft) NW 317 1 min 0,000 mm 2,0 UV-I 536 W/m 10,7 C 21,2 C 3,2 km/h (1 Bft) 100,00 %
15.06.2016 17:20 21,2 C 52 % 1001,3 hPa 0,0 l/m 2,2 km/h (1 Bft) NW 306 1 min 0,000 mm 2,0 UV-I 532 W/m 10,9 C 21,2 C 4,8 km/h (1 Bft) 100,00 %
15.06.2016 17:21 21,2 C 53 % 1001,3 hPa 0,0 l/m 2,7 km/h (1 Bft) NW 307 1 min 0,000 mm 2,0 UV-I 528 W/m 11,2 C 21,2 C 4,8 km/h (1 Bft) 95,65 %
15.06.2016 17:22 21,2 C 51 % 1001,3 hPa 0,0 l/m 1,4 km/h (1 Bft) NW 319 1 min 0,000 mm 2,0 UV-I 526 W/m 10,7 C 21,2 C 3,2 km/h (1 Bft) 91,67 %
15.06.2016 17:23 21,2 C 54 % 1001,3 hPa 0,0 l/m 0,7 km/h (0 Bft) NW 324 1 min 0,000 mm 1,9 UV-I 524 W/m 11,5 C 21,2 C 1,6 km/h (1 Bft) 100,00 %
15.06.2016 17:24 21,2 C 51 % 1001,3 hPa 0,0 l/m 1,9 km/h (1 Bft) NW 306 1 min 0,000 mm 1,9 UV-I 520 W/m 10,7 C 21,2 C 4,8 km/h (1 Bft) 96,30 %
15.06.2016 17:25 21,2 C 50 % 1001,3 hPa 0,0 l/m 2,5 km/h (1 Bft) NW 308 1 min 0,000 mm 1,9 UV-I 518 W/m 10,4 C 21,2 C 4,8 km/h (1 Bft) 95,65 %
15.06.2016 17:26 21,1 C 53 % 1001,3 hPa 0,0 l/m 1,9 km/h (1 Bft) W 281 1 min 0,000 mm 1,9 UV-I 518 W/m 11,1 C 21,1 C 3,2 km/h (1 Bft) 100,00 %
15.06.2016 17:27 21,1 C 52 % 1001,3 hPa 0,0 l/m 4,5 km/h (1 Bft) W 271 1 min 0,000 mm 1,9 UV-I 519 W/m 10,9 C 21,1 C 9,7 km/h (2 Bft) 100,00 %
15.06.2016 17:28 21,1 C 50 % 1001,3 hPa 0,0 l/m 2,5 km/h (1 Bft) W 271 1 min 0,000 mm 1,8 UV-I 513 W/m 10,3 C 21,1 C 4,8 km/h (1 Bft) 100,00 %
15.06.2016 17:29 21,1 C 57 % 1001,2 hPa 0,0 l/m 2,0 km/h (1 Bft) O-NO 58 1 min 0,000 mm 1,8 UV-I 513 W/m 12,2 C 21,1 C 8,0 km/h (2 Bft) 100,00 %
15.06.2016 17:30 21,1 C 56 % 1001,2 hPa 0,0 l/m 10,5 km/h (2 Bft) N 11 1 min 0,000 mm 1,8 UV-I 519 W/m 12,0 C 19,7 C 14,5 km/h (3 Bft) 100,00 %
15.06.2016 17:31 21,1 C 57 % 1001,2 hPa 0,0 l/m 3,0 km/h (1 Bft) N 9 1 min 0,000 mm 1,8 UV-I 521 W/m 12,2 C 21,1 C 4,8 km/h (1 Bft) 95,83 %
15.06.2016 17:32 21,0 C 53 % 1001,2 hPa 0,0 l/m 3,2 km/h (1 Bft) N 355 1 min 0,000 mm 1,8 UV-I 509 W/m 11,0 C 21,0 C 6,4 km/h (2 Bft) 100,00 %
15.06.2016 17:33 20,9 C 58 % 1001,2 hPa 0,0 l/m 6,6 km/h (2 Bft) NO 46 1 min 0,000 mm 1,7 UV-I 501 W/m 12,3 C 20,8 C 12,9 km/h (3 Bft) 100,00 %
15.06.2016 17:34 20,9 C 57 % 1001,2 hPa 0,0 l/m 8,6 km/h (2 Bft) NO 46 1 min 0,000 mm 1,7 UV-I 497 W/m 12,1 C 20,1 C 11,3 km/h (2 Bft) 98,59 %
15.06.2016 17:35 20,9 C 56 % 1001,1 hPa 0,0 l/m 5,5 km/h (1 Bft) NO 40 1 min 0,000 mm 1,7 UV-I 495 W/m 11,8 C 20,9 C 9,7 km/h (2 Bft) 100,00 %
15.06.2016 17:36 20,9 C 56 % 1001,1 hPa 0,0 l/m 6,3 km/h (2 Bft) NO 41 1 min 0,000 mm 1,7 UV-I 492 W/m 11,8 C 20,9 C 9,7 km/h (2 Bft) 100,00 %
15.06.2016 17:37 21,0 C 58 % 1001,1 hPa 0,0 l/m 10,1 km/h (2 Bft) N-NO 30 1 min 0,000 mm 1,7 UV-I 488 W/m 12,4 C 19,7 C 12,9 km/h (3 Bft) 100,00 %
15.06.2016 17:38 21,1 C 60 % 1001,1 hPa 0,0 l/m 8,2 km/h (2 Bft) NO 40 1 min 0,000 mm 1,6 UV-I 484 W/m 13,0 C 20,4 C 14,5 km/h (3 Bft) 100,00 %
15.06.2016 17:39 21,1 C 59 % 1001,1 hPa 0,0 l/m 8,3 km/h (2 Bft) NO 40 1 min 0,000 mm 1,6 UV-I 482 W/m 12,8 C 20,4 C 11,3 km/h (2 Bft) 96,30 %
15.06.2016 17:40 21,1 C 57 % 1001,1 hPa 0,0 l/m 7,5 km/h (2 Bft) NO 37 1 min 0,000 mm 1,6 UV-I 483 W/m 12,2 C 20,7 C 9,7 km/h (2 Bft) 98,59 %
15.06.2016 17:41 21,1 C 56 % 1001,2 hPa 0,0 l/m 3,1 km/h (1 Bft) N 10 1 min 0,000 mm 1,6 UV-I 483 W/m 12,0 C 21,1 C 4,8 km/h (1 Bft) 100,00 %
15.06.2016 17:42 21,1 C 55 % 1001,2 hPa 0,0 l/m 1,6 km/h (1 Bft) N 10 1 min 0,000 mm 1,6 UV-I 481 W/m 11,7 C 21,1 C 3,2 km/h (1 Bft) 95,65 %
15.06.2016 17:43 21,0 C 56 % 1001,2 hPa 0,0 l/m 2,5 km/h (1 Bft) N-NO 19 1 min 0,000 mm 1,6 UV-I 479 W/m 11,9 C 21,0 C 4,8 km/h (1 Bft) 100,00 %
15.06.2016 17:44 21,1 C 59 % 1001,3 hPa 0,0 l/m 3,3 km/h (1 Bft) N 5 1 min 0,000 mm 1,5 UV-I 480 W/m 12,8 C 21,1 C 6,4 km/h (2 Bft) 100,00 %
15.06.2016 17:45 21,0 C 55 % 1001,3 hPa 0,0 l/m 4,4 km/h (1 Bft) N-NO 15 1 min 0,000 mm 1,5 UV-I 476 W/m 11,6 C 21,0 C 8,0 km/h (2 Bft) 100,00 %
15.06.2016 17:46 21,0 C 54 % 1001,3 hPa 0,0 l/m 0,5 km/h (0 Bft) N-NO 15 1 min 0,000 mm 1,5 UV-I 470 W/m 11,3 C 21,0 C 1,6 km/h (1 Bft) 100,00 %
15.06.2016 17:47 20,9 C 51 % 1001,3 hPa 0,0 l/m 0,5 km/h (0 Bft) N-NO 15 1 min 0,000 mm 1,5 UV-I 462 W/m 10,4 C 20,9 C 1,6 km/h (1 Bft) 100,00 %
15.06.2016 17:48 20,9 C 53 % 1001,3 hPa 0,0 l/m 0,7 km/h (0 Bft) N-NO 15 1 min 0,000 mm 1,4 UV-I 457 W/m 11,0 C 20,9 C 1,6 km/h (1 Bft) 100,00 %
15.06.2016 17:49 20,9 C 54 % 1001,3 hPa 0,0 l/m 1,6 km/h (1 Bft) NO 40 1 min 0,000 mm 1,4 UV-I 454 W/m 11,2 C 20,9 C 4,8 km/h (1 Bft) 100,00 %
15.06.2016 17:50 20,9 C 55 % 1001,4 hPa 0,0 l/m 2,1 km/h (1 Bft) NO 41 1 min 0,000 mm 1,4 UV-I 452 W/m 11,5 C 20,9 C 3,2 km/h (1 Bft) 100,00 %
15.06.2016 17:51 21,1 C 56 % 1001,4 hPa 0,0 l/m 5,4 km/h (1 Bft) NO 40 1 min 0,000 mm 1,3 UV-I 452 W/m 12,0 C 21,1 C 8,0 km/h (2 Bft) 100,00 %
15.06.2016 17:52 21,1 C 55 % 1001,4 hPa 0,0 l/m 7,9 km/h (2 Bft) O-NO 57 1 min 0,000 mm 1,3 UV-I 452 W/m 11,7 C 20,5 C 9,7 km/h (2 Bft) 100,00 %
15.06.2016 17:53 21,1 C 54 % 1001,4 hPa 0,0 l/m 5,9 km/h (2 Bft) NO 54 1 min 0,000 mm 1,3 UV-I 450 W/m 11,4 C 21,1 C 8,0 km/h (2 Bft) 100,00 %
15.06.2016 17:54 21,1 C 56 % 1001,4 hPa 0,0 l/m 6,0 km/h (2 Bft) NO 53 1 min 0,000 mm 1,3 UV-I 449 W/m 12,0 C 21,1 C 8,0 km/h (2 Bft) 100,00 %
15.06.2016 17:55 21,1 C 57 % 1001,4 hPa 0,0 l/m 7,2 km/h (2 Bft) N-NO 23 1 min 0,000 mm 1,3 UV-I 451 W/m 12,2 C 20,8 C 8,0 km/h (2 Bft) 100,00 %
15.06.2016 17:56 21,1 C 55 % 1001,4 hPa 0,0 l/m 2,6 km/h (1 Bft) NW 325 1 min 0,000 mm 1,3 UV-I 450 W/m 11,7 C 21,1 C 4,8 km/h (1 Bft) 100,00 %
15.06.2016 17:57 21,1 C 56 % 1001,4 hPa 0,0 l/m 2,8 km/h (1 Bft) N 355 1 min 0,000 mm 1,2 UV-I 451 W/m 12,0 C 21,1 C 4,8 km/h (1 Bft) 100,00 %
15.06.2016 17:58 21,0 C 58 % 1001,4 hPa 0,0 l/m 3,1 km/h (1 Bft) N-NO 27 1 min 0,000 mm 1,2 UV-I 447 W/m 12,4 C 21,0 C 6,4 km/h (2 Bft) 100,00 %
15.06.2016 17:59 20,9 C 61 % 1001,4 hPa 0,0 l/m 1,5 km/h (1 Bft) N-NO 22 1 min 0,000 mm 1,2 UV-I 443 W/m 13,1 C 20,9 C 3,2 km/h (1 Bft) 92,31 %
15.06.2016 18:00 20,9 C 61 % 1001,4 hPa 0,0 l/m 2,3 km/h (1 Bft) N-NW 329 1 min 0,000 mm 1,2 UV-I 439 W/m 13,1 C 20,9 C 4,8 km/h (1 Bft) 100,00 %
15.06.2016 18:02 20,9 C 59 % 1001,5 hPa 0,0 l/m 2,3 km/h (1 Bft) N-NO 27 2 min 0,331 mm 1,2 UV-I 426 W/m 12,6 C 20,9 C 9,7 km/h (2 Bft) 100,00 %
15.06.2016 18:03 20,9 C 58 % 1001,5 hPa 0,0 l/m 4,8 km/h (1 Bft) N-NO 23 1 min 0,000 mm 1,1 UV-I 430 W/m 12,3 C 20,9 C 9,7 km/h (2 Bft) 100,00 %
15.06.2016 18:04 20,8 C 59 % 1001,5 hPa 0,0 l/m 3,6 km/h (1 Bft) N-NO 21 1 min 0,000 mm 1,1 UV-I 424 W/m 12,5 C 20,8 C 6,4 km/h (2 Bft) 100,00 %
15.06.2016 18:05 20,8 C 58 % 1001,5 hPa 0,0 l/m 1,7 km/h (1 Bft) N-NO 22 1 min 0,000 mm 0,8 UV-I 255 W/m 12,2 C 20,8 C 3,2 km/h (1 Bft) 100,00 %
15.06.2016 18:06 20,8 C 58 % 1001,5 hPa 0,0 l/m 5,5 km/h (1 Bft) NO 40 0 min 0,000 mm 0,4 UV-I 55 W/m 12,2 C 20,8 C 8,0 km/h (2 Bft) 92,31 %
15.06.2016 18:07 20,7 C 57 % 1001,5 hPa 0,0 l/m 4,5 km/h (1 Bft) NO 49 0 min 0,000 mm 0,0 UV-I 53 W/m 11,9 C 20,7 C 4,8 km/h (1 Bft) 100,00 %
15.06.2016 18:08 20,6 C 57 % 1001,4 hPa 0,0 l/m 4,2 km/h (1 Bft) NO 49 0 min 0,000 mm 0,5 UV-I 56 W/m 11,8 C 20,6 C 4,8 km/h (1 Bft) 100,00 %
15.06.2016 18:09 20,4 C 57 % 1001,4 hPa 0,0 l/m 1,7 km/h (1 Bft) NO 49 0 min 0,000 mm 0,8 UV-I 64 W/m 11,6 C 20,4 C 4,8 km/h (1 Bft) 100,00 %
15.06.2016 18:10 20,4 C 54 % 1001,4 hPa 0,0 l/m 3,6 km/h (1 Bft) NO 49 0 min 0,000 mm 0,8 UV-I 71 W/m 10,8 C 20,4 C 4,8 km/h (1 Bft) 100,00 %
15.06.2016 18:11 20,3 C 55 % 1001,5 hPa 0,0 l/m 4,5 km/h (1 Bft) NO 49 0 min 0,000 mm 0,8 UV-I 73 W/m 11,0 C 20,3 C 6,4 km/h (2 Bft) 100,00 %
15.06.2016 18:12 20,3 C 58 % 1001,5 hPa 0,0 l/m 4,2 km/h (1 Bft) NO 47 0 min 0,000 mm 0,8 UV-I 70 W/m 11,8 C 20,3 C 4,8 km/h (1 Bft) 100,00 %
15.06.2016 18:13 20,2 C 56 % 1001,5 hPa 0,0 l/m 2,7 km/h (1 Bft) NO 47 0 min 0,000 mm 0,8 UV-I 75 W/m 11,1 C 20,2 C 4,8 km/h (1 Bft) 100,00 %
15.06.2016 18:14 20,2 C 56 % 1001,5 hPa 0,0 l/m 2,6 km/h (1 Bft) NO 47 0 min 0,000 mm 0,8 UV-I 85 W/m 11,1 C 20,2 C 4,8 km/h (1 Bft) 100,00 %
15.06.2016 18:15 20,2 C 55 % 1001,5 hPa 0,0 l/m 1,3 km/h (1 Bft) NO 47 1 min 0,000 mm 0,8 UV-I 291 W/m 10,9 C 20,2 C 3,2 km/h (1 Bft) 100,00 %
15.06.2016 18:16 20,2 C 59 % 1001,5 hPa 0,0 l/m 0,8 km/h (0 Bft) NO 45 1 min 0,000 mm 0,9 UV-I 304 W/m 11,9 C 20,2 C 1,6 km/h (1 Bft) 98,63 %
15.06.2016 18:17 20,2 C 60 % 1001,5 hPa 0,0 l/m 0,4 km/h (0 Bft) NO 45 0 min 0,000 mm 0,8 UV-I 193 W/m 12,2 C 20,2 C 1,6 km/h (1 Bft) 100,00 %
15.06.2016 18:18 20,2 C 59 % 1001,5 hPa 0,0 l/m 0,1 km/h (0 Bft) NO 45 0 min 0,000 mm 0,8 UV-I 110 W/m 11,9 C 20,2 C 1,6 km/h (1 Bft) 100,00 %
15.06.2016 18:19 20,1 C 60 % 1001,5 hPa 0,0 l/m 0,8 km/h (0 Bft) NO 45 0 min 0,000 mm 0,8 UV-I 111 W/m 12,1 C 20,1 C 1,6 km/h (1 Bft) 100,00 %
15.06.2016 18:20 20,1 C 58 % 1001,5 hPa 0,0 l/m 2,4 km/h (1 Bft) NO 49 0 min 0,000 mm 0,8 UV-I 171 W/m 11,6 C 20,1 C 4,8 km/h (1 Bft) 100,00 %
15.06.2016 18:21 20,1 C 59 % 1001,6 hPa 0,0 l/m 3,7 km/h (1 Bft) O-NO 66 0 min 0,000 mm 0,9 UV-I 200 W/m 11,8 C 20,1 C 6,4 km/h (2 Bft) 100,00 %
15.06.2016 18:22 20,2 C 62 % 1001,5 hPa 0,0 l/m 6,4 km/h (2 Bft) O 82 1 min 0,000 mm 0,9 UV-I 428 W/m 12,7 C 20,2 C 8,0 km/h (2 Bft) 100,00 %
15.06.2016 18:23 20,2 C 61 % 1001,6 hPa 0,0 l/m 4,9 km/h (1 Bft) O 86 1 min 0,000 mm 0,8 UV-I 424 W/m 12,4 C 20,2 C 8,0 km/h (2 Bft) 100,00 %
15.06.2016 18:24 20,2 C 59 % 1001,6 hPa 0,0 l/m 3,6 km/h (1 Bft) O-NO 74 1 min 0,000 mm 0,7 UV-I 239 W/m 11,9 C 20,2 C 6,4 km/h (2 Bft) 100,00 %
15.06.2016 18:25 20,2 C 56 % 1001,6 hPa 0,0 l/m 6,5 km/h (2 Bft) NO 55 0 min 0,000 mm 0,7 UV-I 118 W/m 11,1 C 20,2 C 8,0 km/h (2 Bft) 100,00 %
15.06.2016 18:26 20,3 C 57 % 1001,6 hPa 0,0 l/m 5,9 km/h (2 Bft) O-NO 59 0 min 0,000 mm 0,8 UV-I 133 W/m 11,5 C 20,3 C 8,0 km/h (2 Bft) 100,00 %
15.06.2016 18:27 20,3 C 56 % 1001,6 hPa 0,0 l/m 5,6 km/h (1 Bft) O-NO 67 1 min 0,000 mm 0,7 UV-I 261 W/m 11,2 C 20,3 C 6,4 km/h (2 Bft) 95,83 %
15.06.2016 18:28 20,4 C 57 % 1001,6 hPa 0,0 l/m 3,3 km/h (1 Bft) O-NO 67 1 min 0,000 mm 0,7 UV-I 243 W/m 11,6 C 20,4 C 4,8 km/h (1 Bft) 100,00 %
15.06.2016 18:29 20,4 C 62 % 1001,6 hPa 0,0 l/m 6,0 km/h (2 Bft) O-NO 65 1 min 0,000 mm 0,8 UV-I 341 W/m 12,9 C 20,4 C 8,0 km/h (2 Bft) 100,00 %
15.06.2016 18:30 20,5 C 62 % 1001,6 hPa 0,0 l/m 4,7 km/h (1 Bft) O 95 1 min 0,000 mm 0,8 UV-I 420 W/m 13,0 C 20,5 C 6,4 km/h (2 Bft) 100,00 %
15.06.2016 18:31 20,6 C 60 % 1001,6 hPa 0,0 l/m 6,8 km/h (2 Bft) O-NO 78 1 min 0,000 mm 0,7 UV-I 418 W/m 12,6 C 20,4 C 12,9 km/h (3 Bft) 100,00 %
15.06.2016 18:32 20,6 C 59 % 1001,6 hPa 0,0 l/m 8,0 km/h (2 Bft) O-NO 71 1 min 0,000 mm 0,7 UV-I 418 W/m 12,3 C 20,0 C 11,3 km/h (2 Bft) 100,00 %
15.06.2016 18:33 20,6 C 61 % 1001,6 hPa 0,0 l/m 4,2 km/h (1 Bft) O 80 1 min 0,000 mm 0,8 UV-I 418 W/m 12,8 C 20,6 C 6,4 km/h (2 Bft) 100,00 %
15.06.2016 18:34 20,6 C 57 % 1001,7 hPa 0,0 l/m 2,8 km/h (1 Bft) O-NO 76 1 min 0,000 mm 0,7 UV-I 419 W/m 11,8 C 20,6 C 4,8 km/h (1 Bft) 100,00 %
15.06.2016 18:35 20,6 C 58 % 1001,7 hPa 0,0 l/m 3,6 km/h (1 Bft) O 95 1 min 0,000 mm 0,7 UV-I 426 W/m 12,0 C 20,6 C 6,4 km/h (2 Bft) 95,65 %
15.06.2016 18:36 20,7 C 59 % 1001,7 hPa 0,0 l/m 7,0 km/h (2 Bft) O 89 1 min 0,000 mm 0,7 UV-I 410 W/m 12,4 C 20,5 C 11,3 km/h (2 Bft) 100,00 %
15.06.2016 18:37 20,7 C 57 % 1001,7 hPa 0,0 l/m 5,8 km/h (2 Bft) O 96 1 min 0,000 mm 0,6 UV-I 356 W/m 11,9 C 20,7 C 8,0 km/h (2 Bft) 100,00 %
15.06.2016 18:38 20,7 C 54 % 1001,7 hPa 0,0 l/m 6,0 km/h (2 Bft) O-NO 70 1 min 0,000 mm 0,6 UV-I 412 W/m 11,1 C 20,7 C 8,0 km/h (2 Bft) 100,00 %
15.06.2016 18:39 20,8 C 58 % 1001,7 hPa 0,0 l/m 4,8 km/h (1 Bft) O-SO 105 1 min 0,000 mm 0,6 UV-I 429 W/m 12,2 C 20,8 C 6,4 km/h (2 Bft) 100,00 %
15.06.2016 18:40 20,8 C 57 % 1001,8 hPa 0,0 l/m 4,2 km/h (1 Bft) O-SO 102 1 min 0,000 mm 0,6 UV-I 430 W/m 12,0 C 20,8 C 6,4 km/h (2 Bft) 95,83 %
15.06.2016 18:41 20,8 C 57 % 1001,7 hPa 0,0 l/m 4,5 km/h (1 Bft) O-SO 109 1 min 0,000 mm 0,6 UV-I 430 W/m 12,0 C 20,8 C 6,4 km/h (2 Bft) 100,00 %
15.06.2016 18:42 20,8 C 56 % 1001,8 hPa 0,0 l/m 9,6 km/h (2 Bft) O 96 1 min 0,000 mm 0,6 UV-I 421 W/m 11,7 C 19,6 C 12,9 km/h (3 Bft) 100,00 %
15.06.2016 18:43 20,8 C 55 % 1001,7 hPa 0,0 l/m 5,2 km/h (1 Bft) O-SO 109 1 min 0,000 mm 0,5 UV-I 337 W/m 11,4 C 20,8 C 9,7 km/h (2 Bft) 100,00 %
15.06.2016 18:44 20,8 C 56 % 1001,7 hPa 0,0 l/m 6,4 km/h (2 Bft) O 88 1 min 0,000 mm 0,5 UV-I 335 W/m 11,7 C 20,8 C 9,7 km/h (2 Bft) 92,59 %
15.06.2016 18:45 20,8 C 55 % 1001,7 hPa 0,0 l/m 7,6 km/h (2 Bft) O-SO 115 1 min 0,000 mm 0,5 UV-I 349 W/m 11,4 C 20,3 C 9,7 km/h (2 Bft) 100,00 %
15.06.2016 18:46 20,8 C 54 % 1001,7 hPa 0,0 l/m 6,6 km/h (2 Bft) SO 124 1 min 0,000 mm 0,5 UV-I 336 W/m 11,1 C 20,7 C 9,7 km/h (2 Bft) 91,30 %
15.06.2016 18:47 20,7 C 54 % 1001,7 hPa 0,0 l/m 5,6 km/h (1 Bft) O-SO 108 1 min 0,000 mm 0,2 UV-I 196 W/m 11,1 C 20,7 C 6,4 km/h (2 Bft) 100,00 %
15.06.2016 18:48 20,7 C 58 % 1001,7 hPa 0,0 l/m 4,8 km/h (1 Bft) O-SO 123 0 min 0,000 mm 0,0 UV-I 178 W/m 12,1 C 20,7 C 6,4 km/h (2 Bft) 95,65 %
15.06.2016 18:49 20,7 C 56 % 1001,8 hPa 0,0 l/m 5,3 km/h (1 Bft) O-SO 110 1 min 0,000 mm 0,0 UV-I 258 W/m 11,6 C 20,7 C 8,0 km/h (2 Bft) 100,00 %
15.06.2016 18:50 20,6 C 59 % 1001,8 hPa 0,0 l/m 4,5 km/h (1 Bft) O 88 1 min 0,000 mm 0,0 UV-I 265 W/m 12,3 C 20,6 C 6,4 km/h (2 Bft) 95,65 %
15.06.2016 18:51 20,6 C 59 % 1001,8 hPa 0,0 l/m 7,2 km/h (2 Bft) O 89 1 min 0,000 mm 0,0 UV-I 224 W/m 12,3 C 20,3 C 12,9 km/h (3 Bft) 100,00 %
15.06.2016 18:52 20,6 C 59 % 1001,8 hPa 0,0 l/m 5,6 km/h (1 Bft) O-SO 115 1 min 0,000 mm 0,0 UV-I 230 W/m 12,3 C 20,6 C 9,7 km/h (2 Bft) 92,31 %
15.06.2016 18:53 20,5 C 56 % 1001,8 hPa 0,0 l/m 5,0 km/h (1 Bft) O-SO 113 1 min 0,000 mm 0,0 UV-I 212 W/m 11,4 C 20,5 C 6,4 km/h (2 Bft) 100,00 %
15.06.2016 18:54 20,5 C 57 % 1001,8 hPa 0,0 l/m 7,1 km/h (2 Bft) O-SO 106 1 min 0,000 mm 0,0 UV-I 204 W/m 11,7 C 20,2 C 11,3 km/h (2 Bft) 96,55 %
15.06.2016 18:55 20,5 C 57 % 1001,8 hPa 0,0 l/m 8,3 km/h (2 Bft) O-SO 123 1 min 0,000 mm 0,0 UV-I 226 W/m 11,7 C 19,8 C 11,3 km/h (2 Bft) 100,00 %
15.06.2016 18:56 20,5 C 55 % 1001,8 hPa 0,0 l/m 6,0 km/h (2 Bft) O-NO 60 1 min 0,000 mm 0,0 UV-I 229 W/m 11,1 C 20,5 C 8,0 km/h (2 Bft) 96,15 %
15.06.2016 18:57 20,5 C 60 % 1001,8 hPa 0,0 l/m 6,3 km/h (2 Bft) O-NO 63 1 min 0,000 mm 0,1 UV-I 288 W/m 12,5 C 20,5 C 8,0 km/h (2 Bft) 96,30 %
15.06.2016 18:58 20,5 C 56 % 1001,8 hPa 0,0 l/m 5,3 km/h (1 Bft) O-NO 66 1 min 0,000 mm 0,3 UV-I 274 W/m 11,4 C 20,5 C 8,0 km/h (2 Bft) 100,00 %
15.06.2016 18:59 20,6 C 55 % 1001,8 hPa 0,0 l/m 5,3 km/h (1 Bft) O-NO 74 1 min 0,000 mm 0,3 UV-I 279 W/m 11,2 C 20,6 C 6,4 km/h (2 Bft) 92,59 %
15.06.2016 19:00 20,6 C 55 % 1001,8 hPa 0,0 l/m 5,6 km/h (1 Bft) NO 38 1 min 0,000 mm 0,2 UV-I 291 W/m 11,2 C 20,6 C 8,0 km/h (2 Bft) 95,65 %
15.06.2016 19:02 20,7 C 59 % 1001,7 hPa 0,0 l/m 7,9 km/h (2 Bft) NO 44 2 min 0,177 mm 0,4 UV-I 290 W/m 12,4 C 20,1 C 12,9 km/h (3 Bft) 98,00 %
15.06.2016 19:03 20,7 C 59 % 1001,7 hPa 0,0 l/m 9,7 km/h (2 Bft) NO 34 1 min 0,000 mm 0,4 UV-I 266 W/m 12,4 C 19,5 C 11,3 km/h (2 Bft) 100,00 %
15.06.2016 19:04 20,6 C 60 % 1001,7 hPa 0,0 l/m 7,9 km/h (2 Bft) O-NO 57 1 min 0,000 mm 0,0 UV-I 247 W/m 12,6 C 20,0 C 9,7 km/h (2 Bft) 91,67 %
15.06.2016 19:05 20,6 C 58 % 1001,7 hPa 0,0 l/m 7,9 km/h (2 Bft) NO 53 1 min 0,000 mm 0,0 UV-I 258 W/m 12,0 C 20,0 C 11,3 km/h (2 Bft) 100,00 %
15.06.2016 19:06 20,6 C 59 % 1001,8 hPa 0,0 l/m 10,0 km/h (2 Bft) N-NO 33 1 min 0,000 mm 0,0 UV-I 211 W/m 12,3 C 19,3 C 14,5 km/h (3 Bft) 96,15 %
15.06.2016 19:07 20,6 C 59 % 1001,8 hPa 0,0 l/m 7,6 km/h (2 Bft) NO 38 1 min 0,000 mm 0,0 UV-I 230 W/m 12,3 C 20,1 C 9,7 km/h (2 Bft) 100,00 %
15.06.2016 19:08 20,6 C 59 % 1001,8 hPa 0,0 l/m 6,0 km/h (2 Bft) NO 52 1 min 0,000 mm 0,0 UV-I 225 W/m 12,3 C 20,6 C 9,7 km/h (2 Bft) 95,83 %
15.06.2016 19:09 20,6 C 58 % 1001,8 hPa 0,0 l/m 7,4 km/h (2 Bft) O-NO 60 1 min 0,000 mm 0,0 UV-I 213 W/m 12,0 C 20,2 C 12,9 km/h (3 Bft) 96,15 %
15.06.2016 19:10 20,6 C 57 % 1001,8 hPa 0,0 l/m 9,4 km/h (2 Bft) O-NO 65 1 min 0,000 mm 0,0 UV-I 211 W/m 11,8 C 19,5 C 14,5 km/h (3 Bft) 100,00 %
15.06.2016 19:11 20,6 C 57 % 1001,8 hPa 0,0 l/m 8,2 km/h (2 Bft) O-NO 61 1 min 0,000 mm 0,0 UV-I 187 W/m 11,8 C 19,9 C 9,7 km/h (2 Bft) 96,15 %
15.06.2016 19:12 20,5 C 58 % 1001,9 hPa 0,0 l/m 9,1 km/h (2 Bft) NO 43 1 min 0,000 mm 0,0 UV-I 183 W/m 11,9 C 19,5 C 14,5 km/h (3 Bft) 100,00 %
15.06.2016 19:13 20,4 C 56 % 1001,9 hPa 0,0 l/m 8,1 km/h (2 Bft) NO 49 1 min 0,000 mm 0,0 UV-I 187 W/m 11,3 C 19,7 C 11,3 km/h (2 Bft) 95,65 %
15.06.2016 19:14 20,4 C 56 % 1001,9 hPa 0,0 l/m 6,4 km/h (2 Bft) N-NO 31 1 min 0,000 mm 0,0 UV-I 213 W/m 11,3 C 20,4 C 8,0 km/h (2 Bft) 100,00 %
15.06.2016 19:15 20,4 C 59 % 1001,9 hPa 0,0 l/m 7,7 km/h (2 Bft) O-NO 64 1 min 0,000 mm 0,0 UV-I 202 W/m 12,1 C 19,9 C 9,7 km/h (2 Bft) 90,91 %
15.06.2016 19:16 20,4 C 56 % 1001,8 hPa 0,0 l/m 8,1 km/h (2 Bft) NO 56 1 min 0,000 mm 0,0 UV-I 185 W/m 11,3 C 19,7 C 11,3 km/h (2 Bft) 100,00 %
15.06.2016 19:17 20,4 C 57 % 1001,9 hPa 0,0 l/m 8,0 km/h (2 Bft) NO 44 1 min 0,000 mm 0,0 UV-I 155 W/m 11,6 C 19,8 C 12,9 km/h (3 Bft) 92,31 %
15.06.2016 19:18 20,3 C 58 % 1001,8 hPa 0,0 l/m 7,0 km/h (2 Bft) NO 42 1 min 0,000 mm 0,0 UV-I 142 W/m 11,8 C 20,1 C 9,7 km/h (2 Bft) 96,30 %
15.06.2016 19:19 20,3 C 60 % 1001,9 hPa 0,0 l/m 7,1 km/h (2 Bft) NO 36 1 min 0,000 mm 0,0 UV-I 148 W/m 12,3 C 20,0 C 11,3 km/h (2 Bft) 98,59 %
15.06.2016 19:20 20,2 C 59 % 1001,9 hPa 0,0 l/m 6,7 km/h (2 Bft) NO 40 0 min 0,000 mm 0,0 UV-I 126 W/m 11,9 C 20,1 C 9,7 km/h (2 Bft) 100,00 %
15.06.2016 19:21 20,1 C 61 % 1001,9 hPa 0,0 l/m 11,3 km/h (2 Bft) NO 45 0 min 0,000 mm 0,0 UV-I 80 W/m 12,3 C 18,3 C 16,1 km/h (3 Bft) 100,00 %
15.06.2016 19:22 19,9 C 62 % 1001,9 hPa 0,0 l/m 7,6 km/h (2 Bft) NO 51 0 min 0,000 mm 0,0 UV-I 80 W/m 12,4 C 19,4 C 11,3 km/h (2 Bft) 96,15 %
15.06.2016 19:23 19,8 C 61 % 1001,9 hPa 0,0 l/m 10,7 km/h (2 Bft) NO 37 0 min 0,000 mm 0,0 UV-I 98 W/m 12,1 C 18,2 C 14,5 km/h (3 Bft) 100,00 %
15.06.2016 19:24 19,7 C 62 % 1002,0 hPa 0,0 l/m 8,4 km/h (2 Bft) NO 47 0 min 0,000 mm 0,0 UV-I 76 W/m 12,2 C 18,9 C 11,3 km/h (2 Bft) 100,00 %
15.06.2016 19:25 19,6 C 62 % 1002,0 hPa 0,0 l/m 6,2 km/h (2 Bft) NO 41 0 min 0,000 mm 0,0 UV-I 62 W/m 12,1 C 19,6 C 8,0 km/h (2 Bft) 100,00 %
15.06.2016 19:26 19,5 C 63 % 1002,0 hPa 0,0 l/m 6,2 km/h (2 Bft) NO 40 0 min 0,000 mm 0,0 UV-I 62 W/m 12,3 C 19,5 C 9,7 km/h (2 Bft) 100,00 %
15.06.2016 19:27 19,3 C 63 % 1002,1 hPa 0,0 l/m 4,0 km/h (1 Bft) N-NO 23 0 min 0,000 mm 0,0 UV-I 62 W/m 12,1 C 19,3 C 6,4 km/h (2 Bft) 96,30 %
15.06.2016 19:28 19,2 C 63 % 1002,1 hPa 0,0 l/m 6,5 km/h (2 Bft) N-NO 23 0 min 0,000 mm 0,0 UV-I 62 W/m 12,0 C 19,2 C 8,0 km/h (2 Bft) 100,00 %
15.06.2016 19:29 19,2 C 64 % 1002,1 hPa 0,0 l/m 8,4 km/h (2 Bft) N-NO 24 0 min 0,000 mm 0,0 UV-I 62 W/m 12,2 C 18,4 C 12,9 km/h (3 Bft) 100,00 %
15.06.2016 19:30 19,1 C 64 % 1002,2 hPa 0,0 l/m 10,4 km/h (2 Bft) N-NO 28 0 min 0,000 mm 0,0 UV-I 60 W/m 12,1 C 17,5 C 14,5 km/h (3 Bft) 100,00 %
15.06.2016 19:31 19,1 C 64 % 1002,2 hPa 0,0 l/m 4,8 km/h (1 Bft) N-NO 20 0 min 0,000 mm 0,0 UV-I 58 W/m 12,1 C 19,1 C 8,0 km/h (2 Bft) 100,00 %
15.06.2016 19:32 18,9 C 65 % 1002,2 hPa 0,0 l/m 2,8 km/h (1 Bft) N-NO 23 0 min 0,000 mm 0,0 UV-I 59 W/m 12,2 C 18,9 C 6,4 km/h (2 Bft) 100,00 %
15.06.2016 19:33 18,8 C 66 % 1002,3 hPa 0,0 l/m 1,2 km/h (1 Bft) N-NO 20 0 min 0,000 mm 0,0 UV-I 64 W/m 12,3 C 18,8 C 4,8 km/h (1 Bft) 100,00 %
15.06.2016 19:34 18,7 C 68 % 1002,3 hPa 0,0 l/m 0,7 km/h (0 Bft) N-NO 13 0 min 0,000 mm 0,0 UV-I 70 W/m 12,7 C 18,7 C 1,6 km/h (1 Bft) 100,00 %
15.06.2016 19:35 18,6 C 69 % 1002,3 hPa 0,0 l/m 0,8 km/h (0 Bft) N-NO 15 0 min 0,000 mm 0,0 UV-I 74 W/m 12,8 C 18,6 C 1,6 km/h (1 Bft) 100,00 %
15.06.2016 19:36 18,5 C 70 % 1002,3 hPa 0,0 l/m 0,9 km/h (0 Bft) O-SO 117 0 min 0,000 mm 0,0 UV-I 74 W/m 12,9 C 18,5 C 1,6 km/h (1 Bft) 100,00 %
15.06.2016 19:37 18,4 C 69 % 1002,3 hPa 0,0 l/m 0,6 km/h (0 Bft) O-SO 107 0 min 0,000 mm 0,0 UV-I 71 W/m 12,6 C 18,4 C 1,6 km/h (1 Bft) 100,00 %
15.06.2016 19:38 18,3 C 69 % 1002,4 hPa 0,0 l/m 2,8 km/h (1 Bft) NO 47 0 min 0,000 mm 0,0 UV-I 68 W/m 12,5 C 18,3 C 4,8 km/h (1 Bft) 100,00 %
15.06.2016 19:39 18,4 C 69 % 1002,4 hPa 0,0 l/m 4,3 km/h (1 Bft) N-NO 28 0 min 0,000 mm 0,0 UV-I 68 W/m 12,6 C 18,4 C 6,4 km/h (2 Bft) 100,00 %
15.06.2016 19:40 18,4 C 69 % 1002,4 hPa 0,0 l/m 4,3 km/h (1 Bft) N-NO 24 0 min 0,000 mm 0,0 UV-I 70 W/m 12,6 C 18,4 C 6,4 km/h (2 Bft) 100,00 %
15.06.2016 19:41 18,4 C 67 % 1002,4 hPa 0,0 l/m 3,6 km/h (1 Bft) NO 36 0 min 0,000 mm 0,0 UV-I 72 W/m 12,2 C 18,4 C 4,8 km/h (1 Bft) 100,00 %
15.06.2016 19:42 18,5 C 68 % 1002,4 hPa 0,0 l/m 3,1 km/h (1 Bft) N-NO 33 0 min 0,000 mm 0,0 UV-I 69 W/m 12,5 C 18,5 C 4,8 km/h (1 Bft) 100,00 %
15.06.2016 19:43 18,5 C 67 % 1002,4 hPa 0,0 l/m 2,7 km/h (1 Bft) N-NO 33 0 min 0,000 mm 0,0 UV-I 65 W/m 12,3 C 18,5 C 4,8 km/h (1 Bft) 100,00 %
15.06.2016 19:44 18,6 C 67 % 1002,4 hPa 0,0 l/m 2,8 km/h (1 Bft) N-NO 32 0 min 0,000 mm 0,0 UV-I 63 W/m 12,3 C 18,6 C 3,2 km/h (1 Bft) 100,00 %
15.06.2016 19:45 18,6 C 67 % 1002,4 hPa 0,0 l/m 2,1 km/h (1 Bft) N-NO 32 0 min 0,000 mm 0,0 UV-I 63 W/m 12,3 C 18,6 C 3,2 km/h (1 Bft) 100,00 %
15.06.2016 19:46 18,6 C 68 % 1002,4 hPa 0,0 l/m 4,6 km/h (1 Bft) N-NO 24 0 min 0,000 mm 0,0 UV-I 64 W/m 12,6 C 18,6 C 6,4 km/h (2 Bft) 100,00 %
15.06.2016 19:47 18,6 C 68 % 1002,4 hPa 0,0 l/m 3,3 km/h (1 Bft) N-NO 24 0 min 0,000 mm 0,0 UV-I 65 W/m 12,6 C 18,6 C 4,8 km/h (1 Bft) 100,00 %
15.06.2016 19:48 18,6 C 67 % 1002,4 hPa 0,0 l/m 4,3 km/h (1 Bft) N-NO 26 0 min 0,000 mm 0,0 UV-I 65 W/m 12,3 C 18,6 C 4,8 km/h (1 Bft) 100,00 %
15.06.2016 19:49 18,6 C 68 % 1002,4 hPa 0,0 l/m 3,8 km/h (1 Bft) N-NO 30 0 min 0,000 mm 0,0 UV-I 64 W/m 12,6 C 18,6 C 4,8 km/h (1 Bft) 100,00 %
15.06.2016 19:50 18,6 C 68 % 1002,5 hPa 0,0 l/m 2,3 km/h (1 Bft) N-NO 30 0 min 0,000 mm 0,0 UV-I 65 W/m 12,6 C 18,6 C 4,8 km/h (1 Bft) 96,30 %
15.06.2016 19:51 18,6 C 68 % 1002,5 hPa 0,0 l/m 2,9 km/h (1 Bft) N-NO 30 0 min 0,000 mm 0,0 UV-I 65 W/m 12,6 C 18,6 C 6,4 km/h (2 Bft) 100,00 %
15.06.2016 19:52 18,6 C 68 % 1002,6 hPa 0,0 l/m 3,8 km/h (1 Bft) N-NO 30 0 min 0,000 mm 0,0 UV-I 64 W/m 12,6 C 18,6 C 4,8 km/h (1 Bft) 100,00 %
15.06.2016 19:53 18,6 C 69 % 1002,6 hPa 0,0 l/m 3,0 km/h (1 Bft) N-NO 30 0 min 0,000 mm 0,0 UV-I 63 W/m 12,8 C 18,6 C 4,8 km/h (1 Bft) 100,00 %
15.06.2016 19:54 18,6 C 69 % 1002,6 hPa 0,0 l/m 2,5 km/h (1 Bft) N-NO 30 0 min 0,000 mm 0,0 UV-I 62 W/m 12,8 C 18,6 C 3,2 km/h (1 Bft) 100,00 %
15.06.2016 19:55 18,6 C 69 % 1002,6 hPa 0,0 l/m 1,0 km/h (0 Bft) N-NO 30 0 min 0,000 mm 0,0 UV-I 59 W/m 12,8 C 18,6 C 3,2 km/h (1 Bft) 100,00 %
15.06.2016 19:56 18,5 C 70 % 1002,6 hPa 0,0 l/m 0,9 km/h (0 Bft) N-NO 30 0 min 0,000 mm 0,0 UV-I 57 W/m 12,9 C 18,5 C 1,6 km/h (1 Bft) 100,00 %
15.06.2016 19:57 18,5 C 69 % 1002,6 hPa 0,0 l/m 2,0 km/h (1 Bft) N 5 0 min 0,000 mm 0,0 UV-I 55 W/m 12,7 C 18,5 C 3,2 km/h (1 Bft) 98,63 %
15.06.2016 19:58 18,4 C 71 % 1002,6 hPa 0,0 l/m 2,1 km/h (1 Bft) N 9 0 min 0,000 mm 0,0 UV-I 52 W/m 13,0 C 18,4 C 4,8 km/h (1 Bft) 98,11 %
15.06.2016 19:59 18,4 C 72 % 1002,7 hPa 0,0 l/m 2,2 km/h (1 Bft) NO 44 0 min 0,000 mm 0,0 UV-I 49 W/m 13,3 C 18,4 C 4,8 km/h (1 Bft) 100,00 %
15.06.2016 20:00 18,3 C 71 % 1002,7 hPa 0,0 l/m 1,7 km/h (1 Bft) N 351 0 min 0,000 mm 0,0 UV-I 46 W/m 12,9 C 18,3 C 3,2 km/h (1 Bft) 100,00 %
15.06.2016 20:02 18,2 C 70 % 1002,7 hPa 0,0 l/m 2,5 km/h (1 Bft) N-NO 17 0 min 0,102 mm 0,0 UV-I 43 W/m 12,6 C 18,2 C 4,8 km/h (1 Bft) 98,00 %
15.06.2016 20:03 18,2 C 69 % 1002,7 hPa 0,0 l/m 2,2 km/h (1 Bft) N 11 0 min 0,000 mm 0,0 UV-I 40 W/m 12,4 C 18,2 C 4,8 km/h (1 Bft) 100,00 %
15.06.2016 20:04 18,2 C 69 % 1002,8 hPa 0,0 l/m 2,1 km/h (1 Bft) N 5 0 min 0,000 mm 0,0 UV-I 39 W/m 12,4 C 18,2 C 6,4 km/h (2 Bft) 100,00 %
15.06.2016 20:05 18,1 C 69 % 1002,8 hPa 0,0 l/m 2,7 km/h (1 Bft) N-NW 332 0 min 0,000 mm 0,0 UV-I 39 W/m 12,3 C 18,1 C 6,4 km/h (2 Bft) 100,00 %
15.06.2016 20:06 18,1 C 69 % 1002,8 hPa 0,0 l/m 1,6 km/h (1 Bft) N-NW 332 0 min 0,000 mm 0,0 UV-I 40 W/m 12,3 C 18,1 C 3,2 km/h (1 Bft) 100,00 %
15.06.2016 20:07 18,1 C 69 % 1002,8 hPa 0,0 l/m 0,2 km/h (0 Bft) N-NW 332 0 min 0,000 mm 0,0 UV-I 40 W/m 12,3 C 18,1 C 1,6 km/h (1 Bft) 100,00 %
15.06.2016 20:08 18,1 C 71 % 1002,8 hPa 0,0 l/m 0,7 km/h (0 Bft) N-NW 332 0 min 0,000 mm 0,0 UV-I 40 W/m 12,8 C 18,1 C 1,6 km/h (1 Bft) 100,00 %
15.06.2016 20:09 18,1 C 71 % 1002,8 hPa 0,0 l/m 0,8 km/h (0 Bft) N-NW 332 0 min 0,000 mm 0,0 UV-I 40 W/m 12,8 C 18,1 C 1,6 km/h (1 Bft) 100,00 %
15.06.2016 20:10 18,1 C 70 % 1002,8 hPa 0,0 l/m 0,3 km/h (0 Bft) N-NW 332 0 min 0,000 mm 0,0 UV-I 41 W/m 12,5 C 18,1 C 1,6 km/h (1 Bft) 98,64 %
15.06.2016 20:11 18,1 C 69 % 1002,8 hPa 0,0 l/m 0,5 km/h (0 Bft) N-NW 332 0 min 0,000 mm 0,0 UV-I 44 W/m 12,3 C 18,1 C 1,6 km/h (1 Bft) 100,00 %
15.06.2016 20:12 18,1 C 70 % 1002,8 hPa 0,0 l/m 0,6 km/h (0 Bft) N-NW 344 0 min 0,000 mm 0,0 UV-I 47 W/m 12,5 C 18,1 C 3,2 km/h (1 Bft) 100,00 %
15.06.2016 20:13 18,1 C 71 % 1002,8 hPa 0,0 l/m 1,8 km/h (1 Bft) N 9 0 min 0,000 mm 0,0 UV-I 53 W/m 12,8 C 18,1 C 4,8 km/h (1 Bft) 100,00 %
15.06.2016 20:14 18,1 C 71 % 1002,8 hPa 0,0 l/m 3,3 km/h (1 Bft) N-NO 16 0 min 0,000 mm 0,0 UV-I 52 W/m 12,8 C 18,1 C 6,4 km/h (2 Bft) 100,00 %
15.06.2016 20:15 18,1 C 70 % 1002,8 hPa 0,0 l/m 2,8 km/h (1 Bft) N-NO 16 0 min 0,000 mm 0,0 UV-I 49 W/m 12,5 C 18,1 C 4,8 km/h (1 Bft) 100,00 %
15.06.2016 20:16 18,1 C 71 % 1002,8 hPa 0,0 l/m 0,6 km/h (0 Bft) N-NO 16 0 min 0,000 mm 0,0 UV-I 48 W/m 12,8 C 18,1 C 1,6 km/h (1 Bft) 100,00 %
15.06.2016 20:17 18,0 C 71 % 1002,8 hPa 0,0 l/m 0,5 km/h (0 Bft) N-NO 16 0 min 0,000 mm 0,0 UV-I 46 W/m 12,7 C 18,0 C 1,6 km/h (1 Bft) 100,00 %
15.06.2016 20:18 18,0 C 72 % 1002,8 hPa 0,0 l/m 0,8 km/h (0 Bft) N-NO 16 0 min 0,000 mm 0,0 UV-I 46 W/m 12,9 C 18,0 C 3,2 km/h (1 Bft) 100,00 %
15.06.2016 20:19 17,9 C 71 % 1002,8 hPa 0,0 l/m 0,2 km/h (0 Bft) N-NO 16 0 min 0,000 mm 0,0 UV-I 43 W/m 12,6 C 17,9 C 1,6 km/h (1 Bft) 100,00 %
15.06.2016 20:20 17,9 C 71 % 1002,8 hPa 0,0 l/m 1,9 km/h (1 Bft) N-NO 16 0 min 0,000 mm 0,0 UV-I 41 W/m 12,6 C 17,9 C 3,2 km/h (1 Bft) 100,00 %
15.06.2016 20:21 17,9 C 72 % 1002,8 hPa 0,0 l/m 1,0 km/h (0 Bft) N-NO 13 0 min 0,000 mm 0,0 UV-I 39 W/m 12,8 C 17,9 C 3,2 km/h (1 Bft) 100,00 %
15.06.2016 20:22 17,9 C 72 % 1002,8 hPa 0,0 l/m 0,4 km/h (0 Bft) N-NO 13 0 min 0,000 mm 0,0 UV-I 38 W/m 12,8 C 17,9 C 1,6 km/h (1 Bft) 100,00 %
15.06.2016 20:23 17,8 C 73 % 1002,7 hPa 0,0 l/m 0,4 km/h (0 Bft) N-NO 13 0 min 0,000 mm 0,0 UV-I 35 W/m 12,9 C 17,8 C 1,6 km/h (1 Bft) 100,00 %
15.06.2016 20:24 17,8 C 73 % 1002,7 hPa 0,0 l/m 0,3 km/h (0 Bft) N-NO 13 0 min 0,000 mm 0,0 UV-I 33 W/m 12,9 C 17,8 C 1,6 km/h (1 Bft) 100,00 %
15.06.2016 20:25 17,8 C 73 % 1002,7 hPa 0,0 l/m 0,9 km/h (0 Bft) N 11 0 min 0,000 mm 0,0 UV-I 30 W/m 12,9 C 17,8 C 3,2 km/h (1 Bft) 100,00 %
15.06.2016 20:26 17,8 C 73 % 1002,7 hPa 0,0 l/m 0,4 km/h (0 Bft) N 11 0 min 0,000 mm 0,0 UV-I 26 W/m 12,9 C 17,8 C 1,6 km/h (1 Bft) 100,00 %
15.06.2016 20:27 17,7 C 73 % 1002,7 hPa 0,0 l/m 0,1 km/h (0 Bft) N 11 0 min 0,000 mm 0,0 UV-I 24 W/m 12,8 C 17,7 C 1,6 km/h (1 Bft) 100,00 %
15.06.2016 20:28 17,7 C 73 % 1002,8 hPa 0,0 l/m 0,3 km/h (0 Bft) N 11 0 min 0,000 mm 0,0 UV-I 21 W/m 12,8 C 17,7 C 1,6 km/h (1 Bft) 100,00 %
15.06.2016 20:29 17,7 C 73 % 1002,8 hPa 0,0 l/m 0,0 km/h (0 Bft) N 11 0 min 0,000 mm 0,0 UV-I 19 W/m 12,8 C 17,7 C 0,0 km/h (0 Bft) 100,00 %
15.06.2016 20:30 17,7 C 72 % 1002,8 hPa 0,0 l/m 0,6 km/h (0 Bft) N 11 0 min 0,000 mm 0,0 UV-I 19 W/m 12,6 C 17,7 C 1,6 km/h (1 Bft) 100,00 %
15.06.2016 20:31 17,7 C 72 % 1002,8 hPa 0,0 l/m 0,1 km/h (0 Bft) N 11 0 min 0,000 mm 0,0 UV-I 19 W/m 12,6 C 17,7 C 1,6 km/h (1 Bft) 95,65 %
15.06.2016 20:32 17,7 C 71 % 1002,9 hPa 0,0 l/m 0,5 km/h (0 Bft) N 11 0 min 0,000 mm 0,0 UV-I 19 W/m 12,4 C 17,7 C 1,6 km/h (1 Bft) 100,00 %
15.06.2016 20:33 17,7 C 71 % 1002,8 hPa 0,0 l/m 0,1 km/h (0 Bft) N 11 0 min 0,000 mm 0,0 UV-I 18 W/m 12,4 C 17,7 C 1,6 km/h (1 Bft) 100,00 %
15.06.2016 20:34 17,7 C 71 % 1002,9 hPa 0,0 l/m 0,1 km/h (0 Bft) N 11 0 min 0,000 mm 0,0 UV-I 16 W/m 12,4 C 17,7 C 1,6 km/h (1 Bft) 100,00 %
15.06.2016 20:35 17,8 C 72 % 1002,9 hPa 0,0 l/m 0,0 km/h (0 Bft) N 11 0 min 0,000 mm 0,0 UV-I 14 W/m 12,7 C 17,8 C 0,0 km/h (0 Bft) 100,00 %
15.06.2016 20:36 17,8 C 71 % 1002,9 hPa 0,0 l/m 0,0 km/h (0 Bft) N 11 0 min 0,000 mm 0,0 UV-I 13 W/m 12,5 C 17,8 C 0,0 km/h (0 Bft) 100,00 %
15.06.2016 20:37 17,8 C 71 % 1002,9 hPa 0,0 l/m 0,0 km/h (0 Bft) N 11 0 min 0,000 mm 0,0 UV-I 12 W/m 12,5 C 17,8 C 0,0 km/h (0 Bft) 95,65 %
15.06.2016 20:38 17,9 C 73 % 1003,0 hPa 0,0 l/m 0,0 km/h (0 Bft) N 11 0 min 0,000 mm 0,0 UV-I 11 W/m 13,0 C 17,9 C 0,0 km/h (0 Bft) 100,00 %
15.06.2016 20:39 17,9 C 73 % 1003,0 hPa 0,0 l/m 0,0 km/h (0 Bft) N 11 0 min 0,000 mm 0,0 UV-I 10 W/m 13,0 C 17,9 C 0,0 km/h (0 Bft) 100,00 %
15.06.2016 20:40 17,9 C 73 % 1003,0 hPa 0,0 l/m 0,7 km/h (0 Bft) N 11 0 min 0,000 mm 0,0 UV-I 9 W/m 13,0 C 17,9 C 1,6 km/h (1 Bft) 95,83 %
15.06.2016 20:41 17,9 C 73 % 1003,0 hPa 0,0 l/m 1,7 km/h (1 Bft) N 11 0 min 0,000 mm 0,0 UV-I 7 W/m 13,0 C 17,9 C 3,2 km/h (1 Bft) 100,00 %
15.06.2016 20:42 17,9 C 75 % 1003,0 hPa 0,0 l/m 1,6 km/h (1 Bft) N 11 0 min 0,000 mm 0,0 UV-I 7 W/m 13,4 C 17,9 C 1,6 km/h (1 Bft) 100,00 %
15.06.2016 20:43 17,8 C 75 % 1003,0 hPa 0,0 l/m 0,6 km/h (0 Bft) N 11 0 min 0,000 mm 0,0 UV-I 7 W/m 13,3 C 17,8 C 1,6 km/h (1 Bft) 100,00 %
15.06.2016 20:44 17,8 C 77 % 1003,0 hPa 0,0 l/m 0,9 km/h (0 Bft) N 11 0 min 0,000 mm 0,0 UV-I 7 W/m 13,7 C 17,8 C 3,2 km/h (1 Bft) 96,15 %
15.06.2016 20:45 17,8 C 77 % 1003,0 hPa 0,0 l/m 1,0 km/h (0 Bft) N 11 0 min 0,000 mm 0,0 UV-I 6 W/m 13,7 C 17,8 C 3,2 km/h (1 Bft) 100,00 %
15.06.2016 20:46 17,8 C 77 % 1003,0 hPa 0,0 l/m 0,9 km/h (0 Bft) N-NO 22 0 min 0,000 mm 0,0 UV-I 5 W/m 13,7 C 17,8 C 1,6 km/h (1 Bft) 100,00 %
15.06.2016 20:47 17,7 C 79 % 1003,1 hPa 0,0 l/m 2,4 km/h (1 Bft) NO 56 0 min 0,000 mm 0,0 UV-I 5 W/m 14,0 C 17,7 C 3,2 km/h (1 Bft) 100,00 %
15.06.2016 20:48 17,7 C 79 % 1003,1 hPa 0,0 l/m 2,4 km/h (1 Bft) NO 56 0 min 0,000 mm 0,0 UV-I 5 W/m 14,0 C 17,7 C 3,2 km/h (1 Bft) 95,65 %
15.06.2016 20:49 17,6 C 79 % 1003,1 hPa 0,0 l/m 3,5 km/h (1 Bft) O 83 0 min 0,000 mm 0,0 UV-I 5 W/m 13,9 C 17,6 C 4,8 km/h (1 Bft) 100,00 %
15.06.2016 20:50 17,6 C 79 % 1003,1 hPa 0,0 l/m 3,0 km/h (1 Bft) O 83 0 min 0,000 mm 0,0 UV-I 5 W/m 13,9 C 17,6 C 4,8 km/h (1 Bft) 96,15 %
15.06.2016 20:51 17,4 C 79 % 1003,1 hPa 0,0 l/m 2,0 km/h (1 Bft) O 83 0 min 0,000 mm 0,0 UV-I 5 W/m 13,7 C 17,4 C 3,2 km/h (1 Bft) 100,00 %
15.06.2016 20:52 17,4 C 80 % 1003,1 hPa 0,0 l/m 2,4 km/h (1 Bft) O 83 0 min 0,000 mm 0,0 UV-I 5 W/m 13,9 C 17,4 C 3,2 km/h (1 Bft) 96,15 %
15.06.2016 20:53 17,3 C 79 % 1003,2 hPa 0,0 l/m 2,2 km/h (1 Bft) O 83 0 min 0,000 mm 0,0 UV-I 5 W/m 13,6 C 17,3 C 3,2 km/h (1 Bft) 96,30 %
15.06.2016 20:54 17,2 C 77 % 1003,1 hPa 0,0 l/m 1,5 km/h (1 Bft) O 83 0 min 0,000 mm 0,0 UV-I 5 W/m 13,1 C 17,2 C 3,2 km/h (1 Bft) 100,00 %
15.06.2016 20:55 17,2 C 76 % 1003,2 hPa 0,0 l/m 0,0 km/h (0 Bft) O 83 0 min 0,000 mm 0,0 UV-I 5 W/m 12,9 C 17,2 C 0,0 km/h (0 Bft) 91,67 %
15.06.2016 20:56 17,2 C 76 % 1003,1 hPa 0,0 l/m 0,0 km/h (0 Bft) O 83 0 min 0,000 mm 0,0 UV-I 5 W/m 12,9 C 17,2 C 0,0 km/h (0 Bft) 100,00 %
15.06.2016 20:57 17,2 C 75 % 1003,2 hPa 0,0 l/m 0,0 km/h (0 Bft) O 83 0 min 0,000 mm 0,0 UV-I 5 W/m 12,7 C 17,2 C 0,0 km/h (0 Bft) 95,83 %
15.06.2016 20:58 17,2 C 73 % 1003,2 hPa 0,0 l/m 0,2 km/h (0 Bft) O 83 0 min 0,000 mm 0,0 UV-I 5 W/m 12,3 C 17,2 C 1,6 km/h (1 Bft) 100,00 %
15.06.2016 20:59 17,2 C 76 % 1003,3 hPa 0,0 l/m 1,0 km/h (0 Bft) O 83 0 min 0,000 mm 0,0 UV-I 5 W/m 12,9 C 17,2 C 1,6 km/h (1 Bft) 96,15 %
15.06.2016 21:00 17,2 C 76 % 1003,3 hPa 0,0 l/m 0,6 km/h (0 Bft) O 83 0 min 0,000 mm 0,0 UV-I 0 W/m 12,9 C 17,2 C 1,6 km/h (1 Bft) 100,00 %
15.06.2016 21:02 17,2 C 76 % 1003,3 hPa 0,0 l/m 0,4 km/h (0 Bft) O 83 0 min 0,025 mm 0,0 UV-I 0 W/m 12,9 C 17,2 C 1,6 km/h (1 Bft) 97,22 %
15.06.2016 21:03 17,2 C 76 % 1003,3 hPa 0,0 l/m 0,0 km/h (0 Bft) O 83 0 min 0,000 mm 0,0 UV-I 0 W/m 12,9 C 17,2 C 0,0 km/h (0 Bft) 96,15 %
15.06.2016 21:04 17,2 C 76 % 1003,3 hPa 0,0 l/m 0,0 km/h (0 Bft) O 83 0 min 0,000 mm 0,0 UV-I 0 W/m 12,9 C 17,2 C 0,0 km/h (0 Bft) 96,30 %
15.06.2016 21:05 17,2 C 76 % 1003,3 hPa 0,0 l/m 0,0 km/h (0 Bft) O 83 0 min 0,000 mm 0,0 UV-I 0 W/m 12,9 C 17,2 C 0,0 km/h (0 Bft) 96,15 %
15.06.2016 21:06 17,2 C 76 % 1003,4 hPa 0,0 l/m 0,0 km/h (0 Bft) O 83 0 min 0,000 mm 0,0 UV-I 0 W/m 12,9 C 17,2 C 0,0 km/h (0 Bft) 95,83 %
15.06.2016 21:07 17,2 C 76 % 1003,4 hPa 0,0 l/m 0,0 km/h (0 Bft) O 83 0 min 0,000 mm 0,0 UV-I 0 W/m 12,9 C 17,2 C 0,0 km/h (0 Bft) 96,15 %
15.06.2016 21:08 17,2 C 75 % 1003,4 hPa 0,0 l/m 0,0 km/h (0 Bft) O 83 0 min 0,000 mm 0,0 UV-I 0 W/m 12,7 C 17,2 C 0,0 km/h (0 Bft) 95,83 %
15.06.2016 21:09 17,2 C 76 % 1003,4 hPa 0,0 l/m 0,0 km/h (0 Bft) O 83 0 min 0,000 mm 0,0 UV-I 0 W/m 12,9 C 17,2 C 0,0 km/h (0 Bft) 100,00 %
15.06.2016 21:10 17,2 C 76 % 1003,4 hPa 0,0 l/m 0,1 km/h (0 Bft) O 83 0 min 0,000 mm 0,0 UV-I 0 W/m 12,9 C 17,2 C 1,6 km/h (1 Bft) 95,83 %
15.06.2016 21:11 17,2 C 77 % 1003,4 hPa 0,0 l/m 1,9 km/h (1 Bft) O 83 0 min 0,000 mm 0,0 UV-I 0 W/m 13,1 C 17,2 C 3,2 km/h (1 Bft) 100,00 %
15.06.2016 21:12 17,2 C 78 % 1003,5 hPa 0,0 l/m 2,1 km/h (1 Bft) O 83 0 min 0,000 mm 0,0 UV-I 0 W/m 13,3 C 17,2 C 3,2 km/h (1 Bft) 95,83 %
15.06.2016 21:13 17,1 C 78 % 1003,5 hPa 0,0 l/m 2,0 km/h (1 Bft) O 83 0 min 0,000 mm 0,0 UV-I 0 W/m 13,2 C 17,1 C 3,2 km/h (1 Bft) 91,30 %
15.06.2016 21:14 17,1 C 78 % 1003,5 hPa 0,0 l/m 2,4 km/h (1 Bft) O 83 0 min 0,000 mm 0,0 UV-I 0 W/m 13,2 C 17,1 C 3,2 km/h (1 Bft) 100,00 %
15.06.2016 21:15 17,1 C 79 % 1003,5 hPa 0,0 l/m 2,7 km/h (1 Bft) O 83 0 min 0,000 mm 0,0 UV-I 0 W/m 13,4 C 17,1 C 3,2 km/h (1 Bft) 96,15 %
15.06.2016 21:16 16,9 C 79 % 1003,5 hPa 0,0 l/m 2,7 km/h (1 Bft) O 83 0 min 0,000 mm 0,0 UV-I 0 W/m 13,2 C 16,9 C 3,2 km/h (1 Bft) 100,00 %
15.06.2016 21:17 16,9 C 79 % 1003,5 hPa 0,0 l/m 2,1 km/h (1 Bft) O 83 0 min 0,000 mm 0,0 UV-I 0 W/m 13,2 C 16,9 C 3,2 km/h (1 Bft) 95,65 %
15.06.2016 21:18 16,8 C 79 % 1003,5 hPa 0,0 l/m 1,7 km/h (1 Bft) O 83 0 min 0,000 mm 0,0 UV-I 0 W/m 13,1 C 16,8 C 3,2 km/h (1 Bft) 96,30 %
15.06.2016 21:19 16,8 C 80 % 1003,6 hPa 0,0 l/m 0,8 km/h (0 Bft) O 83 0 min 0,000 mm 0,0 UV-I 0 W/m 13,3 C 16,8 C 1,6 km/h (1 Bft) 100,00 %
15.06.2016 21:20 16,7 C 80 % 1003,6 hPa 0,0 l/m 0,0 km/h (0 Bft) O 83 0 min 0,000 mm 0,0 UV-I 0 W/m 13,2 C 16,7 C 0,0 km/h (0 Bft) 95,83 %
15.06.2016 21:21 16,7 C 80 % 1003,6 hPa 0,0 l/m 0,0 km/h (0 Bft) O 83 0 min 0,000 mm 0,0 UV-I 0 W/m 13,2 C 16,7 C 0,0 km/h (0 Bft) 100,00 %
15.06.2016 21:22 16,6 C 81 % 1003,7 hPa 0,0 l/m 0,0 km/h (0 Bft) O 83 0 min 0,000 mm 0,0 UV-I 0 W/m 13,3 C 16,6 C 0,0 km/h (0 Bft) 100,00 %
15.06.2016 21:23 16,5 C 81 % 1003,6 hPa 0,0 l/m 0,0 km/h (0 Bft) O 83 0 min 0,000 mm 0,0 UV-I 0 W/m 13,2 C 16,5 C 0,0 km/h (0 Bft) 100,00 %
15.06.2016 21:24 16,5 C 81 % 1003,6 hPa 0,0 l/m 0,0 km/h (0 Bft) O 83 0 min 0,000 mm 0,0 UV-I 0 W/m 13,2 C 16,5 C 0,0 km/h (0 Bft) 95,65 %
15.06.2016 21:25 16,4 C 82 % 1003,7 hPa 0,0 l/m 0,0 km/h (0 Bft) O 83 0 min 0,000 mm 0,0 UV-I 0 W/m 13,3 C 16,4 C 0,0 km/h (0 Bft) 100,00 %
15.06.2016 21:26 16,4 C 82 % 1003,7 hPa 0,0 l/m 0,0 km/h (0 Bft) O 83 0 min 0,000 mm 0,0 UV-I 0 W/m 13,3 C 16,4 C 0,0 km/h (0 Bft) 91,30 %
15.06.2016 21:27 16,4 C 82 % 1003,7 hPa 0,0 l/m 0,0 km/h (0 Bft) O 83 0 min 0,000 mm 0,0 UV-I 0 W/m 13,3 C 16,4 C 0,0 km/h (0 Bft) 100,00 %
15.06.2016 21:28 16,4 C 83 % 1003,6 hPa 0,0 l/m 0,0 km/h (0 Bft) O 83 0 min 0,000 mm 0,0 UV-I 0 W/m 13,5 C 16,4 C 0,0 km/h (0 Bft) 100,00 %
15.06.2016 21:29 16,4 C 83 % 1003,6 hPa 0,0 l/m 0,0 km/h (0 Bft) O 83 0 min 0,000 mm 0,0 UV-I 0 W/m 13,5 C 16,4 C 0,0 km/h (0 Bft) 100,00 %
15.06.2016 21:30 16,4 C 82 % 1003,6 hPa 0,0 l/m 0,0 km/h (0 Bft) O 83 0 min 0,000 mm 0,0 UV-I 0 W/m 13,3 C 16,4 C 0,0 km/h (0 Bft) 100,00 %
15.06.2016 21:31 16,4 C 82 % 1003,6 hPa 0,0 l/m 0,1 km/h (0 Bft) O 83 0 min 0,000 mm 0,0 UV-I 0 W/m 13,3 C 16,4 C 1,6 km/h (1 Bft) 100,00 %
15.06.2016 21:32 16,4 C 82 % 1003,5 hPa 0,0 l/m 1,5 km/h (1 Bft) O 83 0 min 0,000 mm 0,0 UV-I 0 W/m 13,3 C 16,4 C 3,2 km/h (1 Bft) 100,00 %
15.06.2016 21:33 16,4 C 82 % 1003,6 hPa 0,0 l/m 1,8 km/h (1 Bft) O 83 0 min 0,000 mm 0,0 UV-I 0 W/m 13,3 C 16,4 C 3,2 km/h (1 Bft) 95,83 %
15.06.2016 21:34 16,3 C 81 % 1003,6 hPa 0,0 l/m 2,8 km/h (1 Bft) O 83 0 min 0,000 mm 0,0 UV-I 0 W/m 13,0 C 16,3 C 3,2 km/h (1 Bft) 100,00 %
15.06.2016 21:35 16,3 C 82 % 1003,6 hPa 0,0 l/m 2,6 km/h (1 Bft) O 83 0 min 0,000 mm 0,0 UV-I 0 W/m 13,2 C 16,3 C 3,2 km/h (1 Bft) 100,00 %
15.06.2016 21:36 16,3 C 81 % 1003,7 hPa 0,0 l/m 1,7 km/h (1 Bft) O 83 0 min 0,000 mm 0,0 UV-I 0 W/m 13,0 C 16,3 C 3,2 km/h (1 Bft) 100,00 %
15.06.2016 21:37 16,3 C 81 % 1003,8 hPa 0,0 l/m 0,2 km/h (0 Bft) O 83 0 min 0,000 mm 0,0 UV-I 0 W/m 13,0 C 16,3 C 1,6 km/h (1 Bft) 100,00 %
15.06.2016 21:38 16,4 C 81 % 1003,8 hPa 0,0 l/m 0,3 km/h (0 Bft) O 83 0 min 0,000 mm 0,0 UV-I 0 W/m 13,1 C 16,4 C 1,6 km/h (1 Bft) 100,00 %
15.06.2016 21:39 16,4 C 81 % 1003,8 hPa 0,0 l/m 2,0 km/h (1 Bft) O-NO 59 0 min 0,000 mm 0,0 UV-I 0 W/m 13,1 C 16,4 C 3,2 km/h (1 Bft) 100,00 %
15.06.2016 21:40 16,4 C 82 % 1003,9 hPa 0,0 l/m 1,8 km/h (1 Bft) O-NO 59 0 min 0,000 mm 0,0 UV-I 0 W/m 13,3 C 16,4 C 3,2 km/h (1 Bft) 100,00 %
15.06.2016 21:41 16,4 C 82 % 1003,9 hPa 0,0 l/m 1,3 km/h (1 Bft) O-NO 57 0 min 0,000 mm 0,0 UV-I 0 W/m 13,3 C 16,4 C 3,2 km/h (1 Bft) 100,00 %
15.06.2016 21:42 16,4 C 83 % 1003,9 hPa 0,0 l/m 0,5 km/h (0 Bft) O-NO 57 0 min 0,000 mm 0,0 UV-I 0 W/m 13,5 C 16,4 C 1,6 km/h (1 Bft) 100,00 %
15.06.2016 21:43 16,4 C 83 % 1003,9 hPa 0,0 l/m 0,0 km/h (0 Bft) O-NO 57 0 min 0,000 mm 0,0 UV-I 0 W/m 13,5 C 16,4 C 0,0 km/h (0 Bft) 100,00 %
15.06.2016 21:44 16,4 C 83 % 1003,9 hPa 0,0 l/m 0,0 km/h (0 Bft) O-NO 57 0 min 0,000 mm 0,0 UV-I 0 W/m 13,5 C 16,4 C 0,0 km/h (0 Bft) 100,00 %
15.06.2016 21:45 16,4 C 83 % 1004,0 hPa 0,0 l/m 0,6 km/h (0 Bft) O-NO 57 0 min 0,000 mm 0,0 UV-I 0 W/m 13,5 C 16,4 C 1,6 km/h (1 Bft) 96,55 %
15.06.2016 21:46 16,3 C 84 % 1004,0 hPa 0,0 l/m 1,5 km/h (1 Bft) O-NO 57 0 min 0,000 mm 0,0 UV-I 0 W/m 13,6 C 16,3 C 3,2 km/h (1 Bft) 100,00 %
15.06.2016 21:47 16,3 C 84 % 1004,0 hPa 0,0 l/m 1,6 km/h (1 Bft) O-NO 57 0 min 0,000 mm 0,0 UV-I 0 W/m 13,6 C 16,3 C 3,2 km/h (1 Bft) 100,00 %
15.06.2016 21:48 16,3 C 84 % 1004,0 hPa 0,0 l/m 0,1 km/h (0 Bft) O-NO 57 0 min 0,000 mm 0,0 UV-I 0 W/m 13,6 C 16,3 C 1,6 km/h (1 Bft) 100,00 %
15.06.2016 21:49 16,3 C 84 % 1004,0 hPa 0,0 l/m 0,0 km/h (0 Bft) O-NO 57 0 min 0,000 mm 0,0 UV-I 0 W/m 13,6 C 16,3 C 0,0 km/h (0 Bft) 100,00 %
15.06.2016 21:50 16,3 C 85 % 1004,0 hPa 0,0 l/m 0,0 km/h (0 Bft) O-NO 57 0 min 0,000 mm 0,0 UV-I 0 W/m 13,8 C 16,3 C 0,0 km/h (0 Bft) 100,00 %
15.06.2016 21:51 16,3 C 85 % 1004,0 hPa 0,0 l/m 0,0 km/h (0 Bft) O-NO 57 0 min 0,000 mm 0,0 UV-I 0 W/m 13,8 C 16,3 C 0,0 km/h (0 Bft) 100,00 %
15.06.2016 21:52 16,3 C 85 % 1004,0 hPa 0,0 l/m 0,0 km/h (0 Bft) O-NO 57 0 min 0,000 mm 0,0 UV-I 0 W/m 13,8 C 16,3 C 0,0 km/h (0 Bft) 100,00 %
15.06.2016 21:53 16,3 C 85 % 1004,0 hPa 0,0 l/m 0,0 km/h (0 Bft) O-NO 57 0 min 0,000 mm 0,0 UV-I 0 W/m 13,8 C 16,3 C 0,0 km/h (0 Bft) 100,00 %
15.06.2016 21:54 16,3 C 85 % 1004,0 hPa 0,0 l/m 0,0 km/h (0 Bft) O-NO 57 0 min 0,000 mm 0,0 UV-I 0 W/m 13,8 C 16,3 C 0,0 km/h (0 Bft) 100,00 %
15.06.2016 21:55 16,3 C 85 % 1004,0 hPa 0,0 l/m 0,0 km/h (0 Bft) O-NO 57 0 min 0,000 mm 0,0 UV-I 0 W/m 13,8 C 16,3 C 0,0 km/h (0 Bft) 100,00 %
15.06.2016 21:56 16,3 C 86 % 1004,0 hPa 0,0 l/m 0,0 km/h (0 Bft) O-NO 57 0 min 0,000 mm 0,0 UV-I 0 W/m 14,0 C 16,3 C 0,0 km/h (0 Bft) 100,00 %
15.06.2016 21:57 16,3 C 86 % 1004,0 hPa 0,0 l/m 0,0 km/h (0 Bft) O-NO 57 0 min 0,000 mm 0,0 UV-I 0 W/m 14,0 C 16,3 C 0,0 km/h (0 Bft) 100,00 %
15.06.2016 21:58 16,3 C 86 % 1004,1 hPa 0,0 l/m 0,0 km/h (0 Bft) O-NO 57 0 min 0,000 mm 0,0 UV-I 0 W/m 14,0 C 16,3 C 0,0 km/h (0 Bft) 100,00 %
15.06.2016 21:59 16,3 C 86 % 1004,1 hPa 0,0 l/m 0,0 km/h (0 Bft) O-NO 57 0 min 0,000 mm 0,0 UV-I 0 W/m 14,0 C 16,3 C 0,0 km/h (0 Bft) 100,00 %
15.06.2016 22:00 16,3 C 86 % 1004,0 hPa 0,0 l/m 0,0 km/h (0 Bft) O-NO 57 0 min 0,000 mm 0,0 UV-I 0 W/m 14,0 C 16,3 C 0,0 km/h (0 Bft) 100,00 %
15.06.2016 22:01 16,3 C 86 % 1004,0 hPa 0,0 l/m 0,0 km/h (0 Bft) O-NO 57 0 min 0,000 mm 0,0 UV-I 0 W/m 14,0 C 16,3 C 0,0 km/h (0 Bft) 100,00 %
15.06.2016 22:02 16,3 C 86 % 1004,0 hPa 0,0 l/m 0,0 km/h (0 Bft) O-NO 57 0 min 0,000 mm 0,0 UV-I 0 W/m 14,0 C 16,3 C 0,0 km/h (0 Bft) 100,00 %
15.06.2016 22:03 16,3 C 86 % 1004,1 hPa 0,0 l/m 0,1 km/h (0 Bft) O-NO 57 0 min 0,000 mm 0,0 UV-I 0 W/m 14,0 C 16,3 C 1,6 km/h (1 Bft) 96,30 %
15.06.2016 22:04 16,3 C 86 % 1004,1 hPa 0,0 l/m 0,9 km/h (0 Bft) O-NO 57 0 min 0,000 mm 0,0 UV-I 0 W/m 14,0 C 16,3 C 1,6 km/h (1 Bft) 100,00 %
15.06.2016 22:05 16,2 C 86 % 1004,2 hPa 0,0 l/m 0,1 km/h (0 Bft) O-NO 57 0 min 0,000 mm 0,0 UV-I 0 W/m 13,9 C 16,2 C 1,6 km/h (1 Bft) 100,00 %
15.06.2016 22:06 16,3 C 86 % 1004,2 hPa 0,0 l/m 0,0 km/h (0 Bft) O-NO 57 0 min 0,000 mm 0,0 UV-I 0 W/m 14,0 C 16,3 C 0,0 km/h (0 Bft) 100,00 %
15.06.2016 22:07 16,2 C 86 % 1004,1 hPa 0,0 l/m 0,2 km/h (0 Bft) O-NO 57 0 min 0,000 mm 0,0 UV-I 0 W/m 13,9 C 16,2 C 1,6 km/h (1 Bft) 100,00 %
15.06.2016 22:08 16,2 C 85 % 1004,1 hPa 0,0 l/m 0,6 km/h (0 Bft) O-NO 57 0 min 0,000 mm 0,0 UV-I 0 W/m 13,7 C 16,2 C 1,6 km/h (1 Bft) 100,00 %
15.06.2016 22:09 16,2 C 85 % 1004,1 hPa 0,0 l/m 1,0 km/h (0 Bft) O-NO 63 0 min 0,000 mm 0,0 UV-I 0 W/m 13,7 C 16,2 C 1,6 km/h (1 Bft) 100,00 %
15.06.2016 22:10 16,2 C 85 % 1004,1 hPa 0,0 l/m 1,0 km/h (0 Bft) O-NO 63 0 min 0,000 mm 0,0 UV-I 0 W/m 13,7 C 16,2 C 3,2 km/h (1 Bft) 100,00 %
15.06.2016 22:11 16,2 C 85 % 1004,1 hPa 0,0 l/m 0,3 km/h (0 Bft) O-NO 63 0 min 0,000 mm 0,0 UV-I 0 W/m 13,7 C 16,2 C 1,6 km/h (1 Bft) 100,00 %
15.06.2016 22:12 16,2 C 85 % 1004,1 hPa 0,0 l/m 0,3 km/h (0 Bft) O-NO 63 0 min 0,000 mm 0,0 UV-I 0 W/m 13,7 C 16,2 C 1,6 km/h (1 Bft) 100,00 %
15.06.2016 22:13 16,2 C 84 % 1004,1 hPa 0,0 l/m 0,1 km/h (0 Bft) O-NO 63 0 min 0,000 mm 0,0 UV-I 0 W/m 13,5 C 16,2 C 1,6 km/h (1 Bft) 100,00 %
15.06.2016 22:14 16,1 C 84 % 1004,1 hPa 0,0 l/m 0,7 km/h (0 Bft) O-NO 63 0 min 0,000 mm 0,0 UV-I 0 W/m 13,4 C 16,1 C 1,6 km/h (1 Bft) 100,00 %
15.06.2016 22:15 16,1 C 85 % 1004,2 hPa 0,0 l/m 0,7 km/h (0 Bft) O-NO 63 0 min 0,000 mm 0,0 UV-I 0 W/m 13,6 C 16,1 C 1,6 km/h (1 Bft) 100,00 %
15.06.2016 22:16 16,0 C 85 % 1004,1 hPa 0,0 l/m 0,1 km/h (0 Bft) O-NO 63 0 min 0,000 mm 0,0 UV-I 0 W/m 13,5 C 16,0 C 1,6 km/h (1 Bft) 100,00 %
15.06.2016 22:17 15,9 C 85 % 1004,2 hPa 0,0 l/m 0,0 km/h (0 Bft) O-NO 63 0 min 0,000 mm 0,0 UV-I 0 W/m 13,4 C 15,9 C 0,0 km/h (0 Bft) 100,00 %
15.06.2016 22:18 15,9 C 85 % 1004,1 hPa 0,0 l/m 0,0 km/h (0 Bft) O-NO 63 0 min 0,000 mm 0,0 UV-I 0 W/m 13,4 C 15,9 C 0,0 km/h (0 Bft) 100,00 %
15.06.2016 22:19 15,9 C 85 % 1004,2 hPa 0,0 l/m 1,0 km/h (0 Bft) O-NO 63 0 min 0,000 mm 0,0 UV-I 0 W/m 13,4 C 15,9 C 1,6 km/h (1 Bft) 100,00 %
15.06.2016 22:20 15,9 C 85 % 1004,2 hPa 0,0 l/m 1,5 km/h (1 Bft) O-NO 63 0 min 0,000 mm 0,0 UV-I 0 W/m 13,4 C 15,9 C 1,6 km/h (1 Bft) 100,00 %
15.06.2016 22:21 15,9 C 84 % 1004,2 hPa 0,0 l/m 0,9 km/h (0 Bft) O-NO 63 0 min 0,000 mm 0,0 UV-I 0 W/m 13,2 C 15,9 C 1,6 km/h (1 Bft) 96,30 %
15.06.2016 22:22 16,0 C 84 % 1004,2 hPa 0,0 l/m 0,4 km/h (0 Bft) O-NO 63 0 min 0,000 mm 0,0 UV-I 0 W/m 13,3 C 16,0 C 1,6 km/h (1 Bft) 100,00 %
15.06.2016 22:23 16,0 C 85 % 1004,1 hPa 0,0 l/m 0,6 km/h (0 Bft) O-NO 63 0 min 0,000 mm 0,0 UV-I 0 W/m 13,5 C 16,0 C 1,6 km/h (1 Bft) 100,00 %
15.06.2016 22:24 16,1 C 85 % 1004,1 hPa 0,0 l/m 1,5 km/h (1 Bft) O-NO 63 0 min 0,000 mm 0,0 UV-I 0 W/m 13,6 C 16,1 C 3,2 km/h (1 Bft) 100,00 %
15.06.2016 22:25 16,1 C 85 % 1004,1 hPa 0,0 l/m 2,2 km/h (1 Bft) O-NO 63 0 min 0,000 mm 0,0 UV-I 0 W/m 13,6 C 16,1 C 3,2 km/h (1 Bft) 100,00 %
15.06.2016 22:26 16,1 C 84 % 1004,2 hPa 0,0 l/m 2,3 km/h (1 Bft) O-NO 63 0 min 0,000 mm 0,0 UV-I 0 W/m 13,4 C 16,1 C 3,2 km/h (1 Bft) 100,00 %
15.06.2016 22:27 16,1 C 85 % 1004,2 hPa 0,0 l/m 3,5 km/h (1 Bft) O-SO 110 0 min 0,000 mm 0,0 UV-I 0 W/m 13,6 C 16,1 C 4,8 km/h (1 Bft) 100,00 %
15.06.2016 22:28 16,1 C 85 % 1004,2 hPa 0,0 l/m 6,5 km/h (2 Bft) S-SW 210 0 min 0,000 mm 0,0 UV-I 0 W/m 13,6 C 16,1 C 8,0 km/h (2 Bft) 100,00 %
15.06.2016 22:29 16,1 C 85 % 1004,2 hPa 0,0 l/m 5,4 km/h (1 Bft) SW 216 0 min 0,000 mm 0,0 UV-I 0 W/m 13,6 C 16,1 C 6,4 km/h (2 Bft) 100,00 %
15.06.2016 22:30 16,1 C 85 % 1004,2 hPa 0,0 l/m 5,7 km/h (1 Bft) S-SW 200 0 min 0,000 mm 0,0 UV-I 0 W/m 13,6 C 16,1 C 8,0 km/h (2 Bft) 100,00 %
15.06.2016 22:31 16,0 C 86 % 1004,2 hPa 0,0 l/m 4,1 km/h (1 Bft) SW 221 0 min 0,000 mm 0,0 UV-I 0 W/m 13,7 C 16,0 C 8,0 km/h (2 Bft) 100,00 %
15.06.2016 22:32 16,0 C 86 % 1004,3 hPa 0,0 l/m 3,7 km/h (1 Bft) S-SW 199 0 min 0,000 mm 0,0 UV-I 0 W/m 13,7 C 16,0 C 6,4 km/h (2 Bft) 100,00 %
15.06.2016 22:33 16,0 C 86 % 1004,2 hPa 0,0 l/m 4,3 km/h (1 Bft) S-SW 199 0 min 0,000 mm 0,0 UV-I 0 W/m 13,7 C 16,0 C 4,8 km/h (1 Bft) 100,00 %
15.06.2016 22:34 15,9 C 86 % 1004,3 hPa 0,0 l/m 3,0 km/h (1 Bft) S-SW 199 0 min 0,000 mm 0,0 UV-I 0 W/m 13,6 C 15,9 C 4,8 km/h (1 Bft) 100,00 %
15.06.2016 22:35 16,0 C 86 % 1004,3 hPa 0,0 l/m 4,8 km/h (1 Bft) SW 215 0 min 0,000 mm 0,0 UV-I 0 W/m 13,7 C 16,0 C 6,4 km/h (2 Bft) 100,00 %
15.06.2016 22:36 15,9 C 86 % 1004,3 hPa 0,0 l/m 3,3 km/h (1 Bft) SW 217 0 min 0,000 mm 0,0 UV-I 0 W/m 13,6 C 15,9 C 4,8 km/h (1 Bft) 96,15 %
15.06.2016 22:37 15,9 C 86 % 1004,3 hPa 0,0 l/m 3,4 km/h (1 Bft) SW 217 0 min 0,000 mm 0,0 UV-I 0 W/m 13,6 C 15,9 C 4,8 km/h (1 Bft) 100,00 %
15.06.2016 22:38 15,9 C 86 % 1004,3 hPa 0,0 l/m 3,1 km/h (1 Bft) SW 217 0 min 0,000 mm 0,0 UV-I 0 W/m 13,6 C 15,9 C 4,8 km/h (1 Bft) 100,00 %
15.06.2016 22:39 16,0 C 86 % 1004,3 hPa 0,0 l/m 2,7 km/h (1 Bft) SW 217 0 min 0,000 mm 0,0 UV-I 0 W/m 13,7 C 16,0 C 3,2 km/h (1 Bft) 100,00 %
15.06.2016 22:40 15,9 C 86 % 1004,3 hPa 0,0 l/m 1,1 km/h (1 Bft) SW 217 0 min 0,000 mm 0,0 UV-I 0 W/m 13,6 C 15,9 C 3,2 km/h (1 Bft) 96,15 %
15.06.2016 22:41 15,9 C 85 % 1004,3 hPa 0,0 l/m 0,1 km/h (0 Bft) SW 217 0 min 0,000 mm 0,0 UV-I 0 W/m 13,4 C 15,9 C 1,6 km/h (1 Bft) 100,00 %
15.06.2016 22:42 15,9 C 84 % 1004,3 hPa 0,0 l/m 0,8 km/h (0 Bft) SW 217 0 min 0,000 mm 0,0 UV-I 0 W/m 13,2 C 15,9 C 1,6 km/h (1 Bft) 100,00 %
15.06.2016 22:43 15,9 C 84 % 1004,3 hPa 0,0 l/m 0,4 km/h (0 Bft) SW 217 0 min 0,000 mm 0,0 UV-I 0 W/m 13,2 C 15,9 C 1,6 km/h (1 Bft) 100,00 %
15.06.2016 22:44 15,9 C 84 % 1004,3 hPa 0,0 l/m 0,3 km/h (0 Bft) SW 217 0 min 0,000 mm 0,0 UV-I 0 W/m 13,2 C 15,9 C 1,6 km/h (1 Bft) 100,00 %
15.06.2016 22:45 16,0 C 83 % 1004,3 hPa 0,0 l/m 0,3 km/h (0 Bft) SW 217 0 min 0,000 mm 0,0 UV-I 0 W/m 13,1 C 16,0 C 1,6 km/h (1 Bft) 100,00 %
15.06.2016 22:46 16,0 C 84 % 1004,3 hPa 0,0 l/m 1,2 km/h (1 Bft) SW 217 0 min 0,000 mm 0,0 UV-I 0 W/m 13,3 C 16,0 C 3,2 km/h (1 Bft) 100,00 %
15.06.2016 22:47 16,1 C 86 % 1004,3 hPa 0,0 l/m 1,2 km/h (1 Bft) SW 217 0 min 0,000 mm 0,0 UV-I 0 W/m 13,8 C 16,1 C 1,6 km/h (1 Bft) 100,00 %
15.06.2016 22:48 16,1 C 86 % 1004,3 hPa 0,0 l/m 2,8 km/h (1 Bft) SW 217 0 min 0,000 mm 0,0 UV-I 0 W/m 13,8 C 16,1 C 4,8 km/h (1 Bft) 100,00 %
15.06.2016 22:49 16,1 C 86 % 1004,2 hPa 0,0 l/m 1,3 km/h (1 Bft) SW 217 0 min 0,000 mm 0,0 UV-I 0 W/m 13,8 C 16,1 C 3,2 km/h (1 Bft) 100,00 %
15.06.2016 22:50 16,1 C 86 % 1004,2 hPa 0,0 l/m 1,0 km/h (0 Bft) SW 217 0 min 0,000 mm 0,0 UV-I 0 W/m 13,8 C 16,1 C 1,6 km/h (1 Bft) 92,86 %
15.06.2016 22:51 16,1 C 86 % 1004,2 hPa 0,0 l/m 0,6 km/h (0 Bft) SW 217 0 min 0,000 mm 0,0 UV-I 0 W/m 13,8 C 16,1 C 1,6 km/h (1 Bft) 100,00 %
15.06.2016 22:52 16,0 C 85 % 1004,2 hPa 0,0 l/m 0,0 km/h (0 Bft) SW 217 0 min 0,000 mm 0,0 UV-I 0 W/m 13,5 C 16,0 C 0,0 km/h (0 Bft) 95,65 %
15.06.2016 22:53 16,0 C 84 % 1004,2 hPa 0,0 l/m 0,0 km/h (0 Bft) SW 217 0 min 0,000 mm 0,0 UV-I 0 W/m 13,3 C 16,0 C 0,0 km/h (0 Bft) 100,00 %
15.06.2016 22:54 16,0 C 84 % 1004,1 hPa 0,0 l/m 0,1 km/h (0 Bft) SW 217 0 min 0,000 mm 0,0 UV-I 0 W/m 13,3 C 16,0 C 1,6 km/h (1 Bft) 95,65 %
15.06.2016 22:55 16,0 C 84 % 1004,1 hPa 0,0 l/m 0,1 km/h (0 Bft) SW 217 0 min 0,000 mm 0,0 UV-I 0 W/m 13,3 C 16,0 C 1,6 km/h (1 Bft) 95,83 %
15.06.2016 22:56 16,1 C 84 % 1004,1 hPa 0,0 l/m 0,0 km/h (0 Bft) SW 217 0 min 0,000 mm 0,0 UV-I 0 W/m 13,4 C 16,1 C 0,0 km/h (0 Bft) 100,00 %
15.06.2016 22:57 16,1 C 84 % 1004,2 hPa 0,0 l/m 0,4 km/h (0 Bft) SW 217 0 min 0,000 mm 0,0 UV-I 0 W/m 13,4 C 16,1 C 1,6 km/h (1 Bft) 96,30 %
15.06.2016 22:58 16,1 C 84 % 1004,2 hPa 0,0 l/m 2,1 km/h (1 Bft) SW 217 0 min 0,000 mm 0,0 UV-I 0 W/m 13,4 C 16,1 C 3,2 km/h (1 Bft) 100,00 %
15.06.2016 22:59 16,1 C 83 % 1004,2 hPa 0,0 l/m 1,7 km/h (1 Bft) SW 217 0 min 0,000 mm 0,0 UV-I 0 W/m 13,2 C 16,1 C 3,2 km/h (1 Bft) 96,55 %
15.06.2016 23:00 16,1 C 83 % 1004,2 hPa 0,0 l/m 2,1 km/h (1 Bft) SW 217 0 min 0,000 mm 0,0 UV-I 0 W/m 13,2 C 16,1 C 3,2 km/h (1 Bft) 100,00 %
15.06.2016 23:02 16,1 C 83 % 1004,2 hPa 0,0 l/m 2,9 km/h (1 Bft) SW 217 0 min 0,000 mm 0,0 UV-I 0 W/m 13,2 C 16,1 C 4,8 km/h (1 Bft) 97,14 %
15.06.2016 23:03 16,1 C 83 % 1004,2 hPa 0,0 l/m 3,5 km/h (1 Bft) SW 217 0 min 0,000 mm 0,0 UV-I 0 W/m 13,2 C 16,1 C 4,8 km/h (1 Bft) 96,55 %
15.06.2016 23:04 16,1 C 84 % 1004,2 hPa 0,0 l/m 3,4 km/h (1 Bft) SW 217 0 min 0,000 mm 0,0 UV-I 0 W/m 13,4 C 16,1 C 4,8 km/h (1 Bft) 96,67 %
15.06.2016 23:05 16,0 C 83 % 1004,2 hPa 0,0 l/m 3,2 km/h (1 Bft) SW 217 0 min 0,000 mm 0,0 UV-I 0 W/m 13,1 C 16,0 C 3,2 km/h (1 Bft) 100,00 %
15.06.2016 23:06 16,0 C 83 % 1004,2 hPa 0,0 l/m 2,4 km/h (1 Bft) SW 217 0 min 0,000 mm 0,0 UV-I 0 W/m 13,1 C 16,0 C 3,2 km/h (1 Bft) 95,83 %
15.06.2016 23:07 16,0 C 84 % 1004,2 hPa 0,0 l/m 2,3 km/h (1 Bft) SW 217 0 min 0,000 mm 0,0 UV-I 0 W/m 13,3 C 16,0 C 3,2 km/h (1 Bft) 95,65 %
15.06.2016 23:08 16,0 C 84 % 1004,2 hPa 0,0 l/m 3,0 km/h (1 Bft) SW 217 0 min 0,000 mm 0,0 UV-I 0 W/m 13,3 C 16,0 C 3,2 km/h (1 Bft) 95,83 %
15.06.2016 23:09 16,0 C 83 % 1004,2 hPa 0,0 l/m 1,9 km/h (1 Bft) SW 217 0 min 0,000 mm 0,0 UV-I 0 W/m 13,1 C 16,0 C 3,2 km/h (1 Bft) 100,00 %
15.06.2016 23:10 16,0 C 83 % 1004,1 hPa 0,0 l/m 1,9 km/h (1 Bft) SW 217 0 min 0,000 mm 0,0 UV-I 0 W/m 13,1 C 16,0 C 3,2 km/h (1 Bft) 92,31 %
15.06.2016 23:11 16,0 C 84 % 1004,1 hPa 0,0 l/m 1,6 km/h (1 Bft) SW 217 0 min 0,000 mm 0,0 UV-I 0 W/m 13,3 C 16,0 C 3,2 km/h (1 Bft) 100,00 %
15.06.2016 23:12 15,9 C 84 % 1004,1 hPa 0,0 l/m 1,2 km/h (1 Bft) SW 217 0 min 0,000 mm 0,0 UV-I 0 W/m 13,2 C 15,9 C 1,6 km/h (1 Bft) 96,15 %
15.06.2016 23:13 15,9 C 84 % 1004,1 hPa 0,0 l/m 1,7 km/h (1 Bft) SW 217 0 min 0,000 mm 0,0 UV-I 0 W/m 13,2 C 15,9 C 3,2 km/h (1 Bft) 92,31 %
15.06.2016 23:14 15,9 C 84 % 1004,1 hPa 0,0 l/m 2,3 km/h (1 Bft) SW 217 0 min 0,000 mm 0,0 UV-I 0 W/m 13,2 C 15,9 C 3,2 km/h (1 Bft) 100,00 %
15.06.2016 23:15 15,9 C 84 % 1004,1 hPa 0,0 l/m 1,7 km/h (1 Bft) SW 217 0 min 0,000 mm 0,0 UV-I 0 W/m 13,2 C 15,9 C 3,2 km/h (1 Bft) 96,15 %
15.06.2016 23:16 15,9 C 85 % 1004,2 hPa 0,0 l/m 2,5 km/h (1 Bft) SW 217 0 min 0,000 mm 0,0 UV-I 0 W/m 13,4 C 15,9 C 3,2 km/h (1 Bft) 100,00 %
15.06.2016 23:17 15,8 C 85 % 1004,2 hPa 0,0 l/m 3,7 km/h (1 Bft) SW 217 0 min 0,000 mm 0,0 UV-I 0 W/m 13,3 C 15,8 C 4,8 km/h (1 Bft) 98,67 %
15.06.2016 23:18 15,8 C 86 % 1004,3 hPa 0,0 l/m 3,9 km/h (1 Bft) SW 217 0 min 0,000 mm 0,0 UV-I 0 W/m 13,5 C 15,8 C 4,8 km/h (1 Bft) 97,56 %
15.06.2016 23:19 15,8 C 85 % 1004,3 hPa 0,0 l/m 3,4 km/h (1 Bft) SW 217 0 min 0,000 mm 0,0 UV-I 0 W/m 13,3 C 15,8 C 4,8 km/h (1 Bft) 95,83 %
15.06.2016 23:20 15,7 C 85 % 1004,3 hPa 0,0 l/m 3,2 km/h (1 Bft) SW 217 0 min 0,000 mm 0,0 UV-I 0 W/m 13,2 C 15,7 C 4,8 km/h (1 Bft) 95,65 %
15.06.2016 23:21 15,7 C 86 % 1004,4 hPa 0,0 l/m 2,2 km/h (1 Bft) S-SW 199 0 min 0,000 mm 0,0 UV-I 0 W/m 13,4 C 15,7 C 4,8 km/h (1 Bft) 96,30 %
15.06.2016 23:22 15,7 C 86 % 1004,4 hPa 0,0 l/m 3,3 km/h (1 Bft) S 188 0 min 0,000 mm 0,0 UV-I 0 W/m 13,4 C 15,7 C 4,8 km/h (1 Bft) 96,15 %
15.06.2016 23:23 15,6 C 86 % 1004,4 hPa 0,0 l/m 2,5 km/h (1 Bft) S 186 0 min 0,000 mm 0,0 UV-I 0 W/m 13,3 C 15,6 C 3,2 km/h (1 Bft) 100,00 %
15.06.2016 23:24 15,6 C 86 % 1004,5 hPa 0,0 l/m 3,9 km/h (1 Bft) S 186 0 min 0,000 mm 0,0 UV-I 0 W/m 13,3 C 15,6 C 4,8 km/h (1 Bft) 100,00 %
15.06.2016 23:25 15,5 C 86 % 1004,5 hPa 0,0 l/m 2,7 km/h (1 Bft) S 186 0 min 0,000 mm 0,0 UV-I 0 W/m 13,2 C 15,5 C 4,8 km/h (1 Bft) 100,00 %
15.06.2016 23:26 15,5 C 86 % 1004,5 hPa 0,0 l/m 3,0 km/h (1 Bft) S 186 0 min 0,000 mm 0,0 UV-I 0 W/m 13,2 C 15,5 C 4,8 km/h (1 Bft) 95,65 %
15.06.2016 23:27 15,5 C 86 % 1004,6 hPa 0,0 l/m 3,8 km/h (1 Bft) S 186 0 min 0,000 mm 0,0 UV-I 0 W/m 13,2 C 15,5 C 4,8 km/h (1 Bft) 100,00 %
15.06.2016 23:28 15,4 C 86 % 1004,6 hPa 0,0 l/m 2,8 km/h (1 Bft) S 186 0 min 0,000 mm 0,0 UV-I 0 W/m 13,1 C 15,4 C 3,2 km/h (1 Bft) 100,00 %
15.06.2016 23:29 15,5 C 86 % 1004,6 hPa 0,0 l/m 4,3 km/h (1 Bft) S 186 0 min 0,000 mm 0,0 UV-I 0 W/m 13,2 C 15,5 C 6,4 km/h (2 Bft) 95,83 %
15.06.2016 23:30 15,5 C 86 % 1004,6 hPa 0,0 l/m 3,0 km/h (1 Bft) S 186 0 min 0,000 mm 0,0 UV-I 0 W/m 13,2 C 15,5 C 4,8 km/h (1 Bft) 100,00 %
15.06.2016 23:31 15,5 C 86 % 1004,7 hPa 0,0 l/m 3,8 km/h (1 Bft) S 186 0 min 0,000 mm 0,0 UV-I 0 W/m 13,2 C 15,5 C 6,4 km/h (2 Bft) 100,00 %
15.06.2016 23:32 15,5 C 86 % 1004,7 hPa 0,0 l/m 4,1 km/h (1 Bft) S 186 0 min 0,000 mm 0,0 UV-I 0 W/m 13,2 C 15,5 C 4,8 km/h (1 Bft) 100,00 %
15.06.2016 23:33 15,5 C 87 % 1004,8 hPa 0,0 l/m 4,7 km/h (1 Bft) S-SW 200 0 min 0,000 mm 0,0 UV-I 0 W/m 13,3 C 15,5 C 6,4 km/h (2 Bft) 100,00 %
15.06.2016 23:34 15,5 C 86 % 1004,7 hPa 0,0 l/m 5,3 km/h (1 Bft) S-SW 196 0 min 0,000 mm 0,0 UV-I 0 W/m 13,2 C 15,5 C 8,0 km/h (2 Bft) 100,00 %
15.06.2016 23:35 15,4 C 87 % 1004,8 hPa 0,0 l/m 4,5 km/h (1 Bft) S-SW 197 0 min 0,000 mm 0,0 UV-I 0 W/m 13,2 C 15,4 C 6,4 km/h (2 Bft) 100,00 %
15.06.2016 23:36 15,4 C 87 % 1004,8 hPa 0,0 l/m 3,6 km/h (1 Bft) S-SW 198 0 min 0,000 mm 0,0 UV-I 0 W/m 13,2 C 15,4 C 4,8 km/h (1 Bft) 100,00 %
15.06.2016 23:37 15,4 C 86 % 1004,8 hPa 0,0 l/m 3,8 km/h (1 Bft) SW 216 0 min 0,000 mm 0,0 UV-I 0 W/m 13,1 C 15,4 C 6,4 km/h (2 Bft) 100,00 %
15.06.2016 23:38 15,4 C 86 % 1004,7 hPa 0,0 l/m 5,7 km/h (1 Bft) S 188 0 min 0,000 mm 0,0 UV-I 0 W/m 13,1 C 15,4 C 8,0 km/h (2 Bft) 100,00 %
15.06.2016 23:39 15,4 C 86 % 1004,7 hPa 0,0 l/m 6,2 km/h (2 Bft) S 190 0 min 0,000 mm 0,0 UV-I 0 W/m 13,1 C 15,4 C 8,0 km/h (2 Bft) 100,00 %
15.06.2016 23:40 15,4 C 86 % 1004,7 hPa 0,0 l/m 6,9 km/h (2 Bft) S 188 0 min 0,000 mm 0,0 UV-I 0 W/m 13,1 C 15,1 C 8,0 km/h (2 Bft) 100,00 %
15.06.2016 23:41 15,4 C 86 % 1004,7 hPa 0,0 l/m 4,4 km/h (1 Bft) S 188 0 min 0,000 mm 0,0 UV-I 0 W/m 13,1 C 15,4 C 6,4 km/h (2 Bft) 100,00 %
15.06.2016 23:42 15,4 C 86 % 1004,7 hPa 0,0 l/m 4,8 km/h (1 Bft) S 189 0 min 0,000 mm 0,0 UV-I 0 W/m 13,1 C 15,4 C 6,4 km/h (2 Bft) 100,00 %
15.06.2016 23:43 15,4 C 86 % 1004,7 hPa 0,0 l/m 4,0 km/h (1 Bft) S 189 0 min 0,000 mm 0,0 UV-I 0 W/m 13,1 C 15,4 C 6,4 km/h (2 Bft) 100,00 %
15.06.2016 23:44 15,4 C 86 % 1004,7 hPa 0,0 l/m 4,3 km/h (1 Bft) S 189 0 min 0,000 mm 0,0 UV-I 0 W/m 13,1 C 15,4 C 4,8 km/h (1 Bft) 96,67 %
15.06.2016 23:45 15,5 C 87 % 1004,7 hPa 0,0 l/m 6,0 km/h (2 Bft) S-SW 209 0 min 0,000 mm 0,0 UV-I 0 W/m 13,3 C 15,5 C 6,4 km/h (2 Bft) 100,00 %
15.06.2016 23:46 15,4 C 86 % 1004,7 hPa 0,0 l/m 4,7 km/h (1 Bft) S-SW 199 0 min 0,000 mm 0,0 UV-I 0 W/m 13,1 C 15,4 C 6,4 km/h (2 Bft) 100,00 %
15.06.2016 23:47 15,4 C 86 % 1004,7 hPa 0,0 l/m 6,2 km/h (2 Bft) S-SW 204 0 min 0,000 mm 0,0 UV-I 0 W/m 13,1 C 15,4 C 8,0 km/h (2 Bft) 100,00 %
15.06.2016 23:48 15,4 C 86 % 1004,7 hPa 0,0 l/m 5,3 km/h (1 Bft) S 172 0 min 0,000 mm 0,0 UV-I 0 W/m 13,1 C 15,4 C 6,4 km/h (2 Bft) 100,00 %
15.06.2016 23:49 15,5 C 86 % 1004,8 hPa 0,0 l/m 3,5 km/h (1 Bft) S 175 0 min 0,000 mm 0,0 UV-I 0 W/m 13,2 C 15,5 C 4,8 km/h (1 Bft) 100,00 %
15.06.2016 23:50 15,5 C 86 % 1004,8 hPa 0,0 l/m 4,1 km/h (1 Bft) S 174 0 min 0,000 mm 0,0 UV-I 0 W/m 13,2 C 15,5 C 4,8 km/h (1 Bft) 100,00 %
15.06.2016 23:51 15,5 C 86 % 1004,8 hPa 0,0 l/m 3,8 km/h (1 Bft) S 174 0 min 0,000 mm 0,0 UV-I 0 W/m 13,2 C 15,5 C 4,8 km/h (1 Bft) 100,00 %
15.06.2016 23:52 15,5 C 86 % 1004,7 hPa 0,0 l/m 4,6 km/h (1 Bft) S 182 0 min 0,000 mm 0,0 UV-I 0 W/m 13,2 C 15,5 C 8,0 km/h (2 Bft) 100,00 %
15.06.2016 23:53 15,5 C 85 % 1004,7 hPa 0,0 l/m 5,7 km/h (1 Bft) S 175 0 min 0,000 mm 0,0 UV-I 0 W/m 13,0 C 15,5 C 8,0 km/h (2 Bft) 100,00 %
15.06.2016 23:54 15,5 C 85 % 1004,6 hPa 0,0 l/m 3,4 km/h (1 Bft) S 178 0 min 0,000 mm 0,0 UV-I 0 W/m 13,0 C 15,5 C 4,8 km/h (1 Bft) 100,00 %
15.06.2016 23:55 15,5 C 85 % 1004,6 hPa 0,0 l/m 4,6 km/h (1 Bft) S 181 0 min 0,000 mm 0,0 UV-I 0 W/m 13,0 C 15,5 C 6,4 km/h (2 Bft) 100,00 %
15.06.2016 23:56 15,5 C 85 % 1004,6 hPa 0,0 l/m 4,0 km/h (1 Bft) S 181 0 min 0,000 mm 0,0 UV-I 0 W/m 13,0 C 15,5 C 4,8 km/h (1 Bft) 100,00 %
15.06.2016 23:57 15,5 C 85 % 1004,6 hPa 0,0 l/m 4,2 km/h (1 Bft) S 181 0 min 0,000 mm 0,0 UV-I 0 W/m 13,0 C 15,5 C 4,8 km/h (1 Bft) 100,00 %
15.06.2016 23:58 15,5 C 85 % 1004,6 hPa 0,0 l/m 3,8 km/h (1 Bft) S 191 0 min 0,000 mm 0,0 UV-I 0 W/m 13,0 C 15,5 C 4,8 km/h (1 Bft) 100,00 %
15.06.2016 23:59 15,5 C 85 % 1004,6 hPa 0,0 l/m 3,6 km/h (1 Bft) S-SW 195 0 min 0,000 mm 0,0 UV-I 0 W/m 13,0 C 15,5 C 6,4 km/h (2 Bft) 100,00 %
_ Min-Zeit 06:09 16:54 02:41 - 20:29 - - - - - - 16:12 05:44 20:29 13:20
Minimum _ 12,0 C 49 % 1000,1 hPa - 0,0 km/h (0 Bft) - - - - - - 9,8 C 5,3 C 0,0 km/h (0 Bft) 83,33 %
_ Max-Zeit 17:18 02:13 23:33 00:13 05:31 - - 11:02 15:00 11:57 11:57 20:47 17:18 05:24 00:00
Maximum _ 21,3 C 96 % 1004,8 hPa 0,2 l/m 24,1 km/h
SW (4 Bft)
- - 2 min 0,508 mm 6,4 UV-I 1004 W/m 14,0 C 21,3 C 33,8 km/h
SW (5 Bft)
100,00 %
Durchschnitt _ 15,8 C 81 % 1001,8 hPa #6,6 l/m 7,7 km/h (2 Bft) SW - #7:46 h #3,454 mm 3,1 UV-I 357 W/m 12,2 C 14,4 C 11,3 km/h (2 Bft) 98,64 %